[[{"header":{"parameterUnit":"m.s-1","parameterCategory":1,"la1":30.6,"la2":29.2853,"lo1":-89.7004,"lo2":-87.6739,"dx":0.0162,"dy":0.0183,"nx":112,"ny":82,"refTime":"2022-11-23T18:00:00:Z","depth":0,"parameterNumber":2,"parameterNumberName":"U-component_of_WINDS"},"data":[0.0,0.0,0.0,0.0,0.0,0.0,0.0,0.0,0.0,0.0,0.0,0.0,0.0,0.0,0.0,0.0,0.0,0.0,0.0,0.0,0.0,0.0,0.0,0.0,0.0,0.0,0.0,0.0,0.0,0.0,0.0,0.0,0.0,0.0,0.0,0.0,0.0,0.0,0.0,0.0,0.0,0.0,0.0,0.0,0.0,0.0,0.0,0.0,0.0,0.0,0.0,0.0,0.0,0.0,0.0,0.0,0.0,0.0,0.0,0.0,0.0,0.0,0.0,0.0,0.0,0.0,0.0,0.0,0.0,0.0,0.0,0.0,0.0,0.0,0.0,0.0,0.0,0.0,0.0,0.0,0.0,0.0,0.0,0.0,0.0,0.0,0.0,0.0,0.0,0.0,2.8028,2.8618,3.0956,3.2386,3.2123,3.1485,2.8947,2.3936,0.0,0.0,0.0,0.0,0.0,0.0,0.0,0.0,0.0,0.0,0.0,0.0,0.0,0.0,0.0,0.0,0.0,0.0,0.0,0.0,0.0,0.0,0.0,0.0,0.0,0.0,0.0,0.0,0.0,0.0,0.0,0.0,0.0,0.0,0.0,0.0,0.0,0.0,0.0,0.0,0.0,0.0,0.0,0.0,0.0,0.0,0.0,0.0,0.0,0.0,0.0,0.0,0.0,0.0,0.0,0.0,0.0,0.0,0.0,0.0,0.0,0.0,0.0,0.0,0.0,0.0,0.0,0.0,0.0,0.0,0.0,0.0,0.0,0.0,0.0,0.0,0.0,0.0,0.0,0.0,0.0,0.0,0.0,0.0,0.0,0.0,0.0,0.0,0.0,0.0,0.0,0.0,0.0,0.0,0.0,0.0,0.0,0.0,0.0,0.0,0.0,0.0,0.0,0.0,2.9948,3.3185,3.3953,3.3644,3.2217,3.1992,2.9561,2.4025,0.0,0.0,0.0,0.0,0.0,0.0,0.0,0.0,0.0,0.0,0.0,0.0,0.0,0.0,0.0,0.0,0.0,0.0,0.0,0.0,0.0,0.0,0.0,0.0,0.0,0.0,0.0,0.0,0.0,0.0,0.0,0.0,0.0,0.0,0.0,0.0,0.0,0.0,0.0,0.0,0.0,0.0,0.0,0.0,0.0,0.0,0.0,0.0,0.0,0.0,0.0,0.0,0.0,0.0,0.0,0.0,0.0,0.0,0.0,0.0,0.0,0.0,0.0,0.0,0.0,0.0,0.0,0.0,0.0,0.0,0.0,0.0,0.0,0.0,0.0,0.0,0.0,0.0,0.0,0.0,0.0,0.0,0.0,0.0,0.0,0.0,0.0,0.0,0.0,0.0,0.0,0.0,0.0,0.0,0.0,0.0,0.0,0.0,0.0,0.0,0.0,0.0,0.0,2.7872,3.0686,3.3633,3.4339,3.4113,3.2912,3.2799,3.0373,2.4665,2.506,0.0,0.0,0.0,0.0,0.0,0.0,0.0,0.0,0.0,0.0,0.0,0.0,0.0,0.0,0.0,0.0,0.0,0.0,0.0,0.0,0.0,0.0,0.0,0.0,0.0,0.0,0.0,0.0,0.0,0.0,0.0,0.0,0.0,0.0,0.0,0.0,0.0,0.0,0.0,0.0,0.0,0.0,0.0,0.0,0.0,0.0,0.0,0.0,0.0,0.0,0.0,0.0,0.0,0.0,0.0,0.0,0.0,0.0,0.0,0.0,0.0,0.0,0.0,0.0,0.0,0.0,0.0,0.0,0.0,0.0,0.0,0.0,0.0,0.0,0.0,0.0,0.0,0.0,0.0,0.0,0.0,0.0,0.0,0.0,0.0,0.0,0.0,0.0,0.0,0.0,0.0,0.0,0.0,0.0,0.0,0.0,0.0,0.0,0.0,0.0,0.0,0.0,3.0066,3.1698,3.3785,3.4381,3.4325,3.3496,3.3421,3.1051,2.5471,2.5727,0.0,0.0,0.0,0.0,0.0,0.0,0.0,0.0,0.0,0.0,0.0,0.0,0.0,0.0,0.0,0.0,0.0,0.0,0.0,0.0,0.0,0.0,0.0,0.0,0.0,0.0,0.0,0.0,0.0,0.0,0.0,0.0,0.0,0.0,0.0,0.0,0.0,0.0,0.0,0.0,0.0,0.0,0.0,0.0,0.0,0.0,0.0,0.0,0.0,0.0,0.0,0.0,0.0,0.0,0.0,0.0,0.0,0.0,0.0,0.0,0.0,0.0,0.0,0.0,0.0,0.0,0.0,0.0,0.0,0.0,0.0,0.0,0.0,0.0,0.0,0.0,0.0,0.0,0.0,0.0,0.0,0.0,0.0,0.0,0.0,0.0,0.0,0.0,0.0,0.0,0.0,0.0,0.0,0.0,0.0,0.0,0.0,0.0,0.0,0.0,0.0,0.0,3.1455,3.3923,3.5618,3.5203,3.4429,3.3576,3.3501,3.1362,2.6334,2.6067,0.0,0.0,0.0,0.0,0.0,0.0,0.0,0.0,0.0,0.0,0.0,0.0,0.0,0.0,0.0,0.0,0.0,0.0,0.0,0.0,0.0,0.0,0.0,0.0,0.0,0.0,0.0,0.0,0.0,0.0,0.0,0.0,0.0,0.0,0.0,0.0,0.0,0.0,0.0,0.0,0.0,0.0,0.0,0.0,0.0,0.0,0.0,0.0,0.0,0.0,0.0,0.0,0.0,0.0,0.0,0.0,0.0,0.0,0.0,0.0,0.0,0.0,0.0,0.0,0.0,0.0,0.0,0.0,0.0,0.0,0.0,0.0,0.0,0.0,0.0,0.0,0.0,0.0,0.0,0.0,0.0,0.0,0.0,0.0,0.0,0.0,0.0,0.0,0.0,0.0,0.0,0.0,0.0,0.0,0.0,0.0,0.0,0.0,0.0,0.0,0.0,0.0,3.1232,3.3688,3.5792,3.5279,3.4675,3.4353,3.4315,3.2641,2.8714,0.0,0.0,0.0,0.0,0.0,0.0,0.0,0.0,0.0,0.0,0.0,0.0,0.0,0.0,0.0,0.0,0.0,0.0,0.0,0.0,0.0,0.0,0.0,0.0,0.0,0.0,0.0,0.0,0.0,0.0,0.0,0.0,0.0,0.0,0.0,0.0,0.0,0.0,0.0,0.0,0.0,0.0,0.0,0.0,0.0,0.0,0.0,0.0,0.0,0.0,0.0,0.0,0.0,0.0,0.0,0.0,0.0,0.0,0.0,0.0,0.0,0.0,0.0,0.0,0.0,0.0,0.0,0.0,0.0,0.0,0.0,0.0,0.0,0.0,0.0,0.0,0.0,0.0,0.0,0.0,0.0,0.0,0.0,0.0,0.0,0.0,0.0,0.0,0.0,0.0,0.0,0.0,0.0,0.0,0.0,0.0,0.0,0.0,0.0,0.0,0.0,0.0,2.9038,3.1629,3.4194,3.6589,3.5642,3.4923,3.5188,3.498,3.3521,3.0478,0.0,0.0,0.0,0.0,0.0,0.0,0.0,0.0,0.0,0.0,0.0,0.0,0.0,0.0,0.0,0.0,0.0,0.0,0.0,0.0,0.0,0.0,0.0,0.0,0.0,0.0,0.0,0.0,0.0,0.0,0.0,0.0,0.0,0.0,0.0,0.0,0.0,0.0,0.0,0.0,0.0,0.0,0.0,0.0,0.0,0.0,0.0,0.0,0.0,0.0,0.0,0.0,0.0,0.0,0.0,0.0,0.0,0.0,0.0,0.0,0.0,0.0,0.0,0.0,0.0,0.0,0.0,0.0,0.0,0.0,0.0,0.0,0.0,0.0,0.0,0.0,0.0,0.0,0.0,0.0,0.0,0.0,0.0,0.0,0.0,0.0,0.0,0.0,0.0,0.0,0.0,0.0,0.0,0.0,0.0,0.0,0.0,0.0,0.0,0.0,0.0,0.0,2.9997,3.2962,3.5874,3.8435,3.6424,3.523,3.6042,3.536,3.3829,0.0,0.0,0.0,0.0,0.0,0.0,0.0,0.0,0.0,0.0,0.0,0.0,0.0,0.0,0.0,0.0,0.0,0.0,0.0,0.0,0.0,0.0,0.0,0.0,0.0,0.0,0.0,0.0,0.0,0.0,0.0,0.0,0.0,0.0,0.0,0.0,0.0,0.0,0.0,0.0,0.0,0.0,0.0,0.0,0.0,0.0,0.0,0.0,0.0,0.0,0.0,0.0,0.0,0.0,0.0,0.0,0.0,0.0,0.0,0.0,0.0,0.0,0.0,0.0,0.0,0.0,0.0,0.0,0.0,0.0,0.0,0.0,0.0,0.0,0.0,0.0,0.0,0.0,0.0,0.0,0.0,0.0,0.0,0.0,0.0,0.0,0.0,0.0,0.0,0.0,0.0,0.0,0.0,0.0,0.0,0.0,0.0,0.0,0.0,0.0,0.0,0.0,0.0,3.0895,3.3321,3.5874,3.8435,3.6424,3.5249,3.6101,3.5949,3.4995,3.3053,0.0,0.0,0.0,0.0,0.0,0.0,0.0,0.0,0.0,0.0,0.0,0.0,0.0,0.0,0.0,0.0,0.0,0.0,0.0,0.0,0.0,0.0,0.0,0.0,0.0,0.0,0.0,0.0,0.0,0.0,0.0,0.0,0.0,0.0,0.0,0.0,0.0,0.0,0.0,0.0,0.0,0.0,0.0,0.0,0.0,0.0,0.0,0.0,0.0,0.0,0.0,0.0,0.0,0.0,0.0,0.0,0.0,0.0,0.0,0.0,0.0,0.0,0.0,0.0,0.0,0.0,0.0,0.0,0.0,0.0,0.0,0.0,0.0,0.0,0.0,0.0,0.0,0.0,0.0,0.0,0.0,0.0,0.0,0.0,0.0,0.0,0.0,0.0,0.0,0.0,0.0,0.0,0.0,0.0,0.0,0.0,0.0,0.0,0.0,0.0,0.0,0.0,3.1319,3.3489,3.6007,3.8869,3.6613,3.5382,3.6576,3.6064,3.5243,3.4243,0.0,0.0,0.0,0.0,0.0,0.0,0.0,0.0,0.0,0.0,0.0,0.0,0.0,0.0,0.0,0.0,0.0,0.0,0.0,0.0,0.0,0.0,0.0,0.0,0.0,0.0,0.0,0.0,0.0,0.0,0.0,0.0,0.0,0.0,0.0,0.0,0.0,0.0,0.0,0.0,0.0,0.0,0.0,0.0,0.0,0.0,0.0,0.0,0.0,0.0,0.0,0.0,0.0,0.0,0.0,0.0,0.0,0.0,0.0,0.0,0.0,0.0,0.0,0.0,0.0,0.0,0.0,0.0,0.0,0.0,0.0,0.0,0.0,0.0,0.0,0.0,0.0,0.0,0.0,0.0,0.0,0.0,0.0,0.0,0.0,0.0,0.0,0.0,0.0,0.0,0.0,0.0,0.0,0.0,0.0,0.0,0.0,0.0,0.0,0.0,0.0,0.0,3.1635,3.358,3.6159,3.9456,3.6936,3.5666,3.7258,3.6007,3.5098,3.503,0.0,0.0,0.0,0.0,0.0,0.0,0.0,0.0,0.0,0.0,0.0,0.0,0.0,0.0,0.0,0.0,0.0,0.0,0.0,0.0,0.0,0.0,0.0,0.0,0.0,0.0,0.0,0.0,0.0,0.0,0.0,0.0,0.0,0.0,0.0,0.0,0.0,0.0,0.0,0.0,0.0,0.0,0.0,0.0,0.0,0.0,0.0,0.0,0.0,0.0,0.0,0.0,0.0,0.0,0.0,0.0,0.0,0.0,0.0,0.0,2.1442,1.8996,0.0,0.0,0.0,0.0,0.0,0.0,0.0,0.0,0.0,0.0,0.0,0.0,0.0,0.0,0.0,0.0,0.0,0.0,0.0,0.0,0.0,0.0,0.0,0.0,0.0,0.0,0.0,0.0,0.0,0.0,0.0,0.0,0.0,0.0,0.0,0.0,0.0,0.0,0.0,0.0,3.3444,3.4328,3.5931,3.866,3.7125,3.631,3.7315,3.7068,3.6606,3.5968,3.4933,0.0,0.0,0.0,0.0,0.0,0.0,0.0,0.0,0.0,0.0,0.0,0.0,0.0,0.0,0.0,0.0,0.0,0.0,0.0,0.0,0.0,0.0,0.0,0.0,0.0,0.0,0.0,0.0,0.0,0.0,0.0,0.0,0.0,0.0,0.0,0.0,0.0,0.0,0.0,0.0,0.0,0.0,0.0,0.0,0.0,0.0,0.0,0.0,0.0,0.0,0.0,0.0,0.0,0.0,0.0,0.0,0.0,0.0,0.0,2.5258,2.2981,0.0,0.0,0.0,0.0,0.0,0.0,0.0,0.0,0.0,0.0,0.0,0.0,0.0,0.0,0.0,0.0,0.0,0.0,0.0,0.0,0.0,0.0,0.0,0.0,0.0,0.0,0.0,0.0,0.0,0.0,0.0,0.0,0.0,0.0,0.0,0.0,0.0,0.0,0.0,0.0,3.4146,3.5264,3.6765,3.8529,3.7542,3.7106,3.794,3.7277,3.6653,3.6228,3.5777,0.0,0.0,0.0,0.0,0.0,0.0,0.0,0.0,0.0,0.0,0.0,0.0,0.0,0.0,0.0,0.0,0.0,0.0,0.0,0.0,0.0,0.0,0.0,0.0,0.0,0.0,0.0,0.0,0.0,0.0,0.0,0.0,0.0,0.0,0.0,0.0,0.0,0.0,0.0,0.0,0.0,0.0,0.0,0.0,0.0,0.0,0.0,0.0,0.0,0.0,0.0,0.0,0.0,2.6786,2.7258,2.7258,2.7481,2.8184,2.9208,2.8971,2.7176,2.4487,2.5111,0.0,0.0,0.0,0.0,0.0,0.0,0.0,0.0,0.0,0.0,0.0,0.0,0.0,0.0,0.0,0.0,0.0,0.0,0.0,0.0,0.0,0.0,0.0,0.0,2.9288,2.8918,2.7001,0.0,0.0,0.0,0.0,0.0,0.0,0.0,0.0,0.0,0.0,0.0,3.47,3.6194,3.7675,3.8395,3.7959,3.7921,3.8643,3.7428,3.6632,3.6632,3.6358,3.5319,0.0,0.0,0.0,0.0,0.0,0.0,0.0,0.0,0.0,0.0,0.0,0.0,0.0,0.0,0.0,0.0,0.0,0.0,0.0,0.0,0.0,0.0,0.0,0.0,0.0,0.0,0.0,0.0,0.0,0.0,0.0,0.0,1.56,1.6413,0.0,0.0,0.0,0.0,0.0,0.0,0.0,0.0,0.0,0.0,0.0,0.0,0.0,2.4945,2.49,2.5759,2.6544,2.7247,2.8482,2.9053,2.9089,3.043,3.1157,3.135,3.1995,0.0,2.7013,2.7119,0.0,0.0,0.0,0.0,0.0,0.0,0.0,0.0,0.0,0.0,0.0,0.0,0.0,0.0,0.0,0.0,0.0,0.0,0.0,0.0,0.0,0.0,3.0248,3.1621,3.1821,3.1537,0.0,2.9734,2.8479,2.7765,2.8313,0.0,0.0,0.0,0.0,0.0,0.0,0.0,3.6242,3.685,3.7428,3.7561,3.8148,3.8586,3.87,3.851,3.8378,3.8378,3.7015,3.6351,3.6728,3.406,0.0,0.0,0.0,0.0,0.0,0.0,0.0,0.0,0.0,0.0,0.0,0.0,0.0,0.0,0.0,0.0,0.0,0.0,0.0,0.0,0.0,0.0,0.0,0.0,0.0,0.0,0.0,0.0,0.0,1.5968,1.6422,1.8176,1.8534,1.8822,0.0,0.0,0.0,0.0,0.0,0.0,0.0,0.0,0.0,2.5978,2.6789,2.7531,2.8246,2.8524,2.9057,2.9872,3.0442,3.0689,3.0725,3.1544,3.1923,3.1958,3.2294,3.1409,2.968,2.957,2.9026,2.8203,0.0,0.0,0.0,0.0,2.6841,2.7443,2.8305,2.8896,2.9269,2.9212,0.0,0.0,0.0,0.0,0.0,0.0,0.0,0.0,0.0,0.0,3.1325,3.3232,3.3454,3.3203,3.3077,3.2451,3.1666,0.0,3.057,3.186,3.5459,3.6138,0.0,0.0,0.0,3.7507,3.5619,3.6993,3.794,3.7447,3.8584,3.938,3.938,3.8944,3.87,3.87,3.7542,3.6825,3.6731,3.5316,3.3518,0.0,0.0,0.0,0.0,0.0,0.0,0.0,0.0,0.0,0.0,0.0,0.0,0.0,0.0,0.0,0.0,0.0,0.0,0.0,0.0,0.0,0.0,0.0,0.0,0.0,0.0,0.0,0.0,1.7772,1.8017,1.9941,2.0989,2.1523,0.0,0.0,0.0,0.0,0.0,0.0,2.5285,2.6081,2.7056,2.8228,2.9009,2.9834,3.0796,3.0814,3.1207,3.201,3.201,3.1929,3.1817,3.2002,3.2022,3.1915,3.1915,3.1716,3.1391,3.1379,3.0821,2.9954,2.9644,2.9801,3.0068,2.9025,2.9091,2.9793,3.0545,3.1207,3.1734,3.1942,3.2102,3.1996,3.1047,0.0,0.0,0.0,0.0,3.2594,3.3939,3.2985,3.2155,3.412,3.4335,3.4184,3.4494,3.4213,3.3617,0.0,3.2268,3.3353,3.7402,3.761,0.0,3.8487,3.8247,3.7258,3.5286,3.7024,3.8203,3.7646,3.8893,3.9804,3.9889,3.9342,3.9001,3.9001,3.8205,3.7447,3.686,3.6435,3.531,3.3407,0.0,0.0,0.0,0.0,0.0,0.0,0.0,0.0,0.0,0.0,0.0,0.0,0.0,0.0,0.0,0.0,0.0,0.0,0.0,0.0,0.0,0.0,0.0,0.0,0.0,0.0,0.0,0.0,0.0,2.1634,2.2842,0.0,0.0,0.0,0.0,2.6276,2.7112,2.7804,2.8258,2.9114,2.9807,3.032,3.1142,3.1559,3.1635,3.1635,3.2028,3.2844,3.2844,3.2583,3.2074,3.2074,3.1861,3.1435,3.1435,3.1435,3.1418,3.1882,3.1346,3.0279,3.0178,2.9831,2.947,3.0415,3.0865,3.1154,3.2372,3.28,3.2883,3.3259,3.3713,3.4015,3.3767,3.3866,0.0,0.0,3.4489,3.4046,3.4684,3.4035,3.3393,3.4298,3.4289,3.4408,3.5471,3.4522,3.333,0.0,3.2849,3.3582,3.5833,0.0,3.5675,3.7566,3.7224,3.6665,3.6244,3.7054,3.7764,3.8053,3.8827,3.9494,3.9867,3.9851,3.9832,3.9832,3.9077,3.8624,3.8586,3.7051,3.6146,3.6018,3.3564,0.0,0.0,0.0,0.0,0.0,0.0,0.0,0.0,0.0,0.0,0.0,0.0,0.0,0.0,0.0,0.0,0.0,0.0,0.0,0.0,0.0,0.0,0.0,0.0,0.0,0.0,0.0,0.0,2.3909,2.5279,0.0,2.6865,2.7911,2.8351,2.7888,2.8888,2.9619,2.9779,3.0559,3.1337,3.2041,3.2313,3.2456,3.2456,3.2456,3.263,3.2884,3.257,3.2299,3.2074,3.1897,3.1759,3.1607,3.2043,3.2067,3.1797,3.2286,3.2196,3.1792,3.1918,3.1895,3.1962,3.2708,3.2977,3.3148,3.4071,3.4383,3.4413,3.455,3.4495,3.4363,3.432,3.4686,3.5225,3.545,3.5159,3.4933,3.5674,3.5202,3.4648,3.5217,3.5073,3.4999,3.5665,3.5144,3.4524,3.4413,3.4165,3.511,3.8633,3.7813,3.7187,3.8836,3.7804,3.662,3.6058,3.6875,3.7581,3.7691,3.8667,3.9352,3.9494,3.9739,3.9889,3.9889,3.9134,3.87,3.87,3.8131,3.73,3.6222,3.5806,3.5263,0.0,0.0,0.0,0.0,0.0,0.0,0.0,0.0,0.0,0.0,0.0,0.0,0.0,0.0,0.0,0.0,0.0,0.0,0.0,0.0,0.0,0.0,0.0,0.0,0.0,2.2953,2.4204,2.5543,2.7326,2.8539,2.879,2.9776,3.0185,2.9669,3.0695,3.1314,3.1314,3.1813,3.2331,3.2898,3.2916,3.2916,3.2916,3.3152,3.3294,3.3294,3.3191,3.2949,3.2587,3.2405,3.2133,3.1808,3.227,3.2272,3.2043,3.2496,3.2744,3.2757,3.2807,3.3174,3.3701,3.4058,3.4337,3.4597,3.5346,3.5792,3.606,3.6345,3.636,3.6296,3.6296,3.6674,3.714,3.714,3.6789,3.6542,3.7077,3.6613,3.6148,3.6669,3.659,3.6504,3.692,3.6692,3.6363,3.6231,3.5452,3.5797,3.8906,3.7958,3.7091,3.7947,3.7088,3.6109,3.5499,3.6413,3.7302,3.7679,3.8459,3.9082,3.9471,4.0216,4.0623,4.0547,4.0231,3.9776,3.9136,3.9166,3.8686,3.7559,3.8075,3.7852,3.6818,0.0,0.0,0.0,0.0,0.0,0.0,0.0,0.0,0.0,0.0,0.0,0.0,0.0,0.0,0.0,0.0,0.0,0.0,0.0,0.0,0.0,0.0,0.0,2.2066,2.4343,2.626,2.6621,2.8944,3.0659,3.1013,3.148,3.1742,3.1742,3.2438,3.2884,3.2884,3.2884,3.2884,3.292,3.292,3.2969,3.2987,3.374,3.4133,3.4151,3.4848,3.4637,3.3618,3.3646,3.3091,3.2109,3.2125,3.2141,3.2189,3.2628,3.2981,3.3145,3.2871,3.3447,3.4408,3.4463,3.4798,3.54,3.6167,3.6934,3.7719,3.854,3.9289,3.9878,3.9878,3.9878,3.9878,3.9878,3.9361,3.8826,3.8843,3.8255,3.7862,3.8647,3.8843,3.892,3.9333,3.9122,3.8724,3.8334,3.6674,3.5578,3.631,3.5792,3.5159,3.4844,3.506,0.0,3.4833,3.5768,3.6895,3.8071,3.8227,3.8679,3.9822,4.1301,4.2047,4.178,4.2336,4.1857,4.0025,4.0175,4.0256,4.0237,4.0192,3.9393,3.7783,0.0,0.0,0.0,0.0,0.0,0.0,0.0,0.0,0.0,0.0,0.0,0.0,0.0,0.0,0.0,0.0,0.0,0.0,0.0,0.0,0.0,2.5482,2.6205,2.5815,2.6504,2.7853,3.0002,3.0624,3.1271,3.2288,3.2493,3.2563,3.2563,3.2396,3.2334,3.2334,3.2334,3.2597,3.316,3.3557,3.4026,3.4561,3.4793,3.49,3.4884,3.4868,3.4685,3.4406,3.4659,3.4611,3.4343,3.4894,3.5121,3.5121,3.5242,3.5373,3.5337,3.4425,3.4334,3.4868,3.5676,3.6383,3.697,3.7184,3.7398,3.7719,3.854,3.895,3.9111,3.9111,3.9111,3.9111,3.9111,3.8968,3.8933,3.9468,3.9432,3.9401,3.9896,3.9802,3.9707,4.0111,3.9895,3.9578,3.9441,3.8972,3.8326,3.7416,3.7077,3.6916,3.6813,3.6895,3.6898,3.6829,3.7058,3.7533,3.8248,3.8614,3.9145,4.004,4.0762,4.1209,4.129,4.1781,4.1812,4.1311,4.1623,4.1531,4.094,4.0293,3.9843,0.0,0.0,0.0,0.0,0.0,0.0,0.0,0.0,0.0,0.0,0.0,0.0,0.0,0.0,0.0,0.0,0.0,0.0,0.0,0.0,0.0,0.0,2.7289,2.8411,2.9046,2.8991,2.9597,3.1466,3.1555,3.1825,3.2798,3.2916,3.2916,3.2916,3.2401,3.2232,3.2528,3.2348,3.2585,3.3363,3.3678,3.4053,3.4473,3.4824,3.5139,3.5416,3.5562,3.5637,3.5706,3.5927,3.5866,3.5671,3.6108,3.6303,3.6303,3.6303,3.6481,0.0,0.0,0.0,0.0,0.0,3.8003,3.8611,3.895,3.9058,3.92,4.0003,4.0271,4.0271,4.0271,4.0271,4.0271,4.0271,4.0271,4.036,4.0788,4.0913,4.0974,4.1209,4.1074,4.0885,4.0759,4.0572,4.0307,3.9985,3.9914,0.0,3.9147,3.879,3.8402,3.7902,3.8258,3.8366,3.7917,3.8294,3.8672,3.8993,3.9243,3.9711,4.0496,4.1368,0.0,0.0,0.0,4.2523,4.2133,4.2227,0.0,0.0,0.0,0.0,0.0,0.0,0.0,0.0,3.7056,3.6753,0.0,0.0,0.0,0.0,0.0,0.0,0.0,0.0,0.0,0.0,0.0,0.0,0.0,0.0,0.0,0.0,2.8791,3.0143,3.1555,3.1348,3.1249,3.1751,3.1962,3.2265,3.2834,3.2916,3.292,3.2927,3.2422,3.2421,3.3112,3.2711,0.0,0.0,0.0,3.369,3.3775,3.4474,3.5121,3.5708,3.6474,3.6915,3.7087,3.7119,3.6894,3.6546,3.6546,3.6546,3.6546,3.6546,3.6902,3.7371,3.6864,3.6976,3.7601,3.875,3.9564,4.0271,4.0887,0.0,0.0,4.2055,4.2287,4.2287,4.2287,4.2287,4.2287,4.2287,4.2287,4.2287,4.2287,4.2287,4.2287,4.2287,4.2287,4.2091,4.1395,4.1306,4.1163,4.0449,4.0378,4.0663,4.1377,4.0681,3.9715,3.8805,3.9532,3.9823,3.8799,3.9461,4.0042,4.0105,0.0,0.0,4.113,4.2408,4.3092,4.2923,4.3461,4.3472,4.2748,4.2341,4.2123,4.2123,4.175,4.1011,3.9977,4.0022,3.9984,3.9914,4.0266,3.9985,0.0,0.0,0.0,0.0,0.0,0.0,0.0,0.0,0.0,0.0,0.0,0.0,0.0,0.0,0.0,2.9828,3.0789,3.1422,3.1948,3.1617,3.167,3.257,3.2004,3.1897,3.2802,3.2916,3.2953,3.3108,3.2651,3.2497,3.2765,3.2687,3.3021,3.3801,3.4227,3.4789,3.5446,3.56,3.5753,3.5847,3.6131,0.0,3.7087,3.7216,3.753,3.7987,3.7987,3.7987,3.7987,3.7987,3.8068,3.8221,3.8628,3.9142,3.9693,3.9953,4.0822,4.18,4.1366,4.1626,4.2073,4.2234,4.2287,4.2287,4.2287,4.2287,0.0,4.2287,4.2287,4.2287,4.2287,4.2287,4.2287,4.2287,4.2287,4.2251,4.2091,4.2573,4.3001,4.284,4.3286,4.375,4.3911,4.2234,4.1028,4.1438,4.1676,4.1761,4.1528,4.1121,4.105,4.1545,4.1007,4.0933,4.1767,4.2098,4.2303,4.2422,4.2905,4.3244,4.3398,4.2716,4.2348,4.2348,4.1961,4.1293,4.0371,4.0759,4.0593,3.9911,3.9986,4.0291,0.0,0.0,0.0,0.0,0.0,0.0,0.0,0.0,0.0,0.0,0.0,2.5299,2.7162,0.0,2.9141,3.0998,3.1637,3.1961,3.2074,3.1476,3.1283,3.2056,3.1696,3.1585,3.2092,3.2703,3.2967,3.2786,3.2655,3.2756,3.3245,3.3011,3.3217,3.397,3.427,3.4575,3.5005,3.5005,3.5188,3.5554,3.5613,3.617,3.7219,3.7237,3.7711,3.8391,3.8391,3.8391,3.8391,3.8391,3.8391,3.8448,3.9135,3.956,3.9851,3.9851,4.0477,4.1258,4.092,4.1013,4.1303,4.1303,4.1303,4.1348,4.1692,4.1796,4.1881,4.2187,4.2287,4.2287,4.2287,4.2287,4.2287,4.2287,4.2608,4.2894,4.2894,4.3518,4.4071,4.4071,4.4375,4.4749,4.5142,4.4232,4.3447,4.3447,4.3447,4.3447,4.3447,4.3108,4.2817,4.2759,4.2391,4.2136,4.2171,4.2171,4.2196,4.2274,4.2534,4.2732,4.2941,4.2391,4.2158,4.2405,4.2004,4.1683,4.145,4.1676,4.1579,4.1162,4.1162,4.1181,0.0,0.0,0.0,0.0,0.0,0.0,0.0,2.3577,2.3772,2.6441,2.6995,2.7428,2.8852,2.9617,3.0457,3.1727,3.2029,3.2057,3.2004,3.1308,3.0965,3.1269,3.1387,3.1504,3.1602,3.2614,3.3114,3.2683,3.2813,3.3188,3.3842,3.3485,3.3534,3.4084,3.4101,3.4101,3.4101,3.4101,3.4392,3.4975,3.5121,3.5866,3.7128,3.7258,3.7711,3.8391,3.8391,3.8391,3.8391,3.8391,3.8391,3.8448,3.899,3.9189,3.9226,3.9332,3.9749,4.0283,4.0184,4.0184,4.0283,4.0283,4.0283,4.0429,4.0949,4.1213,4.141,4.1941,4.2187,4.2323,4.2483,4.2519,4.2555,4.2697,4.3251,4.3732,4.3732,4.4321,4.4839,4.4839,4.4963,4.5285,4.5927,4.6034,4.582,4.516,4.5071,4.5071,4.5071,4.4946,4.4571,4.3804,4.3607,4.3179,4.2358,4.2287,4.2287,4.2287,4.2287,4.2287,4.2287,4.2003,4.1996,4.2362,4.2229,4.2258,4.2535,4.268,4.2799,4.2857,4.2857,4.2397,1.923,2.0042,2.1459,2.3391,2.4277,2.519,0.0,2.7163,2.7159,2.8746,2.8699,2.8971,3.0975,3.1075,3.1288,3.2567,3.2382,3.1951,3.1548,3.1544,3.1394,3.1006,3.1368,3.1825,3.2258,3.298,3.3507,3.3617,3.3661,3.3782,3.4022,3.4037,3.402,3.4101,3.4101,3.4101,3.4101,3.4101,3.4133,3.423,3.4878,3.5623,3.6432,3.7048,3.7711,3.8391,3.8391,3.8391,3.8391,3.8391,3.8391,3.8408,3.8504,3.8488,3.86,3.9189,3.9749,4.0234,3.9664,3.9851,4.0283,4.0283,4.0283,4.0314,4.038,4.081,4.1303,4.1393,4.1839,4.2448,4.3179,4.3375,4.3536,4.4196,4.4428,4.45,4.45,4.5106,4.5677,4.5677,4.623,4.6748,4.6837,4.6855,4.6837,4.6748,4.673,4.673,4.673,4.6105,4.5374,4.4571,4.3911,4.3179,4.2358,4.2287,4.2287,4.2287,4.2287,4.2287,4.2287,4.2279,4.2266,4.2329,4.3027,4.3244,4.2938,4.3725,4.4248,4.4545,4.4545,4.3918,2.3142,2.3591,2.3941,2.6121,2.6544,2.6873,2.8672,2.8496,2.8617,3.0944,3.1262,3.1377,3.2228,3.224,3.2166,3.24,3.2004,3.1648,3.1601,3.1371,3.1328,3.151,3.2131,3.2426,3.2188,3.3078,3.3601,3.343,3.3728,3.4007,3.4084,3.4101,3.4101,3.4101,3.4101,3.4101,3.4101,3.4101,3.4101,3.4117,3.4845,3.5347,3.5671,3.64,3.7112,3.7792,3.8213,3.8391,3.8391,3.8391,3.8391,3.8391,3.8391,3.8391,3.8448,3.8694,3.899,3.9172,3.8882,3.899,3.9172,3.9172,3.9172,3.9279,3.9664,4.024,4.0964,4.1783,4.25,4.3226,4.3967,4.4161,4.4232,4.4553,4.4617,4.4671,4.4671,4.4966,4.5244,4.5244,4.5839,4.6346,4.6346,4.6713,4.6998,4.6998,4.6998,4.6998,4.6998,4.6712,4.6195,4.5392,4.4607,4.3839,4.3054,4.3001,4.2804,4.2323,4.2287,4.2287,4.2287,4.2287,4.2432,4.2711,4.3506,4.3924,4.4066,4.4887,4.536,4.5489,4.5489,4.5068,2.531,2.5919,2.6162,2.8315,2.8633,2.8808,3.0265,3.01,3.0249,3.2473,3.2687,3.2537,3.2654,3.2453,3.2196,3.1968,3.1493,3.132,3.1666,3.1417,3.1494,3.2222,3.2935,3.3161,3.2627,3.3367,3.3725,3.3405,3.3825,3.4101,3.4101,3.4101,3.4,3.3815,3.3984,3.3984,3.3815,3.3984,3.4101,3.4117,3.4845,3.5185,3.5218,3.6157,3.6853,3.7355,3.8084,3.8391,3.8391,3.8391,3.8391,3.8424,3.8618,3.8699,3.8732,3.891,3.8732,3.8391,3.8391,3.8521,3.8699,3.8699,3.8829,3.9072,3.9583,4.0171,4.0896,4.1917,4.2725,4.3471,4.4155,4.4301,4.4371,4.4583,4.469,4.4746,4.4746,4.4785,4.479,4.479,4.5234,4.5681,4.585,4.6328,4.6778,4.698,4.6998,4.6998,4.6998,4.6801,4.6444,4.5856,4.491,4.4089,4.3554,4.3304,4.2912,4.2323,4.2287,4.2287,4.2287,4.2501,4.2902,4.3421,4.41,4.4634,4.5077,4.5572,4.5865,4.5936,4.5936,4.5872,2.3966,2.5294,2.6973,2.912,3.0626,3.1773,3.2626,3.2787,3.2773,3.2898,3.2127,3.1568,3.2039,3.1325,3.0851,3.1359,3.0971,3.0875,3.1582,3.186,3.2238,3.2967,3.3647,3.4052,3.4036,3.4052,3.4068,3.4068,3.4084,3.4101,3.4101,3.4101,3.3764,3.3055,3.3713,3.3764,3.3039,3.3764,3.4101,3.4117,3.4845,3.5185,3.5234,3.6643,3.7307,3.7355,3.8084,3.8391,3.8391,3.8391,3.8391,3.8472,3.9169,3.9444,3.9525,4.0189,3.9557,3.8391,3.8391,3.8861,3.9444,3.9444,3.9897,4.0432,4.0475,4.0927,4.1494,4.1533,4.2008,4.2705,4.344,4.3628,4.3816,4.4605,4.4793,4.481,4.481,4.4773,4.479,4.479,4.4844,4.5058,4.58,4.5918,4.6182,4.6888,4.6998,4.6998,4.6998,4.632,4.5838,4.5802,4.4446,4.3536,4.3518,4.2769,4.2323,4.2287,4.2287,4.2287,4.2287,4.3054,4.3822,4.4535,4.5003,4.5441,4.5775,4.5459,4.5495,4.5811,4.5811,4.6222,2.614,2.795,2.9885,3.0647,3.1804,3.2685,3.242,3.2636,3.2802,3.2453,3.1768,3.1119,3.0952,3.0636,3.0327,3.0184,3.0404,3.0891,3.1765,3.1974,3.2449,3.3615,3.3955,3.4101,3.4101,3.4101,3.4101,3.4101,3.4101,3.4101,3.4101,3.4101,3.3764,3.3039,3.3713,3.3764,3.2986,3.3713,3.4101,3.4101,3.4343,3.4716,3.5218,3.6206,3.6902,3.7388,3.8602,3.9363,3.9784,3.9784,3.9784,3.9816,4.0059,4.014,4.0173,4.0415,4.0189,3.9784,3.9784,3.9946,4.014,4.014,4.0302,4.0496,4.0496,4.1,4.1655,4.2145,4.2785,4.3468,4.4184,4.4414,4.4465,4.4722,4.4406,4.4085,4.4085,4.3714,4.3333,4.3333,4.3714,4.4142,4.4423,4.4861,4.5407,4.6165,4.6666,4.6998,4.6998,4.6748,4.6587,4.6587,4.6123,4.5606,4.5071,4.4785,4.4392,4.3857,4.4339,4.4624,4.4624,4.4874,4.5392,4.6177,4.5817,4.5942,4.6587,4.648,4.648,4.6587,4.6587,4.673,2.8444,3.0189,3.1709,3.1461,3.2021,3.2505,3.1965,3.2284,3.2634,3.2279,3.175,3.1265,3.0939,3.0721,3.0405,2.9872,3.0627,3.1443,3.1984,3.2361,3.2918,3.3989,3.4101,3.4101,3.4101,3.4101,3.4101,3.4101,3.4101,3.4101,3.4101,3.4101,3.3646,3.2664,3.3594,3.3594,3.261,3.3594,3.4101,3.4101,3.436,3.4732,3.5218,3.6481,3.729,3.7776,3.9217,4.0092,4.0496,4.0496,4.0496,4.0529,4.0772,4.0869,4.0901,4.116,4.1257,4.1177,4.0658,4.0658,4.0869,4.0869,4.1047,4.1257,4.1257,4.1581,4.2061,4.2512,4.2987,4.3453,4.3872,4.4028,4.4028,4.4028,4.3656,4.3333,4.3333,4.2958,4.2634,4.2634,4.3003,4.3376,4.3656,4.4294,4.4952,4.5459,4.59,4.6376,4.6934,4.6998,4.6998,4.6998,4.673,4.6355,4.5838,4.5552,4.5285,4.5053,4.5517,4.5927,4.6212,4.623,4.673,4.78,4.6766,4.6748,4.7818,4.7265,4.6998,4.6998,4.6998,4.6998,3.0503,3.1695,3.2338,3.1529,3.1359,3.1376,3.1411,3.1905,3.2349,3.2354,3.2068,3.1784,3.1769,3.1367,3.0872,3.0372,3.1428,3.2313,3.2232,3.2932,3.3585,3.4056,3.4101,3.4101,3.4101,3.4101,3.4101,3.4101,3.4101,3.4101,3.405,3.4034,3.3371,3.189,3.3214,3.3319,3.1931,3.3371,3.4117,3.4165,3.4845,3.5202,3.5315,3.7365,3.8367,3.8537,3.993,4.0577,4.0594,4.0534,4.0534,4.0598,4.1278,4.1552,4.1633,4.2312,4.2571,4.2439,4.1079,4.1047,4.163,4.163,4.2083,4.2634,4.2634,4.2634,4.2634,4.2634,4.2634,4.2634,4.2634,4.2634,4.2634,4.2634,4.2634,4.2634,4.2634,4.2634,4.2634,4.2634,4.2634,4.2851,4.3538,4.4255,4.4736,4.4736,4.479,4.5338,4.676,4.6934,4.6934,4.6998,4.632,4.5856,4.5856,4.5213,4.5124,4.5873,4.5998,4.6373,4.714,4.7176,4.7872,4.9353,4.7854,4.7783,4.9264,4.7729,4.6998,4.6998,4.6998,4.6998,2.9839,3.0575,3.1461,3.0517,3.0559,3.0962,3.1515,3.163,3.1726,3.1976,3.1144,3.0224,2.9934,3.0151,3.0327,3.0163,3.0803,3.1646,3.2701,3.2608,3.2809,3.394,3.4101,3.4101,3.4101,3.4101,3.4101,3.4101,3.4101,3.3882,3.3319,3.3266,3.2579,3.1057,3.1916,3.2281,3.189,3.3371,3.4376,3.4894,3.4447,3.4883,3.6076,3.6979,3.8115,3.9282,4.0691,4.1598,4.2021,4.131,4.1021,4.0988,4.0484,4.068,4.1322,4.1496,4.1997,4.2585,4.2213,4.2213,4.2359,4.2359,4.2488,4.2634,4.2634,4.2634,4.2634,4.2634,4.2634,4.2634,4.2634,4.2634,4.2634,4.2634,4.2634,4.2634,4.2634,4.2634,4.2634,4.2634,4.2634,4.268,4.2851,4.3495,4.397,4.397,4.4461,4.5111,4.6067,4.6182,4.6394,4.6934,4.6819,4.6676,4.6676,4.7051,4.7354,4.7568,4.8675,4.9388,4.9603,4.9603,4.9799,5.0191,4.8675,4.8068,4.8461,4.7461,4.6998,4.6998,4.6998,4.6998,3.1102,3.1408,3.1652,3.0492,3.0488,3.07,3.0458,3.1099,3.1637,3.1211,3.0828,3.0516,3.0295,3.0725,3.1034,3.0803,3.148,3.2309,3.3067,3.2892,3.3038,3.3973,3.3815,3.3764,3.405,3.3815,3.3764,3.4101,3.4101,3.3764,3.3039,3.2986,3.2305,3.0778,3.1477,3.2196,3.2878,3.3619,3.4409,3.5112,3.455,3.4951,3.623,3.7436,3.875,4.0011,4.1419,4.2261,4.2571,4.2061,4.1559,4.1147,4.0591,4.0454,4.0659,4.108,4.1559,4.2061,4.2492,4.2634,4.2634,4.2634,4.2634,4.2634,4.2634,4.2634,4.2634,4.2634,4.2634,4.2634,4.2634,4.2634,4.2634,4.2634,4.2634,4.2634,4.2634,4.2634,4.2634,4.2634,4.2634,4.2634,4.2634,4.2958,4.3229,4.3229,4.3538,4.4085,4.4861,4.5251,4.5562,4.6,4.6328,4.6648,4.7032,4.7749,4.8478,4.9156,5.0013,5.0673,5.1012,5.0691,5.0513,5.0513,4.8978,4.8175,4.8175,4.7372,4.6998,4.6998,4.6998,4.6998,3.292,3.285,3.2234,3.1056,3.0892,3.0678,2.9368,3.0534,3.1524,3.0213,3.0561,3.108,3.0987,3.15,3.182,3.1418,3.2368,3.3178,3.3251,3.3365,3.3544,3.3778,3.3427,3.3371,3.3882,3.3491,3.3439,3.405,3.4,3.3662,3.2879,3.2756,3.2028,3.0615,3.1495,3.2583,3.3802,3.3935,3.4382,3.4956,3.4759,3.5187,3.6378,3.8215,3.9612,4.0707,4.2051,4.2492,4.2412,4.2285,4.1656,4.0795,4.0712,4.0232,3.9758,4.0659,4.1064,4.1346,4.2269,4.2634,4.2634,4.2634,4.2634,4.2634,4.2634,4.2634,4.2634,4.2634,4.2634,4.2634,4.2634,4.2634,4.2634,4.2634,4.2634,4.2634,4.2634,4.2634,4.2634,4.2634,4.2634,4.2634,4.2634,4.2634,4.2634,4.2634,4.2634,4.2851,4.3495,4.4198,4.4681,4.479,4.5338,4.6114,4.7001,4.7762,4.8895,5.0405,5.0602,5.0976,5.1672,5.0923,5.0459,5.0352,4.8925,4.8122,4.8015,4.7319,4.6998,4.6998,4.6998,4.6998,3.2386,3.2266,3.21,3.1599,3.1556,3.1375,3.0697,3.0402,3.0087,2.9346,2.8841,2.8368,2.7828,2.8735,2.9704,3.0058,3.081,3.1757,3.2954,3.3146,3.2963,3.2349,3.3243,3.3713,3.3214,3.3662,3.3933,3.4101,3.3543,3.2879,3.2114,3.1462,3.0733,2.9837,3.1693,3.2508,3.2123,3.3891,3.4798,3.4805,3.4055,3.5175,3.7822,3.8098,3.9358,4.1419,4.2261,4.2142,4.1346,4.0607,3.9758,3.884,3.8055,3.8115,3.8767,3.9688,4.0523,4.1346,4.2269,4.2634,4.2634,4.2634,4.2634,4.2634,4.2634,4.2634,4.2634,4.2634,4.2634,4.2634,4.2634,4.2634,4.2634,4.2634,4.2634,4.2634,4.2634,4.2634,4.2634,4.2634,4.2634,4.2634,4.2634,4.2634,4.2634,4.2634,4.2634,4.2634,4.2789,4.3436,4.4142,4.4736,4.4898,4.5544,4.7001,4.782,4.8917,5.0392,5.1119,5.1547,5.169,5.0923,5.0191,4.9531,4.8639,4.7854,4.7194,4.7051,4.6998,4.6998,4.6998,4.6998,3.2603,3.2299,3.2089,3.2066,3.1876,3.124,2.952,2.9215,2.8809,2.6937,2.662,2.6595,2.6276,2.6999,2.7875,2.8593,2.9572,3.0776,3.2294,3.2537,3.2676,3.3003,3.2625,3.2541,3.2955,3.2986,3.2933,3.2933,3.261,3.2266,3.1946,3.0793,2.9993,2.9602,3.1362,3.2272,3.2196,3.3559,3.4405,3.4698,3.381,3.4633,3.6986,3.7648,3.9105,4.1079,4.2164,4.2349,4.1852,4.0946,3.9969,3.9058,3.813,3.7706,3.7843,3.926,4.0109,4.0659,4.2126,4.2634,4.2634,4.2634,4.2634,4.2634,4.2634,4.2634,4.2634,4.2634,4.2634,4.2634,4.2634,4.2634,4.2634,4.2634,4.2634,4.2634,4.2634,4.2634,4.2634,4.2634,4.2634,4.2634,4.2634,4.2634,4.2634,4.2634,4.2634,4.2634,4.2634,4.2896,4.3273,4.3597,4.4322,4.5246,4.6408,4.7919,4.9311,5.0435,5.1256,5.169,5.169,5.1333,5.0548,4.9335,4.896,4.8193,4.6998,4.6998,4.6998,4.6998,4.6998,4.6998,3.2769,3.2727,3.2546,3.2552,3.2411,3.1452,2.8377,2.8196,2.7801,2.467,2.4572,2.4999,2.4805,2.5253,2.6003,2.7005,2.814,2.9581,3.1515,3.1773,3.2256,3.3498,3.207,3.1567,3.287,3.2501,3.217,3.217,3.1819,3.1592,3.1435,3.0237,2.9673,2.9799,3.1166,3.2163,3.26,3.3383,3.3966,3.4341,3.3774,3.4344,3.6034,3.7506,3.9085,4.0739,4.2007,4.2492,4.2206,4.1295,4.0385,3.9418,3.8487,3.763,3.7197,3.913,3.9829,4.0039,4.1722,4.2285,4.2285,4.2285,4.2429,4.2634,4.2634,4.2634,4.2634,4.2634,4.2634,4.2634,4.2634,4.2634,4.2634,4.2634,4.2634,4.2634,4.2634,4.2634,4.2634,4.2634,4.2634,4.2634,4.2634,4.2634,4.2634,4.2634,4.2634,4.2634,4.2634,4.2634,4.2634,4.2634,4.3781,4.5009,4.615,4.7974,4.9567,5.0697,5.1331,5.169,5.169,5.153,5.0852,4.9603,4.9246,4.8478,4.7247,4.7069,4.6998,4.6998,4.6998,4.6998,3.2349,3.3387,3.3805,3.3263,3.3656,3.3107,2.9116,2.8296,2.7361,2.3849,2.3173,2.2998,2.2202,2.276,2.3782,2.5212,2.615,2.77,3.0598,3.101,3.1263,3.2019,3.193,3.2113,3.2924,3.2933,3.2879,3.2879,3.1577,3.0495,2.9837,2.9665,2.9855,3.0417,3.1864,3.2579,3.2436,3.3801,3.4163,3.3466,3.3888,3.4968,3.656,3.809,3.9699,4.1173,4.2141,4.2142,0.0,4.0317,3.9403,3.8413,3.7491,3.7056,3.7197,3.913,3.9829,3.9969,4.0997,4.1346,4.1346,4.1346,4.1917,4.2634,4.2634,4.2634,4.2634,4.2634,4.2634,4.2634,4.2634,4.2634,4.2634,4.2634,4.2634,4.2634,4.2634,4.2634,4.2634,4.2634,4.2634,4.2634,4.2634,4.2634,4.2634,4.2634,4.2634,4.2634,4.2634,4.2634,4.2634,4.2634,4.3329,4.4673,4.6914,4.786,4.924,5.1467,5.164,5.169,5.169,5.0994,5.0548,5.0405,4.8996,4.8211,4.8068,4.7354,4.6998,4.6998,4.6998,4.6998,3.3014,3.3491,3.3481,3.3825,3.2133,2.9872,2.7904,2.6138,2.4246,2.187,2.1438,2.1386,2.1032,2.1265,2.1846,2.293,2.4559,2.6625,2.9359,3.0023,3.0878,3.2642,3.1887,3.1519,3.229,3.2735,3.2826,3.2376,3.0911,2.9884,2.9602,2.9602,2.9897,3.0502,3.1432,3.2136,3.2398,3.332,3.3632,3.3326,3.3944,3.4825,3.604,3.8015,3.9184,3.9868,4.1741,4.1722,0.0,3.9969,3.9275,3.8339,3.7337,3.6978,3.7197,3.913,3.9829,4.0039,4.1509,4.2061,4.2061,4.2061,4.2285,4.2634,4.2634,4.2634,4.2634,4.2634,4.2634,4.2634,4.2634,4.2634,4.2634,4.2634,4.2634,4.2634,4.2634,4.2634,4.2634,4.2634,4.2634,4.2634,4.2634,4.2634,4.2634,4.2634,4.2634,4.2634,4.2634,4.2634,4.2634,4.2634,4.367,4.4931,4.6363,4.792,4.9441,5.0893,5.1452,5.169,5.169,5.1387,5.0994,5.0513,4.9906,4.9121,4.8175,4.7854,4.7461,4.6998,4.6998,4.6998,3.2574,3.3309,3.3412,3.3565,3.1112,2.8276,2.6808,2.4657,2.241,2.0398,2.0055,2.0119,2.0119,2.0119,2.0449,2.1541,2.33,2.5507,2.8225,2.8967,3.032,3.3198,3.2043,3.1465,3.2562,3.2883,3.2718,3.1946,3.0689,2.9837,2.9602,2.9602,2.9982,3.0783,3.1246,3.1878,3.2665,3.3101,3.3326,3.3326,3.4126,3.4839,3.5478,3.7708,3.8867,3.923,4.1025,4.1162,0.0,3.9617,3.8986,3.8339,3.7337,3.6978,3.7197,3.913,3.9617,3.9617,4.1229,4.1787,4.1787,4.1787,4.1933,4.2206,4.2492,4.2634,4.2634,4.2634,4.2634,4.2634,4.2634,4.2634,4.2634,4.2634,4.2634,4.2634,4.2634,4.2634,4.2634,4.2634,4.2634,4.2634,4.2634,4.2634,4.2634,4.2634,4.2634,4.2634,4.2634,4.2634,4.2634,4.2634,4.3929,4.5242,4.6277,4.8133,4.9769,5.0804,5.1401,5.169,5.169,5.169,5.1422,5.0869,5.062,4.9959,4.8871,4.8407,4.7997,4.7676,4.7444,4.7337,3.0373,3.2755,3.4045,3.221,3.132,3.0024,2.6356,2.4516,2.2759,1.9828,1.9211,1.9211,1.9211,1.9211,1.9754,2.1425,2.244,2.4124,2.7265,2.7833,2.9363,3.3259,3.2394,3.229,3.4366,3.3629,3.2718,3.1946,3.113,3.0389,2.9665,2.9602,3.0178,3.1443,3.1485,3.2075,3.3297,3.3326,3.3326,3.334,3.4562,3.5212,3.5254,3.7401,3.8898,3.9829,3.9829,4.0317,0.0,3.9173,3.8413,3.8339,3.7337,3.6978,3.7197,3.913,3.9188,3.8561,3.9474,3.9829,3.9829,3.9829,4.0454,4.1412,4.2349,4.2634,4.2634,4.2634,4.2634,4.2634,4.2634,4.2634,4.2634,4.2634,4.2634,4.2634,4.2634,4.2634,4.2634,4.2634,4.2634,4.2634,4.2634,4.2634,4.2634,4.2634,4.2634,4.2634,4.2634,4.2634,4.2634,4.2634,4.3929,4.5417,4.7039,4.8504,4.9998,5.1571,5.169,5.169,5.169,5.169,5.169,5.1672,5.0905,5.0495,5.0477,4.8925,4.8568,4.9281,4.8514,4.8204,2.8411,2.9474,2.9889,2.9267,2.7049,2.4891,2.4219,2.2648,2.0744,1.8673,1.8761,1.9016,1.8414,1.8803,1.9754,2.1425,2.2435,2.4191,2.7577,2.8291,2.9561,3.2604,3.2754,3.3033,3.415,3.3492,3.2718,3.1946,3.113,3.0389,2.9665,2.9602,3.0178,3.1443,3.1485,3.2075,3.3312,3.3326,3.3326,3.334,3.4562,3.5226,3.5268,3.8119,3.9203,3.8898,4.0163,4.0232,3.9245,3.862,3.7979,3.7414,3.7134,3.7414,3.813,3.9331,4.0039,4.0439,4.1362,4.1722,4.1722,4.1722,4.1917,4.2206,4.2492,4.2634,4.2634,4.2634,4.2634,4.2634,4.2634,4.2634,4.2634,4.2634,4.2634,4.2634,4.2634,4.2634,4.2634,4.2634,4.2634,4.2634,4.2634,4.2634,4.2634,4.2634,4.2634,4.2634,4.2634,4.2634,4.2634,4.2634,4.442,4.6052,4.7079,4.8504,5.0016,5.1571,5.169,5.169,5.169,5.169,5.169,5.169,5.144,5.1048,5.0513,5.0013,4.962,4.9299,4.8532,4.8175,2.629,2.7194,2.7549,2.7119,2.4891,2.2834,2.2987,2.1649,1.9893,1.8183,1.8567,1.8939,1.8065,1.888,2.023,2.1913,2.2921,2.467,2.8022,2.8672,2.9866,3.2697,3.3421,3.3839,3.4226,3.3761,3.2986,3.2003,3.142,3.0674,2.9665,2.9602,3.008,3.1092,3.1359,3.1963,3.296,3.3213,3.3326,3.3326,3.4323,3.4927,3.5254,3.7796,3.8964,3.8971,3.9813,3.9672,0.0,3.813,3.7567,3.6978,3.6978,3.7553,3.8473,3.9474,4.0178,4.0795,4.1722,4.2061,4.2061,4.2061,4.2285,4.2634,4.2634,4.2634,4.2634,4.2634,4.2634,4.2634,4.2634,4.2634,4.2634,4.2634,4.2634,4.2634,4.2634,4.2634,4.2634,4.2634,4.2634,4.2634,4.2634,4.2634,4.2634,4.2634,4.2634,4.2634,4.2634,4.2634,4.268,4.3019,4.4511,4.6136,4.751,4.8907,5.0314,5.164,5.169,5.169,5.169,5.169,5.169,5.169,5.169,5.144,5.0959,5.0959,5.0548,4.9745,4.9281,4.8907,0.0,2.5641,2.6467,2.5401,2.4254,2.3186,2.2441,2.134,0.0,1.8255,1.8589,1.8939,1.8065,1.9323,2.1059,2.2818,2.377,2.5418,2.8647,2.9252,3.0466,3.3414,3.4283,3.4622,3.4601,3.4289,3.3491,3.1987,3.189,3.1203,2.9665,2.9602,2.9869,3.0445,3.1078,3.1738,3.2398,3.3016,3.3326,3.3326,3.3986,3.4604,3.5254,3.6881,3.8421,3.9688,3.8913,3.9058,3.9561,3.7843,3.7056,3.6978,3.7056,3.7706,3.862,3.9546,3.9969,4.0109,4.1013,4.128,4.128,4.128,4.1917,4.2634,4.2634,4.2634,4.2634,4.2634,4.2634,4.2634,4.2634,4.2634,4.2634,4.2634,4.2634,4.2634,4.2634,4.2634,4.2634,4.2634,4.2634,4.2634,4.2634,4.2634,4.2634,4.2634,4.2634,4.2634,4.2634,4.2634,4.2896,4.3597,4.444,4.5788,4.8103,4.9588,5.0805,5.164,5.169,5.169,5.169,5.169,5.169,5.169,5.169,5.169,5.169,5.169,5.1315,5.0584,5.053,5.0102,2.1188,0.0,2.2767,2.1891,2.145,2.1174,0.0,2.0706,2.0002,1.8255,1.8589,1.8939,1.8065,1.9323,2.1278,2.3617,2.4174,2.5625,2.9448,3.1783,3.3433,3.4288,3.4796,3.4931,3.4622,3.4289,3.3491,3.1987,3.189,3.1203,2.9665,2.9602,2.9673,2.9827,3.0431,3.1288,3.2398,3.3016,3.3326,3.3326,3.4421,3.5012,3.5254,3.8028,3.9053,3.8767,4.0024,3.9884,3.8694,3.8264,3.763,3.7056,3.7767,3.862,3.9546,4.0507,4.1362,4.1997,4.2206,4.2269,4.2269,4.2269,4.2429,4.2634,4.2634,4.2634,4.2634,4.2634,4.2634,4.2634,4.2634,4.2634,4.2634,4.2634,4.2634,4.2634,4.2634,4.2634,4.2634,4.2634,4.2634,4.2634,4.2634,4.2634,4.2634,4.2634,4.2634,4.2634,4.2634,4.2634,4.2896,4.3597,4.4889,4.6426,4.8155,4.9081,5.0171,5.1604,5.169,5.169,5.169,5.169,5.169,5.169,5.169,5.169,5.169,5.169,5.1601,5.1405,5.0798,5.0405,1.9472,2.0497,2.1032,2.0604,2.0507,2.0507,2.0507,2.0507,2.0119,1.8764,1.9191,1.9657,1.9187,2.0967,2.3043,2.4638,2.5902,2.7759,3.0825,3.2893,3.4305,3.4988,3.4975,3.4918,3.4903,3.4412,3.3662,3.2501,3.2099,3.1362,3.0162,2.9775,2.9602,2.9602,3.0207,3.0993,3.1977,3.2595,3.3045,3.3326,3.4281,3.4885,3.5328,3.808,3.9259,3.9116,4.0576,4.037,3.8986,3.8546,3.7843,3.7056,3.8055,3.8971,3.9899,4.0863,4.1771,4.2634,4.2634,4.2634,4.2634,4.2634,4.2634,4.2634,4.2634,4.2634,4.2634,4.2634,4.2634,4.2634,4.2634,4.2634,4.2634,4.2634,4.2634,4.2634,4.2634,4.2634,4.2634,4.2634,4.2634,4.2634,4.2634,4.2634,4.2634,4.2634,4.2634,4.2634,4.2634,4.2634,4.3003,4.4085,4.4946,4.6374,4.8567,4.9094,4.9988,5.1619,5.169,5.169,5.169,5.169,5.169,5.169,5.169,5.169,5.169,5.169,5.169,5.169,5.1244,5.0852,1.8772,1.9959,2.0636,2.0531,2.0507,2.0507,2.0507,2.0507,2.0332,1.9716,2.0162,2.0774,2.1107,2.3164,2.5088,2.5931,2.8261,3.0567,3.2255,3.3424,3.4512,3.563,3.5225,3.4965,3.5235,3.4559,3.3764,3.3055,3.2336,3.1534,3.0719,2.9993,2.9602,2.9602,3.0122,3.0684,3.1345,3.2047,3.2707,3.3326,3.4042,3.4761,3.5662,3.7942,3.9313,3.9829,4.093,0.0,3.9546,3.8913,3.7979,3.7134,3.819,3.913,3.9899,4.0997,4.1917,4.2634,4.2634,4.2634,4.2634,4.2634,4.2634,4.2634,4.2634,4.2634,4.2634,4.2634,4.2634,4.2634,4.2634,4.2634,4.2634,4.2634,4.2634,4.2634,4.2634,4.2634,4.2634,4.2634,4.2634,4.2634,4.2634,4.2634,4.2634,4.2634,4.2634,4.2634,4.2634,4.2634,4.3169,4.4627,4.479,4.5996,4.9012,4.9317,4.9995,5.1601,5.169,5.169,5.169,5.169,5.169,5.169,5.169,5.169,5.169,5.169,5.169,5.169,5.169,5.1333,1.9527,2.075,2.1205,2.064,2.0507,2.0507,2.0507,2.0507,2.0663,2.1211,2.1425,2.2075,2.3892,2.4316,2.5234,2.7802,3.0375,3.2249,3.2889,3.4667,3.6081,3.6465,3.6212,3.5893,3.5591,3.4681,3.3764,3.3055,3.2336,3.1534,3.0719,2.9993,2.9602,2.9602,2.9701,3.0052,3.067,3.1822,3.2707,3.3326,3.4478,3.5809,3.7201,3.8897,3.9738,3.9899,0.0,4.0946,3.8708,3.9346,3.8546,3.7197,3.8913,3.9688,3.9969,4.1722,4.2492,4.2634,4.2634,4.2634,4.2634,4.2634,4.2634,4.2634,4.2634,4.2634,4.2634,4.2634,4.2634,4.2634,4.2634,4.2634,4.2634,4.2634,4.2634,4.2634,4.2634,4.2634,4.2634,4.2634,4.2634,4.2634,4.2634,4.2634,4.2634,4.2634,4.2634,4.2634,4.2634,4.2634,4.3169,4.4627,4.479,4.5996,4.9012,4.9317,4.9995,5.1601,5.169,5.169,5.169,5.169,5.169,5.169,5.169,5.169,5.169,5.169,5.169,5.169,5.169,5.1619,1.8821,1.9938,2.0506,2.1489,2.2011,2.2512,2.3423,2.3636,2.3641,2.3633,2.3652,2.4174,2.5887,2.6604,2.8037,3.1403,3.2107,3.273,3.425,3.5031,3.5925,3.7162,3.648,3.5924,3.598,3.4841,3.3933,3.3594,3.254,3.1762,3.1362,3.0222,2.9602,2.9602,2.9602,2.9743,3.0024,3.1361,3.2421,3.334,3.4562,3.5759,3.6788,3.8904,3.9829,3.9899,0.0,4.1575,3.9884,3.9829,3.8986,3.7919,3.926,3.9829,4.0054,4.1933,4.2634,4.2634,4.2634,4.2634,4.2634,4.2634,4.2634,4.2634,4.2634,4.2634,4.2634,4.2634,4.2634,4.2634,4.2634,4.2634,4.2634,4.2634,4.2634,4.2634,4.2634,4.2634,4.2634,4.2634,4.2634,4.2634,4.2634,4.2634,4.2634,4.2634,4.2634,4.2634,4.2634,4.2958,4.3597,4.4681,4.5181,4.6287,4.8491,4.9085,4.9995,5.1601,5.169,5.169,5.169,5.169,5.169,5.169,5.169,5.169,5.169,5.169,5.169,5.169,5.169,5.169,1.8467,1.9497,2.028,2.2519,2.3042,2.3591,2.5795,2.6016,2.5874,2.6223,2.63,2.6715,2.8086,2.9284,3.0921,3.349,3.3237,3.3453,3.5479,3.5531,3.5955,3.7513,3.6553,3.5845,3.6003,3.4862,3.4101,3.4101,3.2879,3.2099,3.189,3.0629,2.9775,2.9602,2.9602,2.9673,2.9827,3.1037,3.2292,3.3646,3.4754,3.5821,3.7003,3.8892,3.9899,4.0247,4.1868,4.2061,4.1131,4.0454,3.9474,3.8487,3.9403,3.9899,4.0317,4.1997,4.2634,4.2634,4.2634,4.2634,4.2634,4.2634,4.2634,4.2634,4.2634,4.2634,4.2634,4.2634,4.2634,4.2634,4.2634,4.2634,4.2634,4.2634,4.2634,4.2634,4.2634,4.2634,4.2634,4.2634,4.2634,4.2634,4.2634,4.2634,4.2634,4.2634,4.2634,4.2634,4.2634,4.3273,4.3987,4.4807,4.5477,4.6618,4.8306,4.9156,5.0191,5.1601,5.169,5.169,5.169,5.169,5.169,5.169,5.169,5.169,5.169,5.169,5.169,5.169,5.169,5.169,1.9629,2.071,2.1758,2.3474,2.2312,2.172,2.5446,2.5192,2.5145,2.8588,2.9283,2.9711,3.1131,3.2125,3.2449,3.1592,3.344,3.5255,3.6137,3.6763,3.7155,3.7308,3.6674,3.6023,3.5367,3.4554,3.4101,3.4101,3.3371,3.2594,3.1946,3.1072,3.0329,2.9602,2.9602,2.9883,3.0445,3.1157,3.2539,3.4633,3.5092,3.6866,3.9556,3.9743,4.0247,4.1147,4.2142,4.2061,4.1198,4.1131,4.0024,3.8487,3.9403,4.0317,4.1213,4.2206,4.2634,4.2634,4.2634,4.2634,4.2634,4.2634,4.2634,4.2634,4.2634,4.2634,4.2634,4.2634,4.2634,4.2634,4.2634,4.2634,4.2634,4.2634,4.2634,4.2634,4.2634,4.2634,4.2634,4.2634,4.2634,4.2634,4.2634,4.2634,4.2634,4.2634,4.2634,4.2696,4.2837,4.335,4.4044,4.4984,4.5545,4.678,4.9055,4.9959,5.078,5.1637,5.169,5.169,5.169,5.169,5.169,5.169,5.169,5.169,5.169,5.169,5.169,5.169,5.169,5.169,2.0412,2.2094,2.3495,2.455,2.4237,2.4664,2.8434,2.9248,2.9675,3.12,3.208,3.2712,3.3167,3.468,3.555,3.4625,3.5489,3.6395,3.6857,3.7161,3.7323,3.7323,3.6724,3.6011,3.525,3.4522,3.4101,3.4101,3.3439,3.2879,3.261,3.2255,3.1531,3.0343,3.1094,3.1203,3.053,3.2169,3.3817,3.5484,3.5922,3.6887,3.835,3.991,4.0523,4.0385,4.1933,4.2412,4.1997,4.1428,4.0779,4.0163,4.0507,4.0863,4.128,4.2269,4.2634,4.2634,4.2634,4.2634,4.2634,4.2634,4.2634,4.2634,4.2634,4.2634,4.2634,4.2634,4.2634,4.2634,4.2634,4.2634,4.2634,4.2634,4.2634,4.2634,4.2634,4.2634,4.2634,4.2634,4.2634,4.2634,4.2634,4.2634,4.2634,4.2634,4.2696,4.2821,4.2899,4.3881,4.4695,4.5054,4.5985,4.7335,4.9144,4.9603,5.0316,5.1619,5.169,5.169,5.169,5.169,5.169,5.169,5.169,5.169,5.169,5.169,5.169,5.169,5.169,5.169,2.1456,2.3299,2.4935,2.585,2.6392,2.7686,3.1416,3.1962,3.2175,3.3937,3.4691,3.4974,3.4782,3.6227,3.7199,3.6524,3.7078,3.7621,3.7613,3.7611,3.7501,3.7048,3.6788,3.6238,3.5266,3.4732,3.4441,3.4441,3.3774,3.3266,3.2986,3.3175,3.2692,3.1427,3.225,3.2295,3.1532,3.3051,3.4559,3.593,3.6743,3.7533,3.8347,4.0282,4.0863,4.0317,4.1917,4.2634,4.2555,4.1917,4.1494,4.1213,4.1213,4.1213,4.128,4.2269,4.2634,4.2634,4.2634,4.2634,4.2634,4.2634,4.2634,4.2634,4.2634,4.2634,4.2634,4.2634,4.2634,4.2634,4.2634,4.2634,4.2634,4.2634,4.2634,4.2634,4.2634,4.2634,4.2634,4.2634,4.2634,4.2634,4.2634,4.2634,4.2634,4.2696,4.2837,4.2961,4.3023,4.4226,4.5267,4.5683,4.6459,4.7551,4.896,4.9085,4.9834,5.1583,5.169,5.169,5.169,5.169,5.169,5.169,5.169,5.169,5.169,5.169,5.169,5.169,5.169,5.169,2.287,2.4222,2.5971,2.7448,2.8486,3.0147,3.3941,3.2403,3.1609,3.6752,3.7065,3.63,3.5993,3.6586,3.6912,3.6324,3.7912,3.8999,3.8371,3.8384,3.789,3.6481,3.6918,3.6756,3.5331,3.5185,3.5185,3.5185,3.4505,3.3764,3.3055,3.3716,3.373,3.2947,3.2778,3.3035,3.3695,3.3709,3.4441,3.5806,3.7421,3.889,4.024,4.0899,4.1198,4.128,4.2206,4.2634,4.2634,4.2634,4.2061,4.1213,4.1213,4.1213,4.128,4.2269,4.2634,4.2634,4.2634,4.2634,4.2634,4.2634,4.2634,4.2634,4.2634,4.2634,4.2634,4.2634,4.2634,4.2634,4.2634,4.2634,4.2634,4.2634,4.2634,4.2634,4.2634,4.2634,4.2634,4.2634,4.2634,4.2634,4.2634,4.2634,4.2696,4.2899,4.2899,4.3023,4.3372,4.4395,4.558,4.687,4.6998,4.7426,4.8478,4.8586,4.9478,5.1565,5.169,5.169,5.169,5.169,5.169,5.169,5.169,5.169,5.169,5.169,5.169,5.169,5.169,5.169,2.2544,2.5071,2.7616,2.8652,3.0818,3.3247,3.5416,3.5089,3.5097,3.7794,3.7313,3.6652,3.7503,3.8016,3.8384,3.8634,3.9317,3.9645,3.9175,3.9093,3.8591,3.7167,3.7193,3.6967,3.606,3.5493,3.5412,3.593,3.4813,3.421,3.4555,3.5225,3.5084,3.3802,3.4059,3.4314,3.4525,3.4525,3.5293,3.6737,3.8352,3.9224,3.9454,4.0864,4.1374,4.128,4.2206,4.2634,4.2634,4.2634,4.2061,4.128,4.1917,4.1771,4.128,4.2269,4.2634,4.2634,4.2634,4.2634,4.2634,4.2634,4.2634,4.2634,4.2634,4.2634,4.2634,4.2634,4.2634,4.2634,4.2634,4.2634,4.2634,4.2634,4.2634,4.2634,4.2634,4.2634,4.2634,4.2634,4.2634,4.2634,4.2634,4.2634,4.2696,4.2899,4.3007,4.3339,4.4259,4.4892,4.5683,4.6888,4.6998,4.7122,4.7444,4.8478,4.9852,5.1583,5.169,5.169,5.169,5.169,5.169,5.169,5.169,5.169,5.169,5.169,5.169,5.169,5.169,5.169,2.4507,2.7536,3.0495,3.1846,3.3893,3.5958,3.7345,3.7565,3.7779,3.8859,3.8379,3.8011,3.8842,3.9391,3.981,4.0197,4.0442,4.0383,3.9834,3.9577,3.8854,3.7442,3.7566,3.7469,3.6772,3.606,3.5817,3.627,3.5202,3.4586,3.4748,3.5995,3.619,3.5004,3.5149,3.54,3.5798,3.54,3.5876,3.7131,3.845,3.9162,3.9338,4.0913,4.1512,4.1389,4.2236,4.2634,4.2634,4.2634,4.2269,4.1787,4.2349,4.2269,4.1836,4.2412,4.2634,4.2634,4.2634,4.2634,4.2634,4.2634,4.2634,4.2634,4.2634,4.2634,4.2634,4.2634,4.2634,4.2634,4.2634,4.2634,4.2634,4.2634,4.2634,4.268,4.2941,4.3064,4.3064,4.3064,4.3273,4.3273,4.268,4.2912,4.3096,4.2961,4.3129,4.3535,4.4202,4.4524,4.525,4.6824,4.6998,4.6998,4.6998,4.7854,4.9335,5.1547,5.169,5.169,5.169,5.169,5.169,5.169,5.169,5.169,5.169,5.169,5.169,5.169,5.169,5.169,2.7422,3.0523,3.3682,3.5817,3.7156,3.8232,3.9429,3.969,3.9724,3.9835,3.9827,3.9856,4.0034,4.0649,4.1127,4.1199,4.1319,4.1168,4.0477,3.9851,3.8977,3.7633,3.8042,3.8149,3.7485,3.6805,3.64,3.64,3.5704,3.4991,3.4343,3.6222,3.7031,3.6416,3.5916,3.6199,3.7191,3.6199,3.6199,3.7251,3.8017,3.8748,3.9428,4.0772,4.1452,4.1614,4.2326,4.2634,4.2634,4.2634,4.2634,4.2634,4.2634,4.2634,4.2634,4.2634,4.2634,4.2634,4.2634,4.2634,4.2634,4.2634,4.2634,4.2634,4.2634,4.2634,4.2634,4.2634,4.2634,4.2634,4.2634,4.2634,4.2634,4.2634,4.2618,4.2851,4.3495,4.3714,4.3756,4.3714,4.4255,4.4311,4.2958,4.3366,4.3722,4.3101,4.3328,4.3628,4.3628,4.3628,4.4412,4.6459,4.6888,4.6998,4.6998,4.6998,4.8336,5.1494,5.169,5.169,5.169,5.169,5.169,5.169,5.169,5.169,5.169,5.169,5.169,5.169,5.169,5.169,2.5455,2.9159,3.2868,3.5321,3.7808,3.9828,4.04,4.0534,4.0495,4.0253,3.9995,4.0105,4.1125,4.1202,4.1306,4.193,4.208,4.1839,4.1168,4.0525,3.9851,3.9063,3.8652,3.8343,3.8181,3.7517,3.7096,3.7096,3.6448,3.5995,3.5849,3.6772,3.7242,3.7112,3.5758,3.6042,3.8075,3.6117,3.6117,3.8132,3.8335,3.8472,3.8667,3.9525,4.0529,4.1614,4.2326,4.2634,4.2634,4.2634,4.2634,4.2634,4.2634,4.2634,4.2634,4.2634,4.2634,4.2634,4.2634,4.2634,4.2634,4.2634,4.2634,4.2634,4.2634,4.2634,4.2634,4.2634,4.2634,4.2634,4.2634,4.2634,4.2634,4.2634,4.3064,4.3333,4.2958,4.3773,4.4406,4.3814,4.4004,4.4135,4.3748,4.3459,4.3207,4.3223,4.3449,4.3628,4.3628,4.3628,4.3789,4.4259,4.5935,4.6998,4.6998,4.6998,4.8336,5.1494,5.169,5.169,5.169,5.169,5.169,5.169,5.169,5.169,5.169,5.169,5.169,5.169,5.169,5.169,2.6296,2.9647,3.2882,3.6569,3.8497,3.9643,4.0242,3.9957,3.9883,4.0913,4.0718,4.0741,4.1996,4.16,4.1359,4.2162,4.2287,4.2086,4.1393,4.0716,4.0085,3.9473,3.8788,3.8391,3.8391,3.7744,3.7323,3.7323,3.6999,3.6659,3.6319,3.7274,3.7679,3.7323,3.6393,3.6739,3.8391,3.6754,3.6754,3.8391,3.8391,3.8391,3.8424,3.9153,4.0254,4.1598,4.197,4.231,4.2634,4.2634,4.2634,4.2634,4.2634,4.2634,4.2634,4.2634,4.2634,4.2634,4.2634,4.2634,4.2634,4.2634,4.2634,4.2634,4.2634,4.2634,4.2634,4.2634,4.2634,4.2634,4.2634,4.2634,4.2634,4.2634,4.2896,4.3273,4.3597,4.4255,4.4681,4.4294,4.4715,4.4749,4.3529,4.3052,4.3113,4.4128,4.4821,4.5197,4.5197,4.5197,4.5197,4.5197,4.6297,4.6998,4.6998,4.6998,4.7693,4.9335,5.0869,5.169,5.169,5.169,5.169,5.169,5.169,5.169,5.169,5.169,5.169,5.169,5.1808,5.1808,2.71,3.0387,3.3544,3.8156,3.9157,3.9204,3.9941,3.9403,3.9406,4.1567,4.1375,4.1232,4.2632,4.1929,4.1359,4.2162,4.2287,4.2103,4.1543,4.081,4.0135,3.9612,3.8898,3.8391,3.8391,3.7857,3.7452,3.7323,3.7436,3.7209,3.6513,3.7695,3.8116,3.7517,3.7261,3.7504,3.8391,3.7562,3.7562,3.8391,3.8391,3.8391,3.8424,3.9023,3.9994,4.1209,4.1338,4.1792,4.2456,4.2456,4.252,4.2634,4.2634,4.2634,4.2634,4.2634,4.2634,4.2634,4.2634,4.2634,4.2634,4.2634,4.2634,4.2634,4.2634,4.2634,4.2634,4.2634,4.2634,4.2634,4.2634,4.2634,4.2634,4.2634,4.2634,4.2958,4.4294,4.479,4.5005,4.5005,4.5648,4.5563,4.3512,4.3185,4.363,4.4984,4.6249,4.6998,4.6998,4.6998,4.6998,4.6998,4.6998,4.6998,4.6998,4.6998,4.6998,4.6998,4.9959,5.169,5.169,5.169,5.169,5.169,5.169,5.169,5.169,5.169,5.169,5.169,5.1925,5.1956,2.403,2.9466,3.5068,3.8443,3.983,4.045,4.086,4.0827,4.0984,4.1825,4.09,4.0657,4.2896,4.2119,4.1359,4.2162,4.2287,4.2287,4.2187,4.1105,4.0283,4.0184,3.9119,3.8391,3.8391,3.8311,3.8003,3.7371,3.7906,3.7938,3.7226,3.7954,3.8359,3.8262,3.7515,3.7504,3.8391,3.7562,3.7562,3.8391,3.8391,3.8391,3.8391,3.8489,3.8991,3.9784,4.0383,4.1047,4.1711,4.1711,4.2083,4.2634,4.2634,4.2634,4.2634,4.2634,4.2634,4.2634,4.2634,4.2634,4.2634,4.2634,4.2634,4.2634,4.2634,4.2634,4.2634,4.2634,4.2634,4.2634,4.2634,4.2634,4.2634,4.2634,4.2634,4.2851,4.3656,4.4861,4.5732,4.5732,4.6003,4.602,4.5563,4.5459,4.5303,4.491,4.6102,4.6998,4.6998,4.6998,4.6998,4.6998,4.6998,4.6998,4.6998,4.6998,4.6998,4.6998,4.9959,5.169,5.169,5.169,5.169,5.169,5.169,5.169,5.169,5.169,5.169,5.169,5.1925,5.2054,2.4362,2.968,3.4549,3.7361,3.8634,3.9436,4.0366,4.0176,4.0176,4.1694,4.0999,4.0615,4.2411,4.1615,4.1079,4.2132,4.2287,4.2287,4.2287,4.1455,4.0856,4.0856,3.9766,3.8936,3.8936,3.8639,3.8414,3.8475,3.8421,3.8398,3.8475,3.8421,3.8391,3.8391,3.8017,3.8017,3.8391,3.8017,3.8017,3.8391,3.8391,3.8391,3.8391,3.8391,3.8796,3.9493,3.98,4.0318,4.0966,4.0966,4.116,4.1436,4.1436,4.1678,4.2035,4.2035,4.2294,4.2634,4.2634,4.2634,4.2634,4.2634,4.2634,4.2634,4.2634,4.2634,4.2634,4.2634,4.2634,4.2634,4.2634,4.2634,4.2634,4.2634,4.2634,4.2851,4.3731,4.4644,4.5459,4.5985,4.5699,4.5545,4.5835,4.6266,4.6411,4.6102,4.6572,4.6998,4.6998,4.6998,4.6998,4.6998,4.6998,4.6998,4.6998,4.6998,4.6998,4.6998,4.8282,4.9852,5.1619,5.169,5.184,5.2132,5.184,5.1758,5.1858,5.1907,5.1889,5.1858,5.2054,5.2132,2.4607,2.8652,3.2097,3.5324,3.6837,3.7936,3.9541,3.9469,3.9523,4.1061,4.0715,4.0504,4.177,4.1316,4.1106,4.2221,4.2351,4.2287,4.2287,4.1735,4.1303,4.1303,4.03,3.9612,3.9612,3.9172,3.9082,3.9577,3.9028,3.8898,3.9385,3.8733,3.8391,3.8391,3.8391,3.8391,3.8391,3.8391,3.8391,3.8391,3.8391,3.8391,3.8391,3.8391,3.8699,3.9201,3.9201,3.959,4.0237,4.0237,4.0335,4.0496,4.0496,4.082,4.129,4.129,4.163,4.2116,4.2294,4.2359,4.2391,4.2569,4.2743,4.2896,4.2896,4.2896,4.2896,4.2896,4.2726,4.2634,4.2634,4.2634,4.2634,4.2634,4.2634,4.2958,4.4175,4.4915,4.5562,4.6266,4.585,4.5511,4.6084,4.6637,4.6998,4.6998,4.6998,4.6998,4.6998,4.6998,4.6998,4.6998,4.6998,4.6998,4.6998,4.6998,4.6998,4.6998,4.6998,4.8407,5.1565,5.174,5.1987,5.2387,5.2036,5.184,5.1907,5.2102,5.215,5.212,5.2246,5.2228,2.3252,2.5063,2.7128,3.222,3.473,3.6479,3.8574,3.9612,4.0062,3.9779,3.9671,4.0038,4.1293,4.1595,4.1868,4.2645,4.2516,4.2287,4.2287,4.1735,4.1303,4.1303,4.0668,4.0234,4.0234,4.0234,4.0234,4.0234,3.9715,3.9385,3.9385,3.8733,3.8391,3.8391,3.8391,3.8391,3.8391,3.8391,3.8391,3.8391,3.8391,3.8391,3.8391,3.8391,3.8424,3.8456,3.8456,3.8861,3.9525,3.9525,3.9914,4.0496,4.0496,4.0513,4.0545,4.0545,4.0577,4.0707,4.1387,4.163,4.1743,4.2407,4.3064,4.3656,4.3656,4.3656,4.3656,4.3656,4.3108,4.2634,4.2634,4.2634,4.2634,4.2634,4.2634,4.3108,4.5005,4.6213,4.6888,4.6934,4.6934,4.6888,4.6934,4.698,4.6998,4.6998,4.6998,4.6998,4.6998,4.6998,4.6998,4.6998,4.6998,4.6998,4.6998,4.6998,4.6998,4.6998,4.6998,4.8407,5.1565,5.1938,5.2102,5.215,5.218,5.2018,5.169,5.2246,5.2498,5.2498,5.2498,5.2498,2.1736,2.3499,2.5633,2.9726,3.2489,3.4795,3.7077,3.8541,3.964,4.0404,4.0457,4.0678,4.1632,4.1477,4.1538,4.263,4.2516,4.2287,4.2287,4.2086,4.1941,4.1941,4.1348,4.0949,4.0949,4.0573,4.0477,4.0903,4.0331,4.0002,4.0002,3.9368,3.8843,3.8391,3.8391,3.8391,3.8391,3.8391,3.8391,3.8391,3.8391,3.8391,3.8391,3.8391,3.8391,3.8391,3.8391,3.8553,3.878,3.878,3.8926,3.9153,3.9153,3.9428,3.9849,3.9849,4.0124,4.0529,4.0788,4.0869,4.0998,4.1727,4.2106,4.2518,4.3405,4.3393,4.3108,4.3538,4.3169,4.2634,4.2634,4.2634,4.2634,4.2634,4.2743,4.3366,4.5003,4.5985,4.659,4.6934,4.6998,4.6998,4.6998,4.6998,4.6998,4.6998,4.6998,4.6998,4.6998,4.6998,4.6998,4.6998,4.6998,4.6998,4.6998,4.6998,4.6998,4.6998,4.6998,4.7635,4.9082,5.0358,5.1124,5.1329,5.1885,5.218,5.2102,5.234,5.2498,5.2498,5.2498,5.2498,2.0093,2.1475,2.3248,2.6727,2.9375,3.187,3.4739,3.6812,3.8508,3.9876,4.0287,4.0647,4.1454,4.1089,4.1126,4.2518,4.2609,4.2494,4.2494,4.2351,4.2287,4.2287,4.1899,4.1648,4.1648,4.1258,4.1168,4.1604,4.1013,0.0,4.0331,3.9715,3.9082,3.8391,3.8391,3.8391,3.8391,3.8391,3.8391,3.8391,3.8391,3.8391,3.8391,3.8391,3.8391,3.8391,3.8391,3.8391,3.8391,3.8391,3.8391,3.8391,3.8391,3.8699,3.912,3.912,3.9395,3.9816,4.0075,4.0156,4.027,4.0982,4.1759,4.2518,4.3427,4.3531,4.3436,4.393,4.3555,4.2896,4.268,4.2634,4.2634,4.2743,4.299,4.368,4.5197,4.5802,4.6284,4.6888,4.6998,4.6998,4.6998,4.6998,4.6998,4.6998,4.6998,4.6998,4.6998,4.6998,4.6998,4.6998,4.6998,4.6998,4.6998,4.6998,4.6998,4.6998,4.7178,4.7381,4.7675,4.9181,5.0298,5.0904,5.1573,5.2069,5.2358,5.2452,5.2498,5.2498,5.2498,5.2498,0.0,0.0,0.0,2.3251,2.5427,2.7734,3.1593,3.4443,3.6658,3.7958,3.8925,3.9808,4.0572,4.0466,4.0744,4.237,4.2695,4.2737,4.2737,4.2444,4.2234,4.2251,4.2251,4.2251,4.2287,4.2287,4.2287,4.2287,4.1692,4.1059,4.038,3.9766,3.9082,3.8391,3.8391,3.8391,3.8391,3.8391,3.8391,3.8391,3.8391,3.8391,3.8391,3.8391,3.8391,3.8391,3.8391,3.8391,3.8391,3.8391,3.8391,3.8391,3.8391,3.8391,3.8391,3.8391,3.8391,3.8505,3.9201,3.9444,3.9557,4.0296,4.1943,4.3715,4.3819,4.4263,4.4756,4.4827,4.4311,4.3555,4.2789,4.268,4.2789,4.3157,4.3416,4.4047,4.558,4.5903,4.6102,4.6888,4.6998,4.6998,4.6998,4.6998,4.6998,4.6998,4.6998,4.6998,4.6998,4.6998,4.6998,4.6998,4.6998,4.6998,4.6998,4.6998,4.698,4.6998,4.7443,4.7699,4.7717,4.8713,4.9782,5.0868,5.1158,5.1683,5.2498,5.2498,5.2498,5.2498,5.2498,5.2498,1.7738,0.0,0.0,0.0,0.0,0.0,2.8666,3.1696,3.4291,3.5756,3.7566,3.8912,3.8963,3.9877,4.0779,4.1247,4.1176,4.1053,4.1053,4.0753,4.0788,4.1359,4.1431,4.1645,4.2234,4.2287,4.2287,0.0,4.2145,4.1735,4.1059,4.0002,3.9082,3.8391,3.8391,3.8391,3.8391,3.8391,3.8391,3.8391,3.8391,3.8391,3.8391,3.8391,3.8391,3.8391,3.8391,3.8391,3.8391,3.8391,3.8391,3.8391,3.8391,3.8391,3.8391,3.8391,3.8391,3.8424,3.8634,3.8699,3.891,4.0038,4.0812,4.1758,4.3836,4.4199,4.4143,4.5303,4.4824,4.3789,4.2851,4.4158,4.58,4.59,4.5338,4.5144,4.6411,4.6381,4.6284,4.6888,4.6998,4.6998,4.6998,4.6998,4.6998,4.6998,4.6998,4.6998,4.6998,4.6998,4.6998,4.6998,4.6998,4.6998,4.6998,4.6998,4.707,4.7187,4.732,4.7511,4.7699,4.8446,4.9314,5.0289,5.0959,5.1683,5.2498,5.2498,5.2498,5.2498,5.2498,5.2498,1.7406,1.7909,1.8648,2.0028,0.0,0.0,2.6659,2.9347,3.1832,3.3995,3.6065,3.7451,3.731,3.8375,3.937,3.9708,3.9526,3.963,4.0518,4.0348,4.0249,4.0538,4.061,4.0788,4.1252,4.1306,4.1431,4.177,4.1787,4.1647,4.1331,4.0331,3.9612,3.9226,3.8936,3.8788,3.8788,3.8544,3.8391,3.8391,3.8391,3.8391,3.8391,3.8391,3.8391,3.8391,3.8391,3.8391,3.8391,3.8391,3.8391,3.8391,3.8391,3.8391,3.8391,3.8391,3.8391,3.8391,3.8391,3.8391,3.8553,3.9653,4.0381,4.1306,4.36,4.4173,4.4319,4.5573,4.5146,4.4384,4.4423,4.5732,4.6934,4.6619,4.6035,4.5734,4.6477,4.6429,4.6332,4.6888,4.6998,4.6998,4.6998,4.6998,4.6998,4.6998,4.6998,4.6998,4.6998,4.6998,4.6998,4.6998,4.6998,4.7025,4.707,4.707,4.716,4.7381,4.7425,4.7554,4.7699,4.8067,4.8681,4.9582,5.0379,5.1357,5.2498,5.2498,5.2498,5.2498,5.2498,5.2498,1.7321,1.7501,1.7719,1.8646,2.0123,0.0,2.5002,2.7065,2.9158,3.1931,3.3902,3.5183,3.5256,3.5916,3.6742,3.7664,3.7617,3.8247,4.0473,4.0409,4.0077,3.9848,3.981,3.9846,3.9914,3.9935,4.0238,4.0913,4.0967,4.1026,4.1173,4.0595,4.0278,4.0314,3.9715,3.9385,3.9385,3.875,3.8391,3.8391,3.8391,3.8391,3.8391,3.8391,3.8391,3.8391,3.8391,3.8391,3.8391,3.8391,3.8391,3.8391,3.8391,3.8391,3.8391,3.8391,3.8391,3.8391,3.8391,3.8391,3.8488,3.9189,4.0255,4.1576,4.3101,4.4078,4.4799,4.5772,4.5562,4.5338,4.6649,4.6998,4.6824,4.6151,4.6003,4.6052,4.6235,4.6284,4.6429,4.6888,4.6998,4.6998,4.6998,4.6998,4.6998,4.6998,4.6998,4.6998,4.6998,4.6998,4.6998,4.6998,4.698,4.707,4.716,4.7205,4.7294,4.7504,4.7633,4.7717,4.7717,4.7717,4.8098,4.8894,4.9872,5.1049,5.2498,5.2498,5.2498,5.2498,5.2498,5.2498,1.7653,1.7501,1.77,1.8526,1.9564,0.0,2.2049,2.377,2.5445,2.6572,2.8725,3.0597,3.1121,3.1892,3.2941,3.451,3.5124,3.6338,3.9082,3.893,3.8755,3.9354,3.9427,3.9535,3.9843,4.0127,4.0273,4.0128,4.0146,4.021,4.0342,4.0227,4.0187,4.0314,3.9715,3.9385,3.9385,3.875,3.8391,3.8391,3.8391,3.8391,3.8391,3.8391,3.8391,3.8391,3.8391,3.8391,3.8391,3.8391,3.8391,3.8391,3.8391,3.8391,3.8391,3.8391,3.8391,3.8391,3.8391,3.8391,3.8488,3.9189,3.9573,4.0171,4.2159,4.3273,4.4278,4.6212,4.6666,4.6649,4.6934,4.6998,4.6934,4.6824,4.6778,4.6778,4.6842,4.6842,4.6888,4.698,4.6998,4.6998,4.6998,4.6998,4.6998,4.6998,4.6998,4.6998,4.6998,4.6998,4.6998,4.6998,4.7088,4.7133,4.7043,4.7267,4.7461,4.7504,4.7633,4.7717,4.7717,4.7717,4.8098,4.8894,5.0959,5.219,5.2498,5.2498,5.2498,5.2498,5.2498,5.2498,1.846,1.8107,1.8202,1.86,1.9412,0.0,0.0,2.2641,2.3667,2.4772,2.6418,2.7763,2.8086,2.8858,2.9872,3.1163,3.2584,3.3933,3.5058,3.6452,3.7589,3.8237,3.8296,3.8558,3.9188,3.926,3.9283,3.9325,3.97,3.9939,4.0011,4.0358,4.0619,4.0709,4.0479,4.0349,4.0349,3.9368,3.8898,3.8882,3.8544,3.8391,3.8391,3.8391,3.8391,3.8391,3.8391,3.8391,3.8448,3.8733,3.8898,3.8898,3.8544,3.8391,3.8391,3.8391,3.8391,3.8391,3.8391,3.8391,3.8488,3.9189,3.9385,3.9711,4.1484,4.3054,4.4624,4.6486,4.6998,4.6998,4.6998,4.6998,4.6998,4.6998,4.6998,4.6998,4.6998,4.6998,4.6998,4.6998,4.6998,4.6998,4.6998,4.6998,4.6998,4.6998,4.6998,4.6998,4.6998,4.6998,4.7043,4.707,4.7178,4.7223,4.7249,4.7381,4.7529,4.759,4.7657,4.7717,4.7717,4.7717,4.8152,4.9075,4.9764,5.0904,5.2498,5.2498,5.2498,5.2498,5.2498,5.2498,1.9296,1.8694,1.8694,1.8694,1.9392,2.0408,0.0,0.0,0.0,2.365,2.4534,2.5137,2.5297,2.5954,2.6799,2.7768,2.9638,3.0829,3.0447,3.2975,0.0,3.6407,3.6767,3.7187,3.789,3.8156,3.8386,3.8542,3.937,3.9801,3.97,4.0449,4.0949,4.1092,4.1243,4.1303,4.1303,4.0052,3.9385,3.9385,3.875,3.8391,3.8391,3.8391,3.8391,3.8391,3.8391,3.8391,3.8448,3.899,3.9189,3.9189,3.8733,3.8639,3.8733,3.8488,3.8504,3.8544,3.8448,3.8391,3.8504,3.9044,3.9279,3.9659,4.0917,4.2852,4.4857,4.6205,4.6763,4.6998,4.6998,4.6998,4.6998,4.6998,4.6998,4.6998,4.6998,4.6998,4.6998,4.6998,4.6998,4.6998,4.6998,4.6998,4.6998,4.6998,4.6998,4.6998,4.6998,4.7025,4.7088,4.7205,4.7223,4.7312,4.7468,4.7511,4.7554,4.7699,4.7717,4.7717,4.7717,4.7717,4.8116,4.8967,4.8152,4.8985,5.1574,5.1991,5.2299,5.2498,5.2498,5.2498,1.964,1.8694,1.8694,1.8694,1.9359,2.0064,2.023,0.0,2.0419,2.0612,0.0,2.1294,2.2064,0.0,0.0,2.4546,2.5535,2.6342,2.7036,2.7981,2.9917,3.343,3.4899,3.5614,0.0,3.7641,3.8644,3.7793,3.8984,3.9502,3.8953,3.9646,4.036,4.1074,4.1243,4.1303,4.1303,4.0052,3.9385,3.9385,3.875,3.8391,3.8391,3.8391,3.8391,3.8391,3.8391,3.8391,3.8408,3.8504,3.8488,3.8544,3.9082,3.9612,3.9935,3.8843,3.8788,3.9189,3.86,3.8391,3.8391,3.8504,3.8952,3.9554,4.0361,4.2124,4.4003,4.4822,4.6006,4.6998,4.6998,4.6998,4.6998,4.6998,4.6998,4.6998,4.6998,4.6998,4.6998,4.6998,4.6998,4.6998,4.6998,4.6998,4.6998,4.6998,4.6998,4.6998,4.6998,4.7088,4.7178,4.7196,4.7356,4.7486,4.7504,4.7633,4.7657,4.7717,4.7717,4.7717,4.7717,4.7717,4.7772,4.788,4.7772,4.788,4.8261,5.0162,5.1574,5.2498,5.2498,5.2498,2.1874,2.0931,2.0717,1.9711,2.0143,2.066,2.0129,2.0017,2.0039,2.0039,0.0,0.0,0.0,0.0,0.0,0.0,2.3476,2.4364,2.3886,2.5551,2.801,3.1116,0.0,0.0,0.0,0.0,0.0,0.0,3.843,3.8867,3.8149,3.9254,4.0057,4.0396,4.1345,4.1899,4.1899,4.0967,4.0477,4.0494,3.9473,3.899,3.899,3.86,3.8391,3.8391,3.8391,3.8391,3.8448,3.8843,3.899,3.899,3.9279,3.9577,3.9766,3.956,3.9647,3.9851,3.9172,3.899,3.899,3.899,3.8898,3.9095,4.0641,4.1808,4.2929,4.4354,4.5656,4.659,4.6934,4.6998,4.6998,4.6998,4.6998,4.6998,4.6998,4.6998,4.6998,4.6998,4.6998,4.6998,4.6998,4.6998,4.6998,4.6998,4.6998,4.6998,4.6998,4.7133,4.7223,4.7249,4.7425,4.7511,4.7633,4.7675,4.7717,4.7717,4.7717,4.7717,4.7717,4.7717,4.7717,4.7717,4.7717,4.8007,4.8623,5.0162,5.1212,5.181,5.2281,5.2498,2.4958,2.3785,2.3245,2.146,2.1352,2.1453,2.0527,2.0334,2.0202,1.9747,1.9697,0.0,0.0,0.0,1.9632,1.9435,0.0,2.1601,2.0531,2.2252,2.486,2.8113,0.0,0.0,0.0,0.0,0.0,0.0,0.0,3.842,3.7649,3.8879,3.97,3.9896,4.1252,4.2073,4.2287,4.1648,4.1303,4.1303,4.0201,3.9577,3.9385,3.8898,3.8544,3.8391,3.8391,3.8391,3.8448,3.8936,3.9135,3.9135,3.9332,3.9385,3.942,3.9902,4.0283,4.0477,3.9851,3.9664,3.9629,3.942,3.9082,3.8946,4.0298,4.1343,4.2334,4.3688,4.5216,4.6477,4.6637,4.6842,4.6998,4.6998,4.6998,4.6998,4.6998,4.6998,4.6998,4.6998,4.6998,4.6998,4.6998,4.6998,4.6998,4.6998,4.6998,4.698,4.7025,4.7178,4.7249,4.7363,4.745,4.7597,4.7699,4.7717,4.7717,4.7717,4.7717,4.7717,4.7717,4.7717,4.7717,4.7717,4.7717,4.8079,4.8858,4.9872,5.0452,5.0669,5.1919,5.2498,2.876,2.6973,2.5932,2.4049,2.3019,2.2242,2.1358,2.1168,2.0713,1.9073,1.8849,1.8688,1.7838,1.778,1.7612,1.6779,1.6747,0.0,0.0,1.6856,1.88,2.3887,0.0,0.0,0.0,0.0,0.0,0.0,0.0,0.0,3.7649,3.8397,3.9165,3.9896,4.0717,4.1502,4.2287,4.1648,4.1303,4.1303,4.0621,3.9952,3.9385,3.9385,3.899,3.8391,3.8391,3.8391,3.8391,3.8391,3.8448,3.8504,3.9135,3.9385,3.9385,3.9437,4.0201,4.115,4.0525,4.0283,4.0184,3.9577,3.9385,3.9295,3.8815,4.0558,4.2603,4.2303,4.4485,4.6824,4.6102,4.6459,4.6998,4.6998,4.6998,4.6998,4.6998,4.6998,4.6998,4.6998,4.6998,4.6998,4.6998,4.6998,4.6998,4.6998,4.6998,4.7025,4.716,4.7232,4.7363,4.7468,4.7615,4.7717,4.7717,4.7717,4.7717,4.7717,4.7717,4.7717,4.7717,4.7717,4.7717,4.7717,4.7717,4.7735,4.7753,4.8586,4.8985,4.9039,5.1393,5.2498,0.0,0.0,2.9465,2.696,2.62,2.5521,2.3353,2.2438,2.176,2.0648,2.0001,1.9573,1.9422,1.8918,1.848,1.8305,1.7342,1.6592,0.0,1.6606,1.7455,1.9791,2.3234,0.0,0.0,0.0,0.0,0.0,0.0,0.0,0.0,3.8187,3.8915,3.9165,4.0431,4.1234,4.1502,4.1819,4.1941,4.1941,4.1303,4.0621,4.0002,3.9577,3.9044,3.8391,3.8391,3.8391,3.8391,3.8391,3.8391,3.8391,3.8639,3.899,3.9525,4.0349,4.092,4.1258,4.1059,4.0668,4.0331,4.0573,4.0152,3.9677,4.0355,4.109,4.1832,4.2555,4.4,4.5442,4.597,4.6542,4.6998,4.6998,4.6998,4.6998,4.6998,4.6998,4.6998,4.6998,4.6998,4.6998,4.6998,4.6998,4.6998,4.6998,4.6998,4.7043,4.707,4.7294,4.7443,4.7486,4.7615,4.7717,4.7717,4.7717,4.7717,4.7717,4.7717,4.7717,4.7717,4.7717,4.7717,4.7717,4.7717,4.7717,4.7717,4.8532,4.8912,4.8967,5.0832,5.1701,3.5359,3.4309,0.0,3.025,2.9407,0.0,2.5751,2.4771,2.4082,2.2929,2.1531,2.0762,2.1507,1.9937,1.8647,1.9099,1.7715,1.6495,0.0,1.667,1.7264,1.7838,0.0,0.0,0.0,0.0,0.0,0.0,0.0,0.0,0.0,0.0,3.8504,3.8808,3.9771,4.0556,4.1092,4.1609,4.2002,4.2287,4.1839,4.1303,4.0621,4.0002,3.9368,3.8733,3.8488,3.8391,3.8391,3.8391,3.8391,3.8391,3.8639,3.8898,3.9172,4.0251,4.092,4.1303,4.1303,4.115,4.1059,4.1258,4.078,4.0353,4.1028,4.1648,4.2213,4.2648,4.3837,4.5125,4.5597,4.6332,4.6998,4.6998,4.6998,4.6998,4.6998,4.6998,4.6998,4.6998,4.6998,4.6998,4.6998,4.707,4.716,4.7205,4.716,4.7116,4.7205,4.7399,4.7529,4.759,4.7675,4.7717,4.7717,4.7717,4.7717,4.7717,4.7717,4.7717,4.7717,4.7717,4.7844,4.8134,4.7862,4.7844,4.8134,4.8369,4.8478,4.8514,4.9836,5.0597]},{"header":{"parameterUnit":"m.s-1","parameterCategory":1,"la1":30.6,"la2":29.2853,"lo1":-89.7004,"lo2":-87.6739,"dx":0.0162,"dy":0.0183,"nx":112,"ny":82,"refTime":"2022-11-23T18:00:00:Z","depth":0,"parameterNumber":3,"parameterNumberName":"V-component_of_WINDS"},"data":[0.0,0.0,0.0,0.0,0.0,0.0,0.0,0.0,0.0,0.0,0.0,0.0,0.0,0.0,0.0,0.0,0.0,0.0,0.0,0.0,0.0,0.0,0.0,0.0,0.0,0.0,0.0,0.0,0.0,0.0,0.0,0.0,0.0,0.0,0.0,0.0,0.0,0.0,0.0,0.0,0.0,0.0,0.0,0.0,0.0,0.0,0.0,0.0,0.0,0.0,0.0,0.0,0.0,0.0,0.0,0.0,0.0,0.0,0.0,0.0,0.0,0.0,0.0,0.0,0.0,0.0,0.0,0.0,0.0,0.0,0.0,0.0,0.0,0.0,0.0,0.0,0.0,0.0,0.0,0.0,0.0,0.0,0.0,0.0,0.0,0.0,0.0,0.0,0.0,0.0,-0.3628,-0.4469,-0.7432,-0.9287,-0.9211,-0.9028,-0.7016,-0.2463,0.0,0.0,0.0,0.0,0.0,0.0,0.0,0.0,0.0,0.0,0.0,0.0,0.0,0.0,0.0,0.0,0.0,0.0,0.0,0.0,0.0,0.0,0.0,0.0,0.0,0.0,0.0,0.0,0.0,0.0,0.0,0.0,0.0,0.0,0.0,0.0,0.0,0.0,0.0,0.0,0.0,0.0,0.0,0.0,0.0,0.0,0.0,0.0,0.0,0.0,0.0,0.0,0.0,0.0,0.0,0.0,0.0,0.0,0.0,0.0,0.0,0.0,0.0,0.0,0.0,0.0,0.0,0.0,0.0,0.0,0.0,0.0,0.0,0.0,0.0,0.0,0.0,0.0,0.0,0.0,0.0,0.0,0.0,0.0,0.0,0.0,0.0,0.0,0.0,0.0,0.0,0.0,0.0,0.0,0.0,0.0,0.0,0.0,0.0,0.0,0.0,0.0,0.0,0.0,-0.5281,-0.8582,-0.9416,-0.9647,-0.9238,-0.9174,-0.7302,-0.2897,0.0,0.0,0.0,0.0,0.0,0.0,0.0,0.0,0.0,0.0,0.0,0.0,0.0,0.0,0.0,0.0,0.0,0.0,0.0,0.0,0.0,0.0,0.0,0.0,0.0,0.0,0.0,0.0,0.0,0.0,0.0,0.0,0.0,0.0,0.0,0.0,0.0,0.0,0.0,0.0,0.0,0.0,0.0,0.0,0.0,0.0,0.0,0.0,0.0,0.0,0.0,0.0,0.0,0.0,0.0,0.0,0.0,0.0,0.0,0.0,0.0,0.0,0.0,0.0,0.0,0.0,0.0,0.0,0.0,0.0,0.0,0.0,0.0,0.0,0.0,0.0,0.0,0.0,0.0,0.0,0.0,0.0,0.0,0.0,0.0,0.0,0.0,0.0,0.0,0.0,0.0,0.0,0.0,0.0,0.0,0.0,0.0,0.0,0.0,0.0,0.0,0.0,0.0,-0.3299,-0.548,-0.9327,-0.9846,-0.9782,-0.9437,-0.9405,-0.7432,-0.281,-0.2193,0.0,0.0,0.0,0.0,0.0,0.0,0.0,0.0,0.0,0.0,0.0,0.0,0.0,0.0,0.0,0.0,0.0,0.0,0.0,0.0,0.0,0.0,0.0,0.0,0.0,0.0,0.0,0.0,0.0,0.0,0.0,0.0,0.0,0.0,0.0,0.0,0.0,0.0,0.0,0.0,0.0,0.0,0.0,0.0,0.0,0.0,0.0,0.0,0.0,0.0,0.0,0.0,0.0,0.0,0.0,0.0,0.0,0.0,0.0,0.0,0.0,0.0,0.0,0.0,0.0,0.0,0.0,0.0,0.0,0.0,0.0,0.0,0.0,0.0,0.0,0.0,0.0,0.0,0.0,0.0,0.0,0.0,0.0,0.0,0.0,0.0,0.0,0.0,0.0,0.0,0.0,0.0,0.0,0.0,0.0,0.0,0.0,0.0,0.0,0.0,0.0,0.0,-0.4426,-0.6233,-0.929,-0.9697,-0.9681,-0.9526,-0.9504,-0.7455,-0.2621,-0.2194,0.0,0.0,0.0,0.0,0.0,0.0,0.0,0.0,0.0,0.0,0.0,0.0,0.0,0.0,0.0,0.0,0.0,0.0,0.0,0.0,0.0,0.0,0.0,0.0,0.0,0.0,0.0,0.0,0.0,0.0,0.0,0.0,0.0,0.0,0.0,0.0,0.0,0.0,0.0,0.0,0.0,0.0,0.0,0.0,0.0,0.0,0.0,0.0,0.0,0.0,0.0,0.0,0.0,0.0,0.0,0.0,0.0,0.0,0.0,0.0,0.0,0.0,0.0,0.0,0.0,0.0,0.0,0.0,0.0,0.0,0.0,0.0,0.0,0.0,0.0,0.0,0.0,0.0,0.0,0.0,0.0,0.0,0.0,0.0,0.0,0.0,0.0,0.0,0.0,0.0,0.0,0.0,0.0,0.0,0.0,0.0,0.0,0.0,0.0,0.0,0.0,0.0,-0.6829,-0.8852,-0.9544,-0.9433,-0.9306,-0.9312,-0.9291,-0.7241,-0.242,-0.2109,0.0,0.0,0.0,0.0,0.0,0.0,0.0,0.0,0.0,0.0,0.0,0.0,0.0,0.0,0.0,0.0,0.0,0.0,0.0,0.0,0.0,0.0,0.0,0.0,0.0,0.0,0.0,0.0,0.0,0.0,0.0,0.0,0.0,0.0,0.0,0.0,0.0,0.0,0.0,0.0,0.0,0.0,0.0,0.0,0.0,0.0,0.0,0.0,0.0,0.0,0.0,0.0,0.0,0.0,0.0,0.0,0.0,0.0,0.0,0.0,0.0,0.0,0.0,0.0,0.0,0.0,0.0,0.0,0.0,0.0,0.0,0.0,0.0,0.0,0.0,0.0,0.0,0.0,0.0,0.0,0.0,0.0,0.0,0.0,0.0,0.0,0.0,0.0,0.0,0.0,0.0,0.0,0.0,0.0,0.0,0.0,0.0,0.0,0.0,0.0,0.0,0.0,-0.6071,-0.7932,-0.9423,-0.9453,-0.9291,-0.9285,-0.9275,-0.7162,-0.2071,0.0,0.0,0.0,0.0,0.0,0.0,0.0,0.0,0.0,0.0,0.0,0.0,0.0,0.0,0.0,0.0,0.0,0.0,0.0,0.0,0.0,0.0,0.0,0.0,0.0,0.0,0.0,0.0,0.0,0.0,0.0,0.0,0.0,0.0,0.0,0.0,0.0,0.0,0.0,0.0,0.0,0.0,0.0,0.0,0.0,0.0,0.0,0.0,0.0,0.0,0.0,0.0,0.0,0.0,0.0,0.0,0.0,0.0,0.0,0.0,0.0,0.0,0.0,0.0,0.0,0.0,0.0,0.0,0.0,0.0,0.0,0.0,0.0,0.0,0.0,0.0,0.0,0.0,0.0,0.0,0.0,0.0,0.0,0.0,0.0,0.0,0.0,0.0,0.0,0.0,0.0,0.0,0.0,0.0,0.0,0.0,0.0,0.0,0.0,0.0,0.0,0.0,-0.3887,-0.5862,-0.7737,-0.9463,-0.9301,-0.9194,-0.9264,-0.9209,-0.6972,-0.1731,0.0,0.0,0.0,0.0,0.0,0.0,0.0,0.0,0.0,0.0,0.0,0.0,0.0,0.0,0.0,0.0,0.0,0.0,0.0,0.0,0.0,0.0,0.0,0.0,0.0,0.0,0.0,0.0,0.0,0.0,0.0,0.0,0.0,0.0,0.0,0.0,0.0,0.0,0.0,0.0,0.0,0.0,0.0,0.0,0.0,0.0,0.0,0.0,0.0,0.0,0.0,0.0,0.0,0.0,0.0,0.0,0.0,0.0,0.0,0.0,0.0,0.0,0.0,0.0,0.0,0.0,0.0,0.0,0.0,0.0,0.0,0.0,0.0,0.0,0.0,0.0,0.0,0.0,0.0,0.0,0.0,0.0,0.0,0.0,0.0,0.0,0.0,0.0,0.0,0.0,0.0,0.0,0.0,0.0,0.0,0.0,0.0,0.0,0.0,0.0,0.0,0.0,-0.4082,-0.6781,-0.8944,-0.9494,-0.9082,-0.8865,-0.9237,-0.9145,-0.6729,0.0,0.0,0.0,0.0,0.0,0.0,0.0,0.0,0.0,0.0,0.0,0.0,0.0,0.0,0.0,0.0,0.0,0.0,0.0,0.0,0.0,0.0,0.0,0.0,0.0,0.0,0.0,0.0,0.0,0.0,0.0,0.0,0.0,0.0,0.0,0.0,0.0,0.0,0.0,0.0,0.0,0.0,0.0,0.0,0.0,0.0,0.0,0.0,0.0,0.0,0.0,0.0,0.0,0.0,0.0,0.0,0.0,0.0,0.0,0.0,0.0,0.0,0.0,0.0,0.0,0.0,0.0,0.0,0.0,0.0,0.0,0.0,0.0,0.0,0.0,0.0,0.0,0.0,0.0,0.0,0.0,0.0,0.0,0.0,0.0,0.0,0.0,0.0,0.0,0.0,0.0,0.0,0.0,0.0,0.0,0.0,0.0,0.0,0.0,0.0,0.0,0.0,0.0,-0.3999,-0.6779,-0.8944,-0.9494,-0.9082,-0.8789,-0.9085,-0.9047,-0.6565,-0.0938,0.0,0.0,0.0,0.0,0.0,0.0,0.0,0.0,0.0,0.0,0.0,0.0,0.0,0.0,0.0,0.0,0.0,0.0,0.0,0.0,0.0,0.0,0.0,0.0,0.0,0.0,0.0,0.0,0.0,0.0,0.0,0.0,0.0,0.0,0.0,0.0,0.0,0.0,0.0,0.0,0.0,0.0,0.0,0.0,0.0,0.0,0.0,0.0,0.0,0.0,0.0,0.0,0.0,0.0,0.0,0.0,0.0,0.0,0.0,0.0,0.0,0.0,0.0,0.0,0.0,0.0,0.0,0.0,0.0,0.0,0.0,0.0,0.0,0.0,0.0,0.0,0.0,0.0,0.0,0.0,0.0,0.0,0.0,0.0,0.0,0.0,0.0,0.0,0.0,0.0,0.0,0.0,0.0,0.0,0.0,0.0,0.0,0.0,0.0,0.0,0.0,0.0,-0.3915,-0.6737,-0.8978,-0.9691,-0.9129,-0.8822,-0.9119,-0.8992,-0.693,-0.2244,0.0,0.0,0.0,0.0,0.0,0.0,0.0,0.0,0.0,0.0,0.0,0.0,0.0,0.0,0.0,0.0,0.0,0.0,0.0,0.0,0.0,0.0,0.0,0.0,0.0,0.0,0.0,0.0,0.0,0.0,0.0,0.0,0.0,0.0,0.0,0.0,0.0,0.0,0.0,0.0,0.0,0.0,0.0,0.0,0.0,0.0,0.0,0.0,0.0,0.0,0.0,0.0,0.0,0.0,0.0,0.0,0.0,0.0,0.0,0.0,0.0,0.0,0.0,0.0,0.0,0.0,0.0,0.0,0.0,0.0,0.0,0.0,0.0,0.0,0.0,0.0,0.0,0.0,0.0,0.0,0.0,0.0,0.0,0.0,0.0,0.0,0.0,0.0,0.0,0.0,0.0,0.0,0.0,0.0,0.0,0.0,0.0,0.0,0.0,0.0,0.0,0.0,-0.3744,-0.668,-0.9015,-0.9838,-0.9209,-0.8892,-0.9289,-0.8978,-0.754,-0.4612,0.0,0.0,0.0,0.0,0.0,0.0,0.0,0.0,0.0,0.0,0.0,0.0,0.0,0.0,0.0,0.0,0.0,0.0,0.0,0.0,0.0,0.0,0.0,0.0,0.0,0.0,0.0,0.0,0.0,0.0,0.0,0.0,0.0,0.0,0.0,0.0,0.0,0.0,0.0,0.0,0.0,0.0,0.0,0.0,0.0,0.0,0.0,0.0,0.0,0.0,0.0,0.0,0.0,0.0,0.0,0.0,0.0,0.0,0.0,0.0,-0.3204,-0.0539,0.0,0.0,0.0,0.0,0.0,0.0,0.0,0.0,0.0,0.0,0.0,0.0,0.0,0.0,0.0,0.0,0.0,0.0,0.0,0.0,0.0,0.0,0.0,0.0,0.0,0.0,0.0,0.0,0.0,0.0,0.0,0.0,0.0,0.0,0.0,0.0,0.0,0.0,0.0,0.0,-0.3368,-0.6517,-0.8959,-0.9639,-0.9256,-0.9053,-0.9304,-0.9242,-0.7864,-0.4815,-0.4289,0.0,0.0,0.0,0.0,0.0,0.0,0.0,0.0,0.0,0.0,0.0,0.0,0.0,0.0,0.0,0.0,0.0,0.0,0.0,0.0,0.0,0.0,0.0,0.0,0.0,0.0,0.0,0.0,0.0,0.0,0.0,0.0,0.0,0.0,0.0,0.0,0.0,0.0,0.0,0.0,0.0,0.0,0.0,0.0,0.0,0.0,0.0,0.0,0.0,0.0,0.0,0.0,0.0,0.0,0.0,0.0,0.0,0.0,0.0,-0.5542,-0.3846,0.0,0.0,0.0,0.0,0.0,0.0,0.0,0.0,0.0,0.0,0.0,0.0,0.0,0.0,0.0,0.0,0.0,0.0,0.0,0.0,0.0,0.0,0.0,0.0,0.0,0.0,0.0,0.0,0.0,0.0,0.0,0.0,0.0,0.0,0.0,0.0,0.0,0.0,0.0,0.0,-0.3213,-0.6615,-0.9167,-0.9517,-0.936,-0.9252,-0.946,-0.9294,-0.8462,-0.6878,-0.5587,0.0,0.0,0.0,0.0,0.0,0.0,0.0,0.0,0.0,0.0,0.0,0.0,0.0,0.0,0.0,0.0,0.0,0.0,0.0,0.0,0.0,0.0,0.0,0.0,0.0,0.0,0.0,0.0,0.0,0.0,0.0,0.0,0.0,0.0,0.0,0.0,0.0,0.0,0.0,0.0,0.0,0.0,0.0,0.0,0.0,0.0,0.0,0.0,0.0,0.0,0.0,0.0,0.0,-0.6803,-0.724,-0.724,-0.7686,-0.8751,-1.02,-0.8581,-0.8244,-0.8491,-0.5109,0.0,0.0,0.0,0.0,0.0,0.0,0.0,0.0,0.0,0.0,0.0,0.0,0.0,0.0,0.0,0.0,0.0,0.0,0.0,0.0,0.0,0.0,0.0,0.0,-0.8398,-0.9536,-0.787,0.0,0.0,0.0,0.0,0.0,0.0,0.0,0.0,0.0,0.0,0.0,-0.3571,-0.6953,-0.9393,-0.9573,-0.9464,-0.9455,-0.9545,-0.9332,-0.9133,-0.9133,-0.6821,-0.5357,0.0,0.0,0.0,0.0,0.0,0.0,0.0,0.0,0.0,0.0,0.0,0.0,0.0,0.0,0.0,0.0,0.0,0.0,0.0,0.0,0.0,0.0,0.0,0.0,0.0,0.0,0.0,0.0,0.0,0.0,0.0,0.0,-0.3068,-0.2857,0.0,0.0,0.0,0.0,0.0,0.0,0.0,0.0,0.0,0.0,0.0,0.0,0.0,-0.4736,-0.5066,-0.7386,-0.8689,-0.9051,-1.1148,-1.2183,-1.2198,-1.2838,-1.3225,-1.3469,-1.3499,0.0,-0.9434,-0.8877,0.0,0.0,0.0,0.0,0.0,0.0,0.0,0.0,0.0,0.0,0.0,0.0,0.0,0.0,0.0,0.0,0.0,0.0,0.0,0.0,0.0,0.0,-0.961,-1.0811,-1.1818,-1.2662,0.0,-0.9805,-0.6706,-0.5965,-0.5825,0.0,0.0,0.0,0.0,0.0,0.0,0.0,-0.5255,-0.7749,-0.9332,-0.9365,-0.9511,-0.9531,-0.9559,-0.9513,-0.948,-0.948,-0.8801,-0.7561,-0.5571,-0.4787,0.0,0.0,0.0,0.0,0.0,0.0,0.0,0.0,0.0,0.0,0.0,0.0,0.0,0.0,0.0,0.0,0.0,0.0,0.0,0.0,0.0,0.0,0.0,0.0,0.0,0.0,0.0,0.0,0.0,-0.0942,-0.1437,-0.0992,0.0162,0.1564,0.0,0.0,0.0,0.0,0.0,0.0,0.0,0.0,0.0,-0.6961,-0.7618,-0.8615,-0.9933,-1.1093,-1.1814,-1.2145,-1.3158,-1.3664,-1.368,-1.4709,-1.5141,-1.5158,-1.5317,-1.4813,-1.3761,-1.1203,-0.8736,-0.6511,0.0,0.0,0.0,0.0,-0.4793,-0.5397,-0.7783,-0.8628,-0.8324,-0.6744,0.0,0.0,0.0,0.0,0.0,0.0,0.0,0.0,0.0,0.0,-1.071,-1.2508,-1.3601,-1.4351,-1.464,-1.3111,-1.0981,0.0,-0.7198,-0.4975,-0.1858,-0.2844,0.0,0.0,0.0,-0.5773,-0.6521,-0.8286,-0.946,-0.9337,-0.962,-0.9819,-0.9819,-0.971,-0.9559,-0.9559,-0.936,-0.8671,-0.7556,-0.5989,-0.4115,0.0,0.0,0.0,0.0,0.0,0.0,0.0,0.0,0.0,0.0,0.0,0.0,0.0,0.0,0.0,0.0,0.0,0.0,0.0,0.0,0.0,0.0,0.0,0.0,0.0,0.0,0.0,0.0,-0.0854,-0.1339,-0.0044,-0.055,0.0141,0.0,0.0,0.0,0.0,0.0,0.0,-0.578,-0.6322,-0.7822,-1.0554,-1.0918,-1.1978,-1.3711,-1.3719,-1.3894,-1.4252,-1.4252,-1.4383,-1.4584,-1.5608,-1.614,-1.6349,-1.6349,-1.6775,-1.7133,-1.3401,-1.137,-1.0314,-0.8291,-0.7223,-0.6942,-0.7506,-0.7795,-0.8192,-1.0517,-1.1281,-1.1082,-1.0148,-0.9357,-0.8573,-0.6954,0.0,0.0,0.0,0.0,-0.8051,-0.9892,-1.0797,-1.1703,-1.3354,-1.4486,-1.513,-1.4909,-1.4523,-1.3667,0.0,-0.9482,-0.7013,-0.4014,-0.5621,0.0,-0.3114,-0.5716,-0.8175,-0.8471,-0.9575,-1.0236,-0.9823,-1.0149,-1.0294,-1.0038,-0.9809,-0.9724,-0.9724,-0.9526,-0.9337,-0.919,-0.7247,-0.5909,-0.5067,0.0,0.0,0.0,0.0,0.0,0.0,0.0,0.0,0.0,0.0,0.0,0.0,0.0,0.0,0.0,0.0,0.0,0.0,0.0,0.0,0.0,0.0,0.0,0.0,0.0,0.0,0.0,0.0,0.0,-0.2131,-0.4699,0.0,0.0,0.0,0.0,-0.3751,-0.472,-0.6419,-0.8842,-0.9812,-1.1293,-1.3341,-1.3703,-1.3968,-1.4085,-1.4085,-1.426,-1.4537,-1.4537,-1.5021,-1.5904,-1.5992,-1.6498,-1.7335,-1.7335,-1.7335,-1.7326,-1.6157,-1.4203,-1.1699,-1.091,-0.8907,-0.6668,-0.8578,-0.9732,-1.0727,-1.3409,-1.4347,-1.3958,-1.1452,-0.9033,-0.7463,-0.9206,-0.8601,0.0,0.0,-0.989,-1.0085,-1.2112,-1.298,-1.3492,-1.3857,-1.4643,-1.4961,-1.4241,-1.2736,-1.2131,0.0,-1.4283,-1.3228,-1.0444,0.0,-0.9559,-0.8932,-0.8765,-0.9482,-1.1952,-1.2488,-1.227,-1.1272,-1.1409,-1.1139,-1.0125,-1.0028,-1.0024,-1.0024,-0.9743,-0.9541,-0.9531,-0.9066,-0.7683,-0.5303,-0.4941,0.0,0.0,0.0,0.0,0.0,0.0,0.0,0.0,0.0,0.0,0.0,0.0,0.0,0.0,0.0,0.0,0.0,0.0,0.0,0.0,0.0,0.0,0.0,0.0,0.0,0.0,0.0,0.0,-0.3733,-0.5894,0.0,-0.3776,-0.5742,-0.7069,-0.6824,-0.9247,-1.1074,-1.1956,-1.258,-1.3302,-1.4182,-1.4387,-1.445,-1.445,-1.445,-1.4443,-1.4641,-1.5188,-1.5666,-1.6079,-1.759,-1.8429,-1.8804,-1.9064,-1.9554,-2.0063,-1.9113,-1.7572,-1.5592,-1.3878,-1.313,-1.2914,-1.3049,-1.3323,-1.373,-1.4903,-1.5308,-1.5142,-1.4223,-1.2811,-1.1665,-1.2322,-1.2283,-1.2043,-1.2815,-1.332,-1.3849,-1.4777,-1.4942,-1.4797,-1.4139,-1.4797,-1.5218,-1.4229,-1.411,-1.4389,-1.5142,-1.3977,-1.2433,-1.1169,-1.2744,-1.3352,-1.0588,-1.1558,-1.2788,-1.3482,-1.3239,-1.2757,-1.2429,-1.2006,-1.1563,-1.1139,-1.0463,-1.0038,-1.0038,-0.9757,-0.9559,-0.9559,-0.9419,-0.8869,-0.7699,-0.7774,-0.5585,0.0,0.0,0.0,0.0,0.0,0.0,0.0,0.0,0.0,0.0,0.0,0.0,0.0,0.0,0.0,0.0,0.0,0.0,0.0,0.0,0.0,0.0,0.0,0.0,0.0,-0.4931,-0.6998,-0.4504,-0.7514,-0.8793,-0.612,-0.8749,-1.0541,-1.0361,-1.2557,-1.3942,-1.3942,-1.4164,-1.4395,-1.4561,-1.4569,-1.4569,-1.4569,-1.476,-1.4824,-1.4824,-1.5566,-1.6249,-1.6964,-1.8521,-1.9595,-2.0264,-2.0558,-2.1058,-2.1511,-2.0603,-1.9869,-1.9199,-1.726,-1.663,-1.6711,-1.6154,-1.5648,-1.5404,-1.5737,-1.5936,-1.6055,-1.6182,-1.581,-1.5313,-1.5313,-1.5473,-1.5574,-1.5574,-1.5901,-1.6269,-1.6508,-1.6301,-1.5905,-1.5283,-1.572,-1.5967,-1.4823,-1.5481,-1.6095,-1.5566,-1.4234,-1.3118,-1.2923,-1.4856,-1.508,-1.1421,-1.3225,-1.4589,-1.3361,-1.3705,-1.3947,-1.3714,-1.3149,-1.2699,-1.2445,-1.0494,-0.9753,-1.077,-0.9288,-0.8818,-0.9667,-0.8862,-0.8223,-0.7983,-0.8093,-0.6334,-0.2655,0.0,0.0,0.0,0.0,0.0,0.0,0.0,0.0,0.0,0.0,0.0,0.0,0.0,0.0,0.0,0.0,0.0,0.0,0.0,0.0,0.0,0.0,0.0,-0.409,-0.6866,-0.7966,-0.4694,-0.9825,-1.2387,-0.9113,-1.2005,-1.4132,-1.4132,-1.4442,-1.4641,-1.4641,-1.4641,-1.4641,-1.4657,-1.4657,-1.4593,-1.4601,-1.5022,-1.5197,-1.5205,-1.5607,-1.68,-1.8635,-1.8746,-1.9785,-2.1658,-2.1669,-2.168,-2.1609,-2.0686,-2.1113,-2.2252,-2.074,-1.902,-1.7437,-1.7371,-1.6691,-1.5761,-1.6103,-1.6444,-1.6794,-1.7159,-1.7493,-1.7755,-1.7755,-1.7755,-1.7755,-1.7755,-1.7525,-1.7286,-1.7294,-1.7032,-1.6857,-1.7207,-1.7294,-1.7024,-1.5891,-1.6505,-1.6838,-1.5391,-1.5473,-1.584,-1.6166,-1.5936,-1.4743,-1.1828,-1.3899,0.0,-1.1739,-1.418,-1.5851,-1.4996,-1.4866,-1.4558,-1.3809,-1.0106,-0.9225,-1.2376,-0.8613,-0.7475,-0.9979,-0.7446,-0.6016,-0.6013,-0.5917,-0.5975,-0.6153,0.0,0.0,0.0,0.0,0.0,0.0,0.0,0.0,0.0,0.0,0.0,0.0,0.0,0.0,0.0,0.0,0.0,0.0,0.0,0.0,0.0,-0.5708,-0.8012,-0.7402,-1.0307,-1.2255,-1.1442,-1.3475,-1.4416,-1.3045,-1.3876,-1.4498,-1.4498,-1.5192,-1.5596,-1.5596,-1.5596,-1.5723,-1.5995,-1.5381,-1.5149,-1.5388,-1.5491,-1.5539,-1.5623,-1.748,-1.8637,-1.9268,-2.1343,-2.2584,-2.3165,-2.3536,-2.3689,-2.3689,-2.3437,-2.3524,-2.3612,-2.0787,-2.0023,-2.0232,-1.877,-1.7451,-1.646,-1.6555,-1.6651,-1.6794,-1.7159,-1.7342,-1.7413,-1.7413,-1.7413,-1.7413,-1.7413,-1.735,-1.7334,-1.7572,-1.7556,-1.7337,-1.6628,-1.71,-1.7368,-1.6206,-1.6832,-1.7518,-1.7149,-1.7148,-1.7064,-1.6659,-1.6508,-1.6147,-1.5343,-1.5851,-1.6139,-1.5255,-1.6017,-1.5546,-1.2798,-1.1713,-1.1225,-1.1292,-0.9504,-0.9989,-1.3615,-1.1882,-1.1106,-1.1748,-1.0185,-0.9207,-0.9076,-0.6292,-0.5157,0.0,0.0,0.0,0.0,0.0,0.0,0.0,0.0,0.0,0.0,0.0,0.0,0.0,0.0,0.0,0.0,0.0,0.0,0.0,0.0,0.0,0.0,-0.8408,-1.0622,-1.0932,-1.306,-1.4435,-1.4175,-1.5051,-1.5436,-1.4689,-1.4569,-1.4569,-1.4569,-1.5455,-1.607,-1.6307,-1.666,-1.7053,-1.7461,-1.6975,-1.6793,-1.7,-1.7173,-1.7329,-1.7561,-1.9108,-2.0265,-2.0927,-2.2559,-2.3627,-2.4061,-2.4355,-2.4486,-2.4486,-2.4486,-2.4607,0.0,0.0,0.0,0.0,0.0,-1.8228,-1.7191,-1.7342,-1.739,-1.7453,-1.7811,-1.793,-1.793,-1.793,-1.793,-1.793,-1.793,-1.793,-1.7969,-1.816,-1.8216,-1.8029,-1.7386,-1.7753,-1.799,-1.7196,-1.7536,-1.7946,-1.7803,-1.7771,0.0,-1.7429,-1.727,-1.6698,-1.5313,-1.624,-1.6682,-1.5223,-1.6255,-1.6415,-1.4385,-1.3512,-1.3287,-1.3648,-1.1472,0.0,0.0,0.0,-1.1693,-1.1784,-1.0431,0.0,0.0,0.0,0.0,0.0,0.0,0.0,0.0,-0.4468,-0.4025,0.0,0.0,0.0,0.0,0.0,0.0,0.0,0.0,0.0,0.0,0.0,0.0,0.0,0.0,0.0,0.0,-1.1269,-1.3499,-1.4215,-1.5121,-1.5326,-1.4303,-1.5331,-1.5737,-1.4705,-1.4569,-1.4657,-1.4832,-1.5726,-1.6519,-1.7054,-1.7853,0.0,0.0,0.0,-1.8867,-1.8915,-1.9306,-1.9669,-2.01,-2.0531,-2.1528,-2.295,-2.3082,-2.3731,-2.465,-2.465,-2.465,-2.465,-2.465,-2.4891,-2.5207,-2.4632,-2.3784,-2.2593,-2.0604,-1.9083,-1.793,-1.8418,0.0,0.0,-1.8724,-1.8827,-1.8827,-1.8827,-1.8827,-1.8827,-1.8827,-1.8827,-1.8827,-1.8827,-1.8827,-1.8827,-1.8827,-1.8827,-1.874,-1.843,-1.839,-1.8327,-1.8009,-1.7977,-1.8105,-1.8422,-1.8112,-1.6858,-1.3932,-1.5972,-1.6802,-1.3835,-1.6043,-1.7723,-1.7334,0.0,0.0,-1.7671,-1.4396,-1.369,-1.6908,-1.3495,-1.1243,-1.1155,-0.9872,-0.9242,-0.9242,-0.7738,-0.8065,-1.0246,-1.0071,-1.0062,-0.9859,-0.539,-0.4467,0.0,0.0,0.0,0.0,0.0,0.0,0.0,0.0,0.0,0.0,0.0,0.0,0.0,0.0,0.0,-0.9119,-1.1896,-1.432,-1.5496,-1.6459,-1.6399,-1.4672,-1.6044,-1.6428,-1.4776,-1.4569,-1.5105,-1.6237,-1.7179,-1.8199,-1.9493,-1.9737,-1.9939,-2.031,-1.9662,-1.9383,-1.9648,-1.9733,-1.9818,-1.9972,-2.1283,0.0,-2.295,-2.4168,-2.5077,-2.5622,-2.5622,-2.5622,-2.5622,-2.5622,-2.5677,-2.5659,-2.4609,-2.3519,-2.2457,-2.2032,-2.0464,-1.872,-1.9842,-1.9521,-1.8732,-1.8804,-1.8827,-1.8827,-1.8827,-1.8827,0.0,-1.8827,-1.8827,-1.8827,-1.8827,-1.8827,-1.8827,-1.8827,-1.8827,-1.8812,-1.874,-1.8955,-1.9145,-1.9074,-1.9272,-1.9479,-1.955,-1.8804,-1.8053,-1.7696,-1.8229,-1.8375,-1.7735,-1.7987,-1.7109,-1.4204,-1.3721,-1.3696,-1.3975,-1.3273,-1.4463,-1.8226,-1.6685,-1.5207,-1.4206,-1.3776,-1.3454,-1.3454,-1.2032,-1.1452,-1.1767,-1.0731,-1.0121,-0.9951,-0.8956,-0.884,0.0,0.0,0.0,0.0,0.0,0.0,0.0,0.0,0.0,0.0,0.0,-0.486,-0.6333,0.0,-1.0034,-1.1512,-1.3592,-1.5244,-1.5904,-1.7179,-1.7609,-1.6158,-1.6853,-1.706,-1.6088,-1.5774,-1.6168,-1.7341,-1.8475,-1.9584,-2.0472,-2.103,-2.1468,-2.185,-2.1414,-2.1292,-2.1451,-2.1451,-2.1563,-2.1788,-2.2579,-2.3377,-2.4055,-2.4881,-2.5437,-2.5895,-2.5895,-2.5895,-2.5895,-2.5895,-2.5895,-2.5812,-2.4573,-2.377,-2.324,-2.324,-2.2092,-2.0683,-2.1302,-2.1123,-2.0593,-2.0593,-2.0593,-2.0503,-1.9886,-1.9712,-1.953,-1.9004,-1.8827,-1.8827,-1.8827,-1.8827,-1.8827,-1.8827,-1.897,-1.9098,-1.9098,-1.9376,-1.9622,-1.9622,-1.9757,-1.9924,-2.0098,-1.9693,-1.9344,-1.9344,-1.9344,-1.9344,-1.9344,-1.9193,-1.8396,-1.6413,-1.6061,-1.5964,-1.5872,-1.5872,-1.6728,-1.8711,-1.8164,-1.7591,-1.6915,-1.6061,-1.5344,-1.4705,-1.3244,-1.215,-1.1398,-1.0778,-1.0367,-1.0263,-1.0263,-1.0267,0.0,0.0,0.0,0.0,0.0,0.0,0.0,-0.2115,-0.2708,-0.5801,-0.6856,-0.78,-0.9794,-1.0853,-1.1997,-1.3877,-1.5191,-1.607,-1.6219,-1.7803,-1.8697,-1.8144,-1.7939,-1.7734,-1.7517,-1.725,-1.7515,-1.8585,-1.9716,-2.0638,-2.125,-2.2058,-2.2619,-2.299,-2.3001,-2.3001,-2.3001,-2.3001,-2.3198,-2.3591,-2.3689,-2.4192,-2.5043,-2.5131,-2.5437,-2.5895,-2.5895,-2.5895,-2.5895,-2.5895,-2.5895,-2.5812,-2.484,-2.4488,-2.4392,-2.4221,-2.3414,-2.2444,-2.262,-2.262,-2.2444,-2.2444,-2.2444,-2.218,-2.1203,-2.0773,-2.0421,-1.9446,-1.9004,-1.8843,-1.8915,-1.8931,-1.8947,-1.901,-1.9256,-1.9471,-1.9471,-1.9733,-1.9963,-1.9963,-2.0019,-2.0162,-2.0448,-2.0496,-2.04,-2.0106,-2.0067,-2.0067,-2.0067,-2.0011,-1.9844,-1.9503,-1.9415,-1.9225,-1.8859,-1.8827,-1.8827,-1.8827,-1.8827,-1.8827,-1.8827,-1.7613,-1.6543,-1.5523,-1.3823,-1.2618,-1.1796,-1.1336,-1.1268,-1.1584,-1.1584,-1.1261,0.7238,0.3534,-0.0515,-0.2769,-0.352,-0.5011,0.0,-0.9419,-0.8563,-1.1541,-1.2853,-1.3433,-1.3549,-1.4326,-1.484,-1.4585,-1.5359,-1.628,-1.7129,-1.8488,-1.9713,-2.0425,-1.9792,-1.8934,-1.8066,-1.8375,-1.9151,-2.05,-2.0728,-2.1418,-2.2733,-2.285,-2.2947,-2.3001,-2.3001,-2.3001,-2.3001,-2.3001,-2.3023,-2.3088,-2.3525,-2.4028,-2.4574,-2.4989,-2.5437,-2.5895,-2.5895,-2.5895,-2.5895,-2.5895,-2.5895,-2.5906,-2.5728,-2.5717,-2.5549,-2.4488,-2.3414,-2.2532,-2.3597,-2.324,-2.2444,-2.2444,-2.2444,-2.2347,-2.2268,-2.1471,-2.0593,-2.0413,-1.9621,-1.8899,-1.9225,-1.9312,-1.9383,-1.9677,-1.9781,-1.9812,-1.9812,-2.0083,-2.0337,-2.0337,-2.0583,-2.0813,-2.0853,-2.0861,-2.0853,-2.0813,-2.0805,-2.0805,-2.0805,-2.0527,-2.0202,-1.9844,-1.955,-1.9225,-1.8859,-1.8827,-1.8827,-1.8827,-1.8827,-1.8827,-1.8827,-1.8603,-1.8488,-1.8295,-1.598,-1.5207,-1.6161,-1.3891,-1.3528,-1.4905,-1.4905,-1.4058,0.0353,-0.1701,-0.3099,-0.6151,-0.7112,-0.796,-1.0365,-1.0161,-1.0345,-1.3375,-1.4247,-1.4465,-1.4433,-1.4692,-1.5085,-1.5367,-1.6219,-1.7273,-1.8429,-1.9603,-2.054,-2.1254,-2.1167,-2.0857,-2.0211,-2.0072,-2.049,-2.1606,-2.2008,-2.2402,-2.299,-2.3001,-2.3001,-2.3001,-2.3001,-2.3001,-2.3001,-2.3001,-2.3001,-2.3012,-2.3504,-2.3842,-2.4061,-2.4552,-2.5033,-2.5491,-2.5775,-2.5895,-2.5895,-2.5895,-2.5895,-2.5895,-2.5895,-2.5895,-2.5812,-2.5369,-2.484,-2.4478,-2.5009,-2.484,-2.4478,-2.4478,-2.4478,-2.4307,-2.3597,-2.3232,-2.2706,-2.129,-2.0728,-2.0387,-1.9806,-1.9662,-1.9693,-1.9836,-2.0687,-2.1307,-2.1307,-2.2175,-2.2929,-2.2929,-2.2481,-2.2106,-2.2106,-2.1412,-2.0925,-2.0925,-2.0925,-2.0925,-2.0925,-2.0798,-2.0567,-2.021,-1.986,-1.9519,-1.9169,-1.9145,-1.9058,-1.8843,-1.8827,-1.8827,-1.8827,-1.8827,-1.845,-1.7692,-1.6809,-1.6313,-1.6039,-1.5237,-1.5177,-1.5886,-1.5886,-1.5849,-0.266,-0.4395,-0.5026,-0.8455,-1.0069,-1.0843,-1.1015,-1.1179,-1.1992,-1.412,-1.4982,-1.5259,-1.5054,-1.5392,-1.5877,-1.6289,-1.7189,-1.8174,-1.931,-2.0403,-2.1243,-2.1734,-2.2215,-2.2368,-2.2007,-2.1668,-2.1797,-2.2426,-2.2815,-2.3001,-2.3001,-2.3001,-2.315,-2.335,-2.3139,-2.3139,-2.335,-2.3139,-2.3001,-2.3012,-2.3504,-2.3733,-2.3755,-2.4388,-2.4858,-2.5196,-2.5688,-2.5895,-2.5895,-2.5895,-2.5895,-2.5917,-2.6048,-2.6103,-2.6125,-2.6245,-2.6125,-2.5895,-2.5895,-2.5983,-2.6103,-2.6103,-2.619,-2.6107,-2.5217,-2.498,-2.4694,-2.2878,-2.236,-2.215,-2.1298,-2.113,-2.1164,-2.1265,-2.216,-2.3046,-2.3046,-2.3938,-2.4827,-2.4827,-2.4051,-2.3276,-2.2985,-2.2097,-2.1318,-2.0917,-2.0925,-2.0925,-2.0925,-2.0837,-2.0678,-2.0416,-1.9995,-1.963,-1.9391,-1.928,-1.9105,-1.8843,-1.8827,-1.8827,-1.8827,-1.8923,-1.8543,-1.7764,-1.7594,-1.7357,-1.6854,-1.6699,-1.6807,-1.7289,-1.7289,-1.7839,0.236,-0.1381,-0.4938,-0.8764,-1.1833,-1.4063,-1.4356,-1.4426,-1.4506,-1.4561,-1.6018,-1.7051,-1.6149,-1.7453,-1.8355,-1.7472,-1.8152,-1.892,-1.9448,-2.069,-2.1745,-2.2237,-2.2695,-2.2968,-2.2957,-2.2968,-2.2979,-2.2979,-2.299,-2.3001,-2.3001,-2.3001,-2.3423,-2.4348,-2.3497,-2.3423,-2.4337,-2.3423,-2.3001,-2.3012,-2.3504,-2.3733,-2.3766,-2.4716,-2.5164,-2.5196,-2.5688,-2.5895,-2.5895,-2.5895,-2.5895,-2.595,-2.642,-2.6605,-2.666,-2.7108,-2.6682,-2.5895,-2.5895,-2.6212,-2.6605,-2.6605,-2.6911,-2.7272,-2.7172,-2.6451,-2.5552,-2.5451,-2.4621,-2.3794,-2.4079,-2.4184,-2.4288,-2.4598,-2.4701,-2.4711,-2.4711,-2.4818,-2.4827,-2.4827,-2.473,-2.4337,-2.3085,-2.2894,-2.24,-2.1121,-2.0925,-2.0925,-2.0925,-2.0623,-2.0408,-2.0392,-1.9789,-1.9383,-1.9376,-1.9042,-1.8843,-1.8827,-1.8827,-1.8827,-1.8827,-1.9169,-1.9511,-1.9828,-1.8641,-1.8706,-2.0261,-1.8714,-1.8728,-2.0277,-2.0277,-2.0458,-0.0799,-0.5243,-0.9782,-1.3806,-1.5255,-1.5677,-1.5551,-1.5046,-1.4776,-1.5392,-1.3978,-1.281,-1.3059,-1.364,-1.4222,-1.4478,-1.694,-1.9303,-2.0727,-2.1263,-2.1887,-2.2673,-2.2903,-2.3001,-2.3001,-2.3001,-2.3001,-2.3001,-2.3001,-2.3001,-2.3001,-2.3001,-2.3423,-2.4337,-2.3497,-2.3423,-2.4409,-2.3497,-2.3001,-2.3001,-2.3165,-2.3416,-2.3755,-2.4421,-2.4891,-2.5218,-2.6037,-2.6551,-2.6835,-2.6835,-2.6835,-2.6856,-2.702,-2.7075,-2.7097,-2.7261,-2.7108,-2.6835,-2.6835,-2.6944,-2.7075,-2.7075,-2.7184,-2.7315,-2.7315,-2.7266,-2.7051,-2.6207,-2.5835,-2.5605,-2.4871,-2.4619,-2.4648,-2.479,-2.5509,-2.6098,-2.6098,-2.6788,-2.7474,-2.7474,-2.6788,-2.6001,-2.5518,-2.4739,-2.3764,-2.2391,-2.1514,-2.0925,-2.0925,-2.0813,-2.0742,-2.0742,-2.0535,-2.0305,-2.0067,-1.994,-1.9765,-1.9526,-1.9741,-1.9868,-1.9868,-1.9979,-2.021,-2.0559,-1.9922,-1.9976,-2.0742,-2.021,-2.021,-2.0742,-2.0742,-2.0805,-0.4442,-0.8514,-1.2172,-1.6378,-1.7116,-1.6741,-1.6551,-1.6184,-1.6005,-1.6625,-1.397,-1.169,-1.2265,-1.2647,-1.2594,-1.1616,-1.4773,-1.788,-1.9313,-1.9445,-2.037,-2.2711,-2.3001,-2.3001,-2.3001,-2.3001,-2.3001,-2.3001,-2.3001,-2.3001,-2.3001,-2.3001,-2.3559,-2.4838,-2.3632,-2.3632,-2.4909,-2.3632,-2.3001,-2.3001,-2.3176,-2.3427,-2.3755,-2.4607,-2.5153,-2.548,-2.6452,-2.7042,-2.7315,-2.7315,-2.7315,-2.7337,-2.7501,-2.7566,-2.7588,-2.7763,-2.7829,-2.7774,-2.7424,-2.7424,-2.7566,-2.7566,-2.7687,-2.7829,-2.7829,-2.8047,-2.8104,-2.7345,-2.7254,-2.7284,-2.6491,-2.6194,-2.6194,-2.6194,-2.6884,-2.7474,-2.7474,-2.8164,-2.8757,-2.8757,-2.806,-2.7369,-2.6884,-2.5702,-2.4534,-2.3665,-2.2885,-2.1996,-2.1019,-2.0925,-2.0925,-2.0925,-2.0805,-2.0639,-2.0408,-2.0281,-2.0162,-2.0059,-2.0265,-2.0448,-2.0575,-2.0583,-2.0805,-2.1282,-2.0821,-2.0813,-2.129,-2.1044,-2.0925,-2.0925,-2.0925,-2.0925,-0.8031,-1.0836,-1.2332,-1.6501,-1.7472,-1.7482,-1.7501,-1.7777,-1.8024,-1.7934,-1.5382,-1.3247,-1.3078,-1.3966,-1.3344,-0.9213,-1.2301,-1.5413,-1.5982,-1.5973,-1.767,-2.2434,-2.3001,-2.3001,-2.3001,-2.3001,-2.3001,-2.3001,-2.3001,-2.3001,-2.3075,-2.3065,-2.3913,-2.5824,-2.4131,-2.3986,-2.5742,-2.3913,-2.3012,-2.3045,-2.3504,-2.3744,-2.382,-2.5322,-2.6001,-2.5994,-2.6933,-2.737,-2.7381,-2.7469,-2.7469,-2.7513,-2.7973,-2.816,-2.8214,-2.8674,-2.885,-2.8626,-2.7708,-2.7687,-2.808,-2.808,-2.8386,-2.8757,-2.8757,-2.8757,-2.8757,-2.8757,-2.8757,-2.8757,-2.8757,-2.8757,-2.8757,-2.8757,-2.8757,-2.8757,-2.8757,-2.8757,-2.8757,-2.8757,-2.8757,-2.8362,-2.7074,-2.5809,-2.4925,-2.4925,-2.4827,-2.3854,-2.131,-2.1019,-2.1019,-2.0925,-2.0623,-2.0416,-2.0416,-2.013,-2.0091,-2.0424,-2.048,-2.0647,-2.0988,-2.1004,-2.1314,-2.1973,-2.1306,-2.1274,-2.1934,-2.125,-2.0925,-2.0925,-2.0925,-2.0925,-0.9984,-1.3294,-1.6378,-1.8793,-1.8911,-1.8512,-1.8843,-1.8262,-1.7047,-1.5166,-1.1567,-0.8169,-0.5886,-0.8362,-1.0369,-0.9294,-1.4858,-1.9679,-2.0533,-2.0277,-2.0801,-2.2785,-2.3001,-2.3001,-2.3001,-2.3001,-2.3001,-2.3001,-2.3001,-2.3287,-2.3986,-2.4059,-2.4886,-2.6761,-2.573,-2.5334,-2.5824,-2.3913,-2.3187,-2.3536,-2.4457,-2.4653,-2.4334,-2.6255,-2.6813,-2.6496,-2.7446,-2.8058,-2.8477,-2.9331,-2.9667,-2.978,-3.0785,-3.0655,-2.9885,-3.0011,-2.9543,-2.8724,-2.8473,-2.8473,-2.8571,-2.8571,-2.8659,-2.8757,-2.8757,-2.8757,-2.8757,-2.8757,-2.8757,-2.8757,-2.8757,-2.8757,-2.8757,-2.8757,-2.8757,-2.8757,-2.8757,-2.8757,-2.8757,-2.8757,-2.8757,-2.8653,-2.8362,-2.7179,-2.629,-2.629,-2.5412,-2.4239,-2.2593,-2.24,-2.2005,-2.1019,-2.0845,-2.0782,-2.0782,-2.0948,-2.1084,-2.1179,-2.1671,-2.1989,-2.2084,-2.2084,-2.2172,-2.2347,-2.1671,-2.1401,-2.1576,-2.1131,-2.0925,-2.0925,-2.0925,-2.0925,-1.2645,-1.5489,-1.7908,-1.9239,-1.961,-1.9277,-1.7674,-1.6973,-1.5687,-1.2373,-0.8405,-0.497,-0.3251,-0.6601,-0.8899,-0.697,-1.3363,-1.8842,-1.9673,-1.9278,-1.9949,-2.27,-2.335,-2.3423,-2.3075,-2.335,-2.3423,-2.3001,-2.3001,-2.3423,-2.4337,-2.4409,-2.524,-2.7111,-2.6296,-2.5725,-2.5457,-2.4538,-2.4206,-2.47,-2.6035,-2.6218,-2.5487,-2.7324,-2.764,-2.6988,-2.7938,-2.8506,-2.885,-2.9452,-3.0056,-3.0586,-3.1288,-3.1464,-3.1199,-3.0676,-3.0056,-2.9452,-2.8932,-2.8757,-2.8757,-2.8757,-2.8757,-2.8757,-2.8757,-2.8757,-2.8757,-2.8757,-2.8757,-2.8757,-2.8757,-2.8757,-2.8757,-2.8757,-2.8757,-2.8757,-2.8757,-2.8757,-2.8757,-2.8757,-2.8757,-2.8757,-2.8757,-2.8164,-2.7673,-2.7673,-2.7074,-2.6098,-2.4739,-2.406,-2.3466,-2.2685,-2.2097,-2.1877,-2.1932,-2.1635,-2.1584,-2.1886,-2.2267,-2.2561,-2.2712,-2.2569,-2.249,-2.249,-2.1806,-2.1449,-2.1449,-2.1091,-2.0925,-2.0925,-2.0925,-2.0925,-1.5176,-1.7009,-1.7868,-1.866,-1.9775,-1.9638,-1.5533,-1.5141,-1.4283,-0.9526,-0.5733,-0.3061,-0.2575,-0.6123,-0.8007,-0.4766,-1.0673,-1.6003,-1.7126,-1.6817,-1.8118,-2.257,-2.3734,-2.3913,-2.3287,-2.3779,-2.3852,-2.3075,-2.315,-2.357,-2.4552,-2.4684,-2.5591,-2.7324,-2.6427,-2.5802,-2.5471,-2.5456,-2.5674,-2.6341,-2.7773,-2.7989,-2.6918,-2.8407,-2.8516,-2.7457,-2.8364,-2.8932,-2.9013,-2.9198,-2.9988,-3.1021,-3.1098,-3.1716,-3.2339,-3.1199,-3.0664,-3.0316,-2.9187,-2.8757,-2.8757,-2.8757,-2.8757,-2.8757,-2.8757,-2.8757,-2.8757,-2.8757,-2.8757,-2.8757,-2.8757,-2.8757,-2.8757,-2.8757,-2.8757,-2.8757,-2.8757,-2.8757,-2.8757,-2.8757,-2.8757,-2.8757,-2.8757,-2.8757,-2.8757,-2.8757,-2.8757,-2.8362,-2.7179,-2.5905,-2.5023,-2.4827,-2.3854,-2.3243,-2.3434,-2.2399,-2.1897,-2.2442,-2.2529,-2.2696,-2.3006,-2.2672,-2.2466,-2.2418,-2.1783,-2.1425,-2.1377,-2.1068,-2.0925,-2.0925,-2.0925,-2.0925,-1.5621,-1.6175,-1.6799,-1.8893,-1.9527,-1.9039,-1.6236,-1.5491,-1.3239,-0.6037,-0.3733,-0.1984,0.1154,-0.1758,-0.5639,-0.8548,-1.2841,-1.7153,-2.0792,-2.1218,-2.1715,-2.3395,-2.3385,-2.3497,-2.4131,-2.357,-2.3213,-2.3001,-2.3706,-2.4552,-2.5545,-2.6283,-2.7191,-2.8314,-2.7069,-2.6797,-2.7557,-2.6478,-2.6581,-2.7934,-2.9086,-2.8996,-2.7987,-2.9499,-2.939,-2.7938,-2.8506,-2.9371,-3.0316,-3.13,-3.2339,-3.3467,-3.4415,-3.4319,-3.3551,-3.2426,-3.1376,-3.0316,-2.9187,-2.8757,-2.8757,-2.8757,-2.8757,-2.8757,-2.8757,-2.8757,-2.8757,-2.8757,-2.8757,-2.8757,-2.8757,-2.8757,-2.8757,-2.8757,-2.8757,-2.8757,-2.8757,-2.8757,-2.8757,-2.8757,-2.8757,-2.8757,-2.8757,-2.8757,-2.8757,-2.8757,-2.8757,-2.8757,-2.8456,-2.7274,-2.6001,-2.4925,-2.4632,-2.4216,-2.3434,-2.3453,-2.3201,-2.2568,-2.276,-2.295,-2.3014,-2.2672,-2.2347,-2.2053,-2.1655,-2.1306,-2.1012,-2.0948,-2.0925,-2.0925,-2.0925,-2.0925,-1.5117,-1.5666,-1.6438,-1.8327,-1.9153,-1.831,-1.3687,-1.2401,-0.992,-0.2002,-0.0174,0.058,0.2414,-0.0825,-0.4415,-0.647,-1.1948,-1.671,-1.9023,-2.0828,-2.2248,-2.3217,-2.3812,-2.4189,-2.4385,-2.4409,-2.448,-2.448,-2.4909,-2.5322,-2.5755,-2.7124,-2.8091,-2.8587,-2.7747,-2.7685,-2.8485,-2.816,-2.8487,-2.9505,-3.0577,-3.0239,-2.8638,-2.9946,-2.9468,-2.7708,-2.844,-2.9106,-2.9715,-3.0855,-3.2079,-3.3212,-3.4332,-3.4855,-3.4677,-3.2943,-3.1904,-3.1199,-2.936,-2.8757,-2.8757,-2.8757,-2.8757,-2.8757,-2.8757,-2.8757,-2.8757,-2.8757,-2.8757,-2.8757,-2.8757,-2.8757,-2.8757,-2.8757,-2.8757,-2.8757,-2.8757,-2.8757,-2.8757,-2.8757,-2.8757,-2.8757,-2.8757,-2.8757,-2.8757,-2.8757,-2.8757,-2.8757,-2.8757,-2.8258,-2.7568,-2.6979,-2.65,-2.6123,-2.5857,-2.4945,-2.4184,-2.3921,-2.3359,-2.3014,-2.3014,-2.2855,-2.2506,-2.1965,-2.1798,-2.1457,-2.0925,-2.0925,-2.0925,-2.0925,-2.0925,-2.0925,-1.4419,-1.5174,-1.6139,-1.7491,-1.8431,-1.7345,-1.0822,-0.9229,-0.6932,0.0915,0.2583,0.2627,0.2607,-0.022,-0.279,-0.3615,-0.9211,-1.4109,-1.6145,-1.8715,-2.1047,-2.2915,-2.4167,-2.4662,-2.4434,-2.5052,-2.5475,-2.5475,-2.5881,-2.6158,-2.6377,-2.7829,-2.8655,-2.8777,-2.8433,-2.8581,-2.9353,-2.9796,-3.0316,-3.0921,-3.1911,-3.147,-2.9704,-3.0372,-2.9721,-2.7999,-2.8602,-2.8932,-2.9279,-3.0418,-3.1553,-3.2784,-3.3901,-3.4937,-3.5453,-3.3126,-3.2253,-3.1991,-2.9897,-2.9198,-2.9198,-2.9198,-2.9024,-2.8757,-2.8757,-2.8757,-2.8757,-2.8757,-2.8757,-2.8757,-2.8757,-2.8757,-2.8757,-2.8757,-2.8757,-2.8757,-2.8757,-2.8757,-2.8757,-2.8757,-2.8757,-2.8757,-2.8757,-2.8757,-2.8757,-2.8757,-2.8757,-2.8757,-2.8757,-2.8757,-2.8757,-2.8757,-2.8296,-2.7852,-2.7593,-2.6048,-2.4984,-2.4727,-2.3664,-2.3014,-2.3014,-2.2942,-2.2641,-2.2084,-2.1926,-2.1584,-2.1036,-2.0956,-2.0925,-2.0925,-2.0925,-2.0925,-1.3815,-1.4952,-1.5495,-1.6584,-1.7149,-1.588,-0.9742,-0.8315,-0.6254,0.0937,0.2436,0.2417,0.2334,0.2041,0.0571,-0.3319,-0.4552,-0.7552,-1.4923,-1.6229,-1.8232,-2.305,-2.3735,-2.398,-2.4362,-2.448,-2.4552,-2.4552,-2.6146,-2.7458,-2.8314,-2.8522,-2.8831,-2.9374,-2.8943,-2.9463,-3.105,-3.0703,-3.1031,-3.2036,-3.2725,-3.2608,-3.1922,-3.1539,-3.0877,-3.0189,-2.9235,-2.9371,0.0,-3.1641,-3.2771,-3.3985,-3.5114,-3.5629,-3.5453,-3.3126,-3.2253,-3.2079,-3.0754,-3.0316,-3.0316,-3.0316,-2.9624,-2.8757,-2.8757,-2.8757,-2.8757,-2.8757,-2.8757,-2.8757,-2.8757,-2.8757,-2.8757,-2.8757,-2.8757,-2.8757,-2.8757,-2.8757,-2.8757,-2.8757,-2.8757,-2.8757,-2.8757,-2.8757,-2.8757,-2.8757,-2.8757,-2.8757,-2.8757,-2.8757,-2.8757,-2.8757,-2.9088,-2.846,-2.6273,-2.6257,-2.5496,-2.332,-2.3127,-2.3014,-2.3014,-2.2704,-2.2506,-2.2442,-2.1814,-2.1465,-2.1401,-2.1084,-2.0925,-2.0925,-2.0925,-2.0925,-1.4099,-1.4911,-1.517,-1.6681,-1.5155,-1.2297,-0.8665,-0.6335,-0.3462,0.1673,0.249,0.2248,0.2257,0.2282,0.1719,0.005,-0.2311,-0.4995,-0.8073,-1.3288,-1.7293,-1.8657,-2.2224,-2.4405,-2.4003,-2.4223,-2.4624,-2.5181,-2.6989,-2.8235,-2.8587,-2.8587,-2.8872,-2.9455,-2.9697,-3.0231,-3.1287,-3.1481,-3.1776,-3.2182,-3.2779,-3.2617,-3.1745,-3.1477,-3.1308,-3.1009,-2.95,-2.9897,0.0,-3.2079,-3.2955,-3.4069,-3.5277,-3.571,-3.5453,-3.3126,-3.2253,-3.1991,-3.0158,-2.9452,-2.9452,-2.9452,-2.9198,-2.8757,-2.8757,-2.8757,-2.8757,-2.8757,-2.8757,-2.8757,-2.8757,-2.8757,-2.8757,-2.8757,-2.8757,-2.8757,-2.8757,-2.8757,-2.8757,-2.8757,-2.8757,-2.8757,-2.8757,-2.8757,-2.8757,-2.8757,-2.8757,-2.8757,-2.8757,-2.8757,-2.8757,-2.8757,-2.9456,-2.9179,-2.731,-2.7112,-2.6289,-2.4411,-2.3448,-2.3014,-2.3014,-2.2879,-2.2704,-2.249,-2.222,-2.187,-2.1449,-2.1306,-2.1131,-2.0925,-2.0925,-2.0925,-1.2749,-1.4053,-1.4702,-1.601,-1.3528,-1.0082,-0.7624,-0.4681,-0.1518,0.1919,0.2374,0.2159,0.2159,0.2159,0.2194,0.2264,-0.0203,-0.2456,-0.3466,-0.9064,-1.3341,-1.4263,-1.8407,-2.1424,-2.1964,-2.3455,-2.4767,-2.5755,-2.7271,-2.8314,-2.8587,-2.8587,-2.8953,-2.9726,-3.0174,-3.0785,-3.1544,-3.1965,-3.2182,-3.2182,-3.2955,-3.2917,-3.2226,-3.2206,-3.204,-3.1626,-3.0357,-3.0598,0.0,-3.2513,-3.3297,-3.4069,-3.5277,-3.571,-3.5453,-3.3126,-3.2513,-3.2513,-3.0508,-2.9806,-2.9806,-2.9806,-2.9635,-2.9279,-2.8932,-2.8757,-2.8757,-2.8757,-2.8757,-2.8757,-2.8757,-2.8757,-2.8757,-2.8757,-2.8757,-2.8757,-2.8757,-2.8757,-2.8757,-2.8757,-2.8757,-2.8757,-2.8757,-2.8757,-2.8757,-2.8757,-2.8757,-2.8757,-2.8757,-2.8757,-2.8757,-2.8757,-2.9631,-2.9381,-2.7532,-2.7371,-2.6463,-2.4642,-2.356,-2.3014,-2.3014,-2.3014,-2.2895,-2.2649,-2.2537,-2.2243,-2.1759,-2.1552,-2.137,-2.1227,-2.1123,-2.1076,-0.9141,-1.2165,-1.4015,-1.4089,-1.2575,-1.0046,-0.651,-0.3773,-0.1243,0.1473,0.2019,0.2019,0.2019,0.2019,0.2076,0.2252,0.2309,0.0895,-0.3106,-0.3294,-0.5111,-1.0646,-1.179,-1.3706,-1.7605,-2.1839,-2.4767,-2.5755,-2.6705,-2.7604,-2.8522,-2.8587,-2.9143,-3.0364,-3.0405,-3.0975,-3.2155,-3.2182,-3.2182,-3.2196,-3.3376,-3.3856,-3.3896,-3.3973,-3.3369,-3.2253,-3.2253,-3.1641,0.0,-3.3016,-3.3985,-3.4069,-3.5277,-3.571,-3.5453,-3.3126,-3.3028,-3.3817,-3.2685,-3.2253,-3.2253,-3.2253,-3.1464,-3.0226,-2.9106,-2.8757,-2.8757,-2.8757,-2.8757,-2.8757,-2.8757,-2.8757,-2.8757,-2.8757,-2.8757,-2.8757,-2.8757,-2.8757,-2.8757,-2.8757,-2.8757,-2.8757,-2.8757,-2.8757,-2.8757,-2.8757,-2.8757,-2.8757,-2.8757,-2.8757,-2.8757,-2.8757,-2.9631,-2.9073,-2.6208,-2.6748,-2.6027,-2.3231,-2.3014,-2.3014,-2.3014,-2.3014,-2.3014,-2.3006,-2.2664,-2.2482,-2.2474,-2.1783,-2.1624,-2.1941,-2.16,-2.1336,-0.6821,-0.8243,-0.8712,-0.9018,-0.6556,-0.3776,-0.292,-0.0593,0.1542,0.2251,0.2179,0.1999,0.1935,0.1976,0.2076,0.2252,0.2358,0.1798,0.018,-0.5116,-0.9321,-1.0515,-1.5623,-1.9653,-2.1236,-2.3234,-2.4767,-2.5755,-2.6705,-2.7604,-2.8522,-2.8587,-2.9143,-3.0364,-3.0405,-3.0975,-3.2169,-3.2182,-3.2182,-3.2196,-3.3376,-3.3869,-3.391,-3.3136,-3.3041,-3.3369,-3.1804,-3.1716,-3.293,-3.372,-3.4498,-3.5196,-3.5548,-3.5196,-3.4332,-3.2857,-3.1991,-3.1452,-3.0328,-2.9897,-2.9897,-2.9897,-2.9624,-2.9279,-2.8932,-2.8757,-2.8757,-2.8757,-2.8757,-2.8757,-2.8757,-2.8757,-2.8757,-2.8757,-2.8757,-2.8757,-2.8757,-2.8757,-2.8757,-2.8757,-2.8757,-2.8757,-2.8757,-2.8757,-2.8757,-2.8757,-2.8757,-2.8757,-2.8757,-2.8757,-2.8757,-2.8757,-2.8709,-2.7945,-2.6096,-2.6748,-2.6036,-2.3231,-2.3014,-2.3014,-2.3014,-2.3014,-2.3014,-2.3014,-2.2903,-2.2728,-2.249,-2.2267,-2.2092,-2.1949,-2.1608,-2.1449,-0.3929,-0.5348,-0.5856,-0.6261,-0.3776,-0.1297,-0.1356,0.0709,0.2575,0.2394,0.2156,0.1991,0.1899,0.1984,0.2037,0.1869,0.2207,0.1671,-0.055,-0.5314,-0.9131,-1.0545,-1.6572,-2.0737,-2.1077,-2.2772,-2.4409,-2.5685,-2.6364,-2.7258,-2.8522,-2.8587,-2.9048,-3.0025,-3.0283,-3.0866,-3.1829,-3.2074,-3.2182,-3.2182,-3.3145,-3.3729,-3.3896,-3.3001,-3.284,-3.3284,-3.224,-3.2414,0.0,-3.4332,-3.5032,-3.571,-3.571,-3.5019,-3.3888,-3.2685,-3.1816,-3.1021,-2.9897,-2.9452,-2.9452,-2.9452,-2.9198,-2.8757,-2.8757,-2.8757,-2.8757,-2.8757,-2.8757,-2.8757,-2.8757,-2.8757,-2.8757,-2.8757,-2.8757,-2.8757,-2.8757,-2.8757,-2.8757,-2.8757,-2.8757,-2.8757,-2.8757,-2.8757,-2.8757,-2.8757,-2.8757,-2.8757,-2.8757,-2.8757,-2.8653,-2.807,-2.7949,-2.7041,-2.5262,-2.6004,-2.5498,-2.3127,-2.3014,-2.3014,-2.3014,-2.3014,-2.3014,-2.3014,-2.3014,-2.2903,-2.2688,-2.2688,-2.2506,-2.2148,-2.1941,-2.1775,0.0,-0.3035,-0.4667,-0.5053,-0.3409,-0.1621,-0.1323,0.0559,0.0,0.1959,0.1954,0.1991,0.1899,0.2074,0.1981,0.1246,0.1923,0.0777,-0.4281,-0.483,-0.6406,-1.118,-1.5624,-1.8215,-1.7916,-2.1012,-2.3779,-2.5673,-2.5824,-2.665,-2.8522,-2.8587,-2.8845,-2.9401,-3.0011,-3.0649,-3.1287,-3.1884,-3.2182,-3.2182,-3.282,-3.3417,-3.3896,-3.3354,-3.2815,-3.2426,-3.3382,-3.3212,-3.2611,-3.4677,-3.5629,-3.571,-3.5629,-3.4855,-3.372,-3.2599,-3.2079,-3.1904,-3.0765,-3.0406,-3.0406,-3.0406,-2.9624,-2.8757,-2.8757,-2.8757,-2.8757,-2.8757,-2.8757,-2.8757,-2.8757,-2.8757,-2.8757,-2.8757,-2.8757,-2.8757,-2.8757,-2.8757,-2.8757,-2.8757,-2.8757,-2.8757,-2.8757,-2.8757,-2.8757,-2.8757,-2.8757,-2.8757,-2.8757,-2.8757,-2.8258,-2.6979,-2.71,-2.6435,-2.4114,-2.4724,-2.4505,-2.3127,-2.3014,-2.3014,-2.3014,-2.3014,-2.3014,-2.3014,-2.3014,-2.3014,-2.3014,-2.3014,-2.2847,-2.2521,-2.2498,-2.2307,0.1621,0.0,0.0546,0.0382,0.0796,0.1249,0.0,0.1766,0.2146,0.1959,0.1954,0.1991,0.1899,0.2074,0.1955,0.1289,0.1479,-0.0112,-0.5192,-1.1177,-1.5324,-1.6263,-1.9887,-2.1197,-1.8215,-2.1012,-2.3779,-2.5673,-2.5824,-2.665,-2.8522,-2.8587,-2.8655,-2.8804,-2.9387,-3.0215,-3.1287,-3.1884,-3.2182,-3.2182,-3.324,-3.381,-3.3896,-3.2912,-3.2915,-3.3551,-3.1979,-3.2153,-3.3636,-3.4152,-3.4937,-3.5629,-3.4759,-3.372,-3.2599,-3.1364,-3.0328,-2.9543,-2.9279,-2.9187,-2.9187,-2.9187,-2.9024,-2.8757,-2.8757,-2.8757,-2.8757,-2.8757,-2.8757,-2.8757,-2.8757,-2.8757,-2.8757,-2.8757,-2.8757,-2.8757,-2.8757,-2.8757,-2.8757,-2.8757,-2.8757,-2.8757,-2.8757,-2.8757,-2.8757,-2.8757,-2.8757,-2.8757,-2.8757,-2.8757,-2.8258,-2.6979,-2.631,-2.5339,-2.4009,-2.4471,-2.4335,-2.3111,-2.3014,-2.3014,-2.3014,-2.3014,-2.3014,-2.3014,-2.3014,-2.3014,-2.3014,-2.3014,-2.2974,-2.2887,-2.2617,-2.2442,0.2477,0.229,0.2257,0.2211,0.2201,0.2201,0.2201,0.2201,0.2159,0.1972,0.2017,0.2066,0.2059,0.1099,0.0402,0.0699,-0.1357,-0.4273,-0.8115,-1.2791,-1.6454,-1.802,-1.9889,-2.0877,-2.0559,-2.2029,-2.357,-2.5052,-2.5533,-2.6433,-2.7881,-2.8379,-2.8587,-2.8587,-2.917,-2.993,-3.088,-3.1477,-3.1911,-3.2182,-3.3105,-3.3688,-3.3819,-3.2523,-3.2363,-3.3114,-3.1276,-3.1541,-3.3297,-3.3804,-3.4677,-3.5629,-3.4415,-3.3284,-3.2166,-3.0932,-2.9795,-2.8757,-2.8757,-2.8757,-2.8757,-2.8757,-2.8757,-2.8757,-2.8757,-2.8757,-2.8757,-2.8757,-2.8757,-2.8757,-2.8757,-2.8757,-2.8757,-2.8757,-2.8757,-2.8757,-2.8757,-2.8757,-2.8757,-2.8757,-2.8757,-2.8757,-2.8757,-2.8757,-2.8757,-2.8757,-2.8757,-2.8757,-2.8757,-2.8757,-2.806,-2.6098,-2.5429,-2.4528,-2.3165,-2.3285,-2.331,-2.2982,-2.3014,-2.3014,-2.3014,-2.3014,-2.3014,-2.3014,-2.3014,-2.3014,-2.3014,-2.3014,-2.3014,-2.3014,-2.2815,-2.2641,0.2555,0.2186,0.1896,0.2158,0.2201,0.2201,0.2201,0.2201,0.2182,0.2072,0.2119,0.2092,0.1661,-0.0051,-0.1205,-0.0566,-0.5174,-0.9638,-1.222,-1.3674,-1.5546,-1.8351,-1.8828,-1.9984,-2.2664,-2.2983,-2.3423,-2.4348,-2.5264,-2.6227,-2.7178,-2.8091,-2.8587,-2.8587,-2.9089,-2.9631,-3.0269,-3.0948,-3.1585,-3.2182,-3.2874,-3.3422,-3.3695,-3.2263,-3.1835,-3.2253,-3.0843,0.0,-3.2599,-3.3382,-3.4498,-3.5548,-3.4236,-3.3126,-3.2166,-3.0754,-2.9624,-2.8757,-2.8757,-2.8757,-2.8757,-2.8757,-2.8757,-2.8757,-2.8757,-2.8757,-2.8757,-2.8757,-2.8757,-2.8757,-2.8757,-2.8757,-2.8757,-2.8757,-2.8757,-2.8757,-2.8757,-2.8757,-2.8757,-2.8757,-2.8757,-2.8757,-2.8757,-2.8757,-2.8757,-2.8757,-2.8757,-2.8757,-2.8757,-2.8757,-2.7767,-2.512,-2.4827,-2.4072,-2.2207,-2.1957,-2.2259,-2.2974,-2.3014,-2.3014,-2.3014,-2.3014,-2.3014,-2.3014,-2.3014,-2.3014,-2.3014,-2.3014,-2.3014,-2.3014,-2.3014,-2.2855,0.2658,0.1451,0.0509,0.1851,0.2201,0.2201,0.2201,0.2201,0.2217,0.2229,0.2252,0.1544,-0.0834,-0.0106,-0.0055,-0.3045,-0.821,-1.3194,-1.6848,-2.042,-2.1787,-1.9491,-2.1758,-2.2428,-1.9627,-2.1566,-2.3423,-2.4348,-2.5264,-2.6227,-2.7178,-2.8091,-2.8587,-2.8587,-2.8682,-2.9021,-2.9618,-3.073,-3.1585,-3.2182,-3.3295,-3.3539,-3.3203,-3.2494,-3.2179,-3.2166,0.0,-3.0855,-3.3649,-3.287,-3.3804,-3.5453,-3.3382,-3.2426,-3.2079,-2.9897,-2.8932,-2.8757,-2.8757,-2.8757,-2.8757,-2.8757,-2.8757,-2.8757,-2.8757,-2.8757,-2.8757,-2.8757,-2.8757,-2.8757,-2.8757,-2.8757,-2.8757,-2.8757,-2.8757,-2.8757,-2.8757,-2.8757,-2.8757,-2.8757,-2.8757,-2.8757,-2.8757,-2.8757,-2.8757,-2.8757,-2.8757,-2.8757,-2.8757,-2.8757,-2.7767,-2.512,-2.4827,-2.4072,-2.2207,-2.1957,-2.2259,-2.2974,-2.3014,-2.3014,-2.3014,-2.3014,-2.3014,-2.3014,-2.3014,-2.3014,-2.3014,-2.3014,-2.3014,-2.3014,-2.3014,-2.2982,0.2897,0.2008,0.094,0.0797,0.0096,-0.0589,-0.0818,-0.0877,-0.0722,-0.0103,0.0052,-0.0527,-0.2379,-0.3208,-0.5513,-1.143,-1.2004,-1.3307,-1.783,-1.8528,-1.8801,-1.9552,-2.0639,-2.1479,-2.1726,-2.2518,-2.3213,-2.3632,-2.4969,-2.5951,-2.6433,-2.7815,-2.8587,-2.8587,-2.8587,-2.8722,-2.8994,-2.9373,-3.0499,-3.2196,-3.3376,-3.3934,-3.4006,-3.2789,-3.2253,-3.2166,0.0,-3.0068,-3.2153,-3.2253,-3.3297,-3.4594,-3.2943,-3.2253,-3.2003,-2.9635,-2.8757,-2.8757,-2.8757,-2.8757,-2.8757,-2.8757,-2.8757,-2.8757,-2.8757,-2.8757,-2.8757,-2.8757,-2.8757,-2.8757,-2.8757,-2.8757,-2.8757,-2.8757,-2.8757,-2.8757,-2.8757,-2.8757,-2.8757,-2.8757,-2.8757,-2.8757,-2.8757,-2.8757,-2.8757,-2.8757,-2.8757,-2.8757,-2.8757,-2.8164,-2.6979,-2.5023,-2.415,-2.3204,-2.1843,-2.1854,-2.2259,-2.2974,-2.3014,-2.3014,-2.3014,-2.3014,-2.3014,-2.3014,-2.3014,-2.3014,-2.3014,-2.3014,-2.3014,-2.3014,-2.3014,-2.3014,0.3132,0.2437,0.1152,-0.0147,-0.1056,-0.196,-0.3224,-0.3194,-0.2891,-0.2756,-0.2764,-0.3103,-0.4198,-0.6425,-1.0196,-1.6698,-1.4711,-1.4114,-1.9263,-1.7812,-1.7439,-2.0794,-2.0471,-2.1114,-2.4057,-2.3514,-2.3001,-2.3001,-2.4552,-2.5533,-2.5824,-2.7338,-2.8379,-2.8587,-2.8587,-2.8655,-2.8804,-2.869,-2.972,-3.179,-3.2836,-3.3697,-3.4205,-3.2924,-3.2166,-3.1728,-2.9726,-2.9452,-3.0574,-3.1464,-3.2685,-3.3901,-3.2771,-3.2166,-3.1641,-2.9543,-2.8757,-2.8757,-2.8757,-2.8757,-2.8757,-2.8757,-2.8757,-2.8757,-2.8757,-2.8757,-2.8757,-2.8757,-2.8757,-2.8757,-2.8757,-2.8757,-2.8757,-2.8757,-2.8757,-2.8757,-2.8757,-2.8757,-2.8757,-2.8757,-2.8757,-2.8757,-2.8757,-2.8757,-2.8757,-2.8757,-2.8757,-2.8757,-2.8757,-2.7568,-2.63,-2.4837,-2.3674,-2.2486,-2.1634,-2.1886,-2.2347,-2.2974,-2.3014,-2.3014,-2.3014,-2.3014,-2.3014,-2.3014,-2.3014,-2.3014,-2.3014,-2.3014,-2.3014,-2.3014,-2.3014,-2.3014,0.3285,0.1721,-0.0095,-0.0359,0.073,0.0901,-0.2674,-0.2259,-0.1869,-0.4656,-0.5229,-0.5708,-0.7116,-0.8159,-0.9766,-1.2524,-1.4976,-1.8353,-2.3356,-2.4218,-2.4476,-2.4811,-2.4389,-2.3956,-2.3743,-2.3307,-2.3001,-2.3001,-2.3913,-2.4898,-2.5755,-2.6773,-2.767,-2.8587,-2.8587,-2.8858,-2.9401,-2.9957,-3.0344,-3.0506,-3.1459,-3.2047,-3.2463,-3.2327,-3.1728,-3.0586,-2.9371,-2.9452,-3.0485,-3.0574,-3.1979,-3.3901,-3.2771,-3.1641,-3.0496,-2.9279,-2.8757,-2.8757,-2.8757,-2.8757,-2.8757,-2.8757,-2.8757,-2.8757,-2.8757,-2.8757,-2.8757,-2.8757,-2.8757,-2.8757,-2.8757,-2.8757,-2.8757,-2.8757,-2.8757,-2.8757,-2.8757,-2.8757,-2.8757,-2.8757,-2.8757,-2.8757,-2.8757,-2.8757,-2.8757,-2.8757,-2.8757,-2.8664,-2.8488,-2.7484,-2.6204,-2.4679,-2.3583,-2.269,-2.1969,-2.2243,-2.2609,-2.299,-2.3014,-2.3014,-2.3014,-2.3014,-2.3014,-2.3014,-2.3014,-2.3014,-2.3014,-2.3014,-2.3014,-2.3014,-2.3014,-2.3014,0.3462,0.203,0.0256,-0.0161,0.0212,-0.0431,-0.4631,-0.5421,-0.5366,-0.5924,-0.7259,-0.8384,-0.8732,-1.152,-1.4093,-1.5145,-1.7501,-2.0591,-2.4395,-2.5065,-2.5175,-2.5175,-2.477,-2.429,-2.3777,-2.3285,-2.3001,-2.3001,-2.3852,-2.4552,-2.4909,-2.6119,-2.7049,-2.7683,-2.8368,-2.897,-2.9482,-2.8838,-2.8883,-2.9512,-3.1227,-3.2349,-3.2899,-3.1746,-3.1376,-3.1553,-2.9635,-2.9013,-2.9543,-3.0237,-3.1009,-3.1804,-3.1364,-3.0932,-3.0406,-2.9187,-2.8757,-2.8757,-2.8757,-2.8757,-2.8757,-2.8757,-2.8757,-2.8757,-2.8757,-2.8757,-2.8757,-2.8757,-2.8757,-2.8757,-2.8757,-2.8757,-2.8757,-2.8757,-2.8757,-2.8757,-2.8757,-2.8757,-2.8757,-2.8757,-2.8757,-2.8757,-2.8757,-2.8757,-2.8757,-2.8757,-2.8664,-2.8477,-2.8395,-2.6628,-2.5158,-2.459,-2.2802,-2.1696,-2.2009,-2.2084,-2.2402,-2.2982,-2.3014,-2.3014,-2.3014,-2.3014,-2.3014,-2.3014,-2.3014,-2.3014,-2.3014,-2.3014,-2.3014,-2.3014,-2.3014,-2.3014,0.2968,0.1936,0.0544,-0.0677,-0.0864,-0.1936,-0.6249,-0.7159,-0.728,-0.8069,-0.9458,-1.0526,-1.0551,-1.3365,-1.5886,-1.6357,-1.8994,-2.183,-2.431,-2.5131,-2.5295,-2.4989,-2.4814,-2.4443,-2.3787,-2.3427,-2.323,-2.323,-2.3649,-2.4059,-2.4409,-2.5456,-2.6355,-2.696,-2.8158,-2.9078,-2.9533,-2.8605,-2.8362,-2.8966,-3.0288,-3.1354,-3.2177,-3.1049,-3.0932,-3.1641,-2.9624,-2.8757,-2.8839,-2.9624,-3.0147,-3.0496,-3.0496,-3.0496,-3.0406,-2.9187,-2.8757,-2.8757,-2.8757,-2.8757,-2.8757,-2.8757,-2.8757,-2.8757,-2.8757,-2.8757,-2.8757,-2.8757,-2.8757,-2.8757,-2.8757,-2.8757,-2.8757,-2.8757,-2.8757,-2.8757,-2.8757,-2.8757,-2.8757,-2.8757,-2.8757,-2.8757,-2.8757,-2.8757,-2.8757,-2.8664,-2.8488,-2.8301,-2.8207,-2.6051,-2.4196,-2.3402,-2.1912,-2.1171,-2.1798,-2.1854,-2.2188,-2.2966,-2.3014,-2.3014,-2.3014,-2.3014,-2.3014,-2.3014,-2.3014,-2.3014,-2.3014,-2.3014,-2.3014,-2.3014,-2.3014,-2.3014,0.1649,0.1322,0.051,-0.198,-0.2242,-0.2969,-0.706,-0.6592,-0.6575,-1.1324,-1.1954,-1.197,-1.2923,-1.3407,-1.3985,-1.5046,-1.8902,-2.2177,-2.3284,-2.4808,-2.5557,-2.4607,-2.4902,-2.4792,-2.3831,-2.3733,-2.3733,-2.3733,-2.3274,-2.3423,-2.4348,-2.4835,-2.5533,-2.6443,-2.7995,-2.9099,-2.968,-2.9693,-2.9415,-2.8995,-2.8456,-2.8777,-2.9776,-3.0264,-3.0485,-3.0406,-2.9279,-2.8757,-2.8757,-2.8757,-2.9452,-3.0496,-3.0496,-3.0496,-3.0406,-2.9187,-2.8757,-2.8757,-2.8757,-2.8757,-2.8757,-2.8757,-2.8757,-2.8757,-2.8757,-2.8757,-2.8757,-2.8757,-2.8757,-2.8757,-2.8757,-2.8757,-2.8757,-2.8757,-2.8757,-2.8757,-2.8757,-2.8757,-2.8757,-2.8757,-2.8757,-2.8757,-2.8757,-2.8757,-2.8664,-2.8395,-2.8395,-2.8207,-2.7631,-2.5761,-2.3601,-2.1113,-2.0925,-2.1115,-2.1584,-2.1632,-2.2029,-2.2958,-2.3014,-2.3014,-2.3014,-2.3014,-2.3014,-2.3014,-2.3014,-2.3014,-2.3014,-2.3014,-2.3014,-2.3014,-2.3014,-2.3014,0.2618,0.1149,-0.0241,-0.0125,-0.2223,-0.4673,-0.6325,-0.7298,-0.8913,-1.2737,-1.2575,-1.2086,-1.3281,-1.4975,-1.6194,-1.6102,-1.8648,-2.1414,-2.3539,-2.431,-2.4703,-2.4952,-2.5087,-2.4934,-2.4323,-2.394,-2.3886,-2.4235,-2.3482,-2.3293,-2.386,-2.4436,-2.491,-2.5471,-2.7335,-2.8413,-2.8587,-2.8587,-2.8325,-2.7936,-2.7356,-2.7849,-2.9328,-2.888,-2.9376,-3.0406,-2.9279,-2.8757,-2.8757,-2.8757,-2.9452,-3.0406,-2.9624,-2.9795,-3.0406,-2.9187,-2.8757,-2.8757,-2.8757,-2.8757,-2.8757,-2.8757,-2.8757,-2.8757,-2.8757,-2.8757,-2.8757,-2.8757,-2.8757,-2.8757,-2.8757,-2.8757,-2.8757,-2.8757,-2.8757,-2.8757,-2.8757,-2.8757,-2.8757,-2.8757,-2.8757,-2.8757,-2.8757,-2.8757,-2.8664,-2.8395,-2.8196,-2.761,-2.6071,-2.4884,-2.3402,-2.1121,-2.0925,-2.098,-2.1123,-2.1584,-2.2196,-2.2966,-2.3014,-2.3014,-2.3014,-2.3014,-2.3014,-2.3014,-2.3014,-2.3014,-2.3014,-2.3014,-2.3014,-2.3014,-2.3014,-2.3014,0.1767,0.0421,-0.0865,-0.2087,-0.3937,-0.5937,-0.7768,-0.9105,-1.0744,-1.3665,-1.3497,-1.3367,-1.5007,-1.6619,-1.762,-1.727,-1.8966,-2.1022,-2.3114,-2.378,-2.4397,-2.5137,-2.5338,-2.5273,-2.4803,-2.4323,-2.4159,-2.4465,-2.3744,-2.3329,-2.3438,-2.4279,-2.4757,-2.4853,-2.7215,-2.8285,-2.7843,-2.8285,-2.8156,-2.7476,-2.6674,-2.6915,-2.806,-2.7988,-2.853,-2.9523,-2.9028,-2.8757,-2.8757,-2.8757,-2.9187,-2.9806,-2.9106,-2.9187,-2.9704,-2.9013,-2.8757,-2.8757,-2.8757,-2.8757,-2.8757,-2.8757,-2.8757,-2.8757,-2.8757,-2.8757,-2.8757,-2.8757,-2.8757,-2.8757,-2.8757,-2.8757,-2.8757,-2.8757,-2.8757,-2.8653,-2.8154,-2.7966,-2.7966,-2.7966,-2.7568,-2.7568,-2.8653,-2.8269,-2.7987,-2.8301,-2.8008,-2.7336,-2.6167,-2.5577,-2.4187,-2.1216,-2.0925,-2.0925,-2.0925,-2.1306,-2.1965,-2.295,-2.3014,-2.3014,-2.3014,-2.3014,-2.3014,-2.3014,-2.3014,-2.3014,-2.3014,-2.3014,-2.3014,-2.3014,-2.3014,-2.3014,-0.006,-0.0533,-0.1397,-0.5833,-0.6468,-0.7,-1.0565,-1.1381,-1.1956,-1.4009,-1.4496,-1.52,-1.7303,-1.7992,-1.8311,-1.8343,-1.9487,-2.0863,-2.2092,-2.324,-2.4237,-2.5027,-2.5539,-2.5732,-2.5284,-2.4825,-2.4552,-2.4552,-2.4082,-2.3602,-2.3165,-2.4432,-2.4978,-2.4563,-2.7435,-2.8409,-2.7395,-2.8409,-2.8409,-2.7313,-2.6373,-2.6136,-2.6594,-2.7501,-2.796,-2.8069,-2.8549,-2.8757,-2.8757,-2.8757,-2.8757,-2.8757,-2.8757,-2.8757,-2.8757,-2.8757,-2.8757,-2.8757,-2.8757,-2.8757,-2.8757,-2.8757,-2.8757,-2.8757,-2.8757,-2.8757,-2.8757,-2.8757,-2.8757,-2.8757,-2.8757,-2.8757,-2.8757,-2.8757,-2.8746,-2.8362,-2.7179,-2.6788,-2.6683,-2.6788,-2.5809,-2.5712,-2.8164,-2.7494,-2.6924,-2.8124,-2.7736,-2.7262,-2.7262,-2.7262,-2.5771,-2.1912,-2.1121,-2.0925,-2.0925,-2.0925,-2.152,-2.2927,-2.3014,-2.3014,-2.3014,-2.3014,-2.3014,-2.3014,-2.3014,-2.3014,-2.3014,-2.3014,-2.3014,-2.3014,-2.3014,-2.3014,0.0833,-0.0254,-0.122,-0.3013,-0.5482,-0.8103,-1.1014,-1.1623,-1.1899,-1.3079,-1.3967,-1.5094,-1.672,-1.7702,-1.839,-1.8669,-1.8956,-1.9621,-2.0863,-2.2003,-2.3124,-2.4173,-2.5221,-2.5863,-2.5753,-2.5306,-2.5022,-2.5022,-2.4585,-2.4279,-2.4181,-2.4803,-2.512,-2.5033,-2.7191,-2.7656,-2.629,-2.7589,-2.7589,-2.6207,-2.5979,-2.595,-2.6081,-2.666,-2.7337,-2.8069,-2.8549,-2.8757,-2.8757,-2.8757,-2.8757,-2.8757,-2.8757,-2.8757,-2.8757,-2.8757,-2.8757,-2.8757,-2.8757,-2.8757,-2.8757,-2.8757,-2.8757,-2.8757,-2.8757,-2.8757,-2.8757,-2.8757,-2.8757,-2.8757,-2.8757,-2.8757,-2.8757,-2.8757,-2.7966,-2.7474,-2.8164,-2.6693,-2.5509,-2.6587,-2.631,-2.6127,-2.6809,-2.7421,-2.7925,-2.7935,-2.7547,-2.7262,-2.7262,-2.7262,-2.6965,-2.6071,-2.2902,-2.0925,-2.0925,-2.0925,-2.152,-2.2927,-2.3014,-2.3014,-2.3014,-2.3014,-2.3014,-2.3014,-2.3014,-2.3014,-2.3014,-2.3014,-2.3014,-2.3014,-2.3014,-2.3014,0.0803,-0.0259,-0.1364,-0.3521,-0.627,-0.8879,-1.0314,-1.1081,-1.1625,-1.2411,-1.3723,-1.5233,-1.6755,-1.7765,-1.8414,-1.8772,-1.8827,-1.918,-2.0413,-2.1649,-2.2795,-2.3953,-2.5189,-2.5895,-2.5895,-2.5459,-2.5175,-2.5175,-2.4956,-2.4727,-2.4497,-2.5142,-2.5415,-2.5175,-2.693,-2.7185,-2.5895,-2.7197,-2.7197,-2.5895,-2.5895,-2.5895,-2.5917,-2.6409,-2.7151,-2.8058,-2.8309,-2.8538,-2.8757,-2.8757,-2.8757,-2.8757,-2.8757,-2.8757,-2.8757,-2.8757,-2.8757,-2.8757,-2.8757,-2.8757,-2.8757,-2.8757,-2.8757,-2.8757,-2.8757,-2.8757,-2.8757,-2.8757,-2.8757,-2.8757,-2.8757,-2.8757,-2.8757,-2.8757,-2.8258,-2.7568,-2.6979,-2.5809,-2.5023,-2.5702,-2.5042,-2.5061,-2.72,-2.8092,-2.7998,-2.6254,-2.4973,-2.4285,-2.4285,-2.4285,-2.4285,-2.4285,-2.2207,-2.0925,-2.0925,-2.0925,-2.1234,-2.1965,-2.2649,-2.3014,-2.3014,-2.3014,-2.3014,-2.3014,-2.3014,-2.3014,-2.3014,-2.3014,-2.3014,-2.3014,-2.2796,-2.2796,0.071,-0.0464,-0.1831,-0.5108,-0.7257,-0.8871,-0.9497,-1.0282,-1.1021,-1.1919,-1.3543,-1.5314,-1.6793,-1.769,-1.8414,-1.8772,-1.8827,-1.9188,-2.015,-2.1471,-2.2707,-2.3684,-2.502,-2.5895,-2.5895,-2.5535,-2.5262,-2.5175,-2.5251,-2.5098,-2.4628,-2.5426,-2.571,-2.5306,-2.6701,-2.6999,-2.5895,-2.6917,-2.6917,-2.5895,-2.5895,-2.5895,-2.5917,-2.6321,-2.6977,-2.7796,-2.7883,-2.8189,-2.8637,-2.8637,-2.868,-2.8757,-2.8757,-2.8757,-2.8757,-2.8757,-2.8757,-2.8757,-2.8757,-2.8757,-2.8757,-2.8757,-2.8757,-2.8757,-2.8757,-2.8757,-2.8757,-2.8757,-2.8757,-2.8757,-2.8757,-2.8757,-2.8757,-2.8757,-2.8757,-2.8164,-2.5702,-2.4827,-2.4436,-2.4436,-2.3384,-2.3592,-2.7189,-2.7778,-2.6999,-2.4679,-2.2308,-2.0925,-2.0925,-2.0925,-2.0925,-2.0925,-2.0925,-2.0925,-2.0925,-2.0925,-2.0925,-2.0925,-2.2243,-2.3014,-2.3014,-2.3014,-2.3014,-2.3014,-2.3014,-2.3014,-2.3014,-2.3014,-2.3014,-2.3014,-2.2578,-2.2456,0.1575,-0.0643,-0.2991,-0.5317,-0.6219,-0.7132,-0.9339,-0.999,-1.0409,-1.1796,-1.3487,-1.4898,-1.5825,-1.7231,-1.8414,-1.8772,-1.8827,-1.8827,-1.9004,-2.0944,-2.2444,-2.262,-2.4563,-2.5895,-2.5895,-2.5841,-2.5633,-2.5207,-2.5568,-2.559,-2.5109,-2.56,-2.5874,-2.5808,-2.6883,-2.6999,-2.5895,-2.6917,-2.6917,-2.5895,-2.5895,-2.5895,-2.5895,-2.5961,-2.6299,-2.6835,-2.7239,-2.7687,-2.8134,-2.8134,-2.8386,-2.8757,-2.8757,-2.8757,-2.8757,-2.8757,-2.8757,-2.8757,-2.8757,-2.8757,-2.8757,-2.8757,-2.8757,-2.8757,-2.8757,-2.8757,-2.8757,-2.8757,-2.8757,-2.8757,-2.8757,-2.8757,-2.8757,-2.8757,-2.8757,-2.8362,-2.6884,-2.4739,-2.3176,-2.3176,-2.2811,-2.282,-2.3592,-2.3791,-2.4088,-2.4894,-2.261,-2.0925,-2.0925,-2.0925,-2.0925,-2.0925,-2.0925,-2.0925,-2.0925,-2.0925,-2.0925,-2.0925,-2.2243,-2.3014,-2.3014,-2.3014,-2.3014,-2.3014,-2.3014,-2.3014,-2.3014,-2.3014,-2.3014,-2.3014,-2.2578,-2.223,0.1864,-0.0648,-0.2871,-0.3844,-0.4915,-0.6334,-0.8304,-0.9091,-1.0017,-1.1759,-1.2927,-1.4084,-1.5332,-1.6497,-1.7543,-1.8648,-1.8827,-1.8827,-1.8827,-2.0331,-2.1382,-2.1382,-2.3424,-2.4925,-2.4925,-2.5454,-2.5546,-2.463,-2.543,-2.5535,-2.463,-2.543,-2.5895,-2.5895,-2.6373,-2.6373,-2.5895,-2.6373,-2.6373,-2.5895,-2.5895,-2.5895,-2.5895,-2.5895,-2.6168,-2.6638,-2.6846,-2.7195,-2.7632,-2.7632,-2.7763,-2.7949,-2.7949,-2.8112,-2.8353,-2.8353,-2.8528,-2.8757,-2.8757,-2.8757,-2.8757,-2.8757,-2.8757,-2.8757,-2.8757,-2.8757,-2.8757,-2.8757,-2.8757,-2.8757,-2.8757,-2.8757,-2.8757,-2.8757,-2.8757,-2.8362,-2.6798,-2.513,-2.3665,-2.2802,-2.3285,-2.3583,-2.3103,-2.2316,-2.2013,-2.261,-2.1717,-2.0925,-2.0925,-2.0925,-2.0925,-2.0925,-2.0925,-2.0925,-2.0925,-2.0925,-2.0925,-2.0925,-2.1497,-2.2196,-2.2982,-2.3014,-2.2675,-2.1995,-2.2675,-2.2909,-2.2683,-2.257,-2.2562,-2.2683,-2.223,-2.1995,0.1991,-0.0063,-0.1823,-0.247,-0.379,-0.5416,-0.7329,-0.8299,-0.9397,-1.1484,-1.2254,-1.3063,-1.4689,-1.5756,-1.6922,-1.8249,-1.8635,-1.8827,-1.8827,-1.9795,-2.0593,-2.0593,-2.2454,-2.3684,-2.3684,-2.4478,-2.4659,-2.378,-2.4744,-2.502,-2.4135,-2.5274,-2.5895,-2.5895,-2.5895,-2.5895,-2.5895,-2.5895,-2.5895,-2.5895,-2.5895,-2.5895,-2.5895,-2.5895,-2.6103,-2.6441,-2.6441,-2.6704,-2.714,-2.714,-2.7206,-2.7315,-2.7315,-2.7534,-2.785,-2.785,-2.808,-2.8407,-2.8528,-2.8571,-2.8593,-2.8713,-2.856,-2.8258,-2.8258,-2.8258,-2.8258,-2.8258,-2.8549,-2.8757,-2.8757,-2.8757,-2.8757,-2.8757,-2.8757,-2.8164,-2.6021,-2.4641,-2.3466,-2.2316,-2.2985,-2.3565,-2.2601,-2.1623,-2.0925,-2.0925,-2.0925,-2.0925,-2.0925,-2.0925,-2.0925,-2.0925,-2.0925,-2.0925,-2.0925,-2.0925,-2.0925,-2.0925,-2.0925,-2.1552,-2.2958,-2.2901,-2.2335,-2.1432,-2.2222,-2.2675,-2.257,-2.2116,-2.2002,-2.2124,-2.1774,-2.1767,0.2239,0.1314,0.0178,-0.2041,-0.281,-0.3834,-0.6975,-0.779,-0.8515,-1.0845,-1.1375,-1.186,-1.3417,-1.5345,-1.6916,-1.7338,-1.8156,-1.8827,-1.8827,-1.9795,-2.0593,-2.0593,-2.1738,-2.2532,-2.2532,-2.2532,-2.2532,-2.2532,-2.3511,-2.4135,-2.4135,-2.5274,-2.5895,-2.5895,-2.5895,-2.5895,-2.5895,-2.5895,-2.5895,-2.5895,-2.5895,-2.5895,-2.5895,-2.5895,-2.5917,-2.5939,-2.5939,-2.6212,-2.666,-2.666,-2.6922,-2.7315,-2.7315,-2.7326,-2.7348,-2.7348,-2.737,-2.7457,-2.7916,-2.808,-2.8156,-2.8604,-2.7966,-2.6884,-2.6884,-2.6884,-2.6884,-2.6884,-2.7861,-2.8757,-2.8757,-2.8757,-2.8757,-2.8757,-2.8757,-2.7861,-2.4436,-2.2291,-2.1121,-2.1019,-2.1019,-2.1121,-2.1019,-2.0917,-2.0925,-2.0925,-2.0925,-2.0925,-2.0925,-2.0925,-2.0925,-2.0925,-2.0925,-2.0925,-2.0925,-2.0925,-2.0925,-2.0925,-2.0925,-2.1552,-2.2958,-2.2449,-2.2116,-2.2002,-2.1881,-2.2214,-2.3014,-2.1774,-2.1211,-2.1211,-2.1211,-2.1211,0.3346,0.2108,0.0783,0.0,-0.1418,-0.3197,-0.5211,-0.6709,-0.8245,-1.0074,-1.103,-1.176,-1.253,-1.4282,-1.6049,-1.7115,-1.8156,-1.8827,-1.8827,-1.918,-1.9446,-1.9446,-2.0503,-2.1203,-2.1203,-2.1915,-2.2092,-2.1293,-2.2356,-2.2979,-2.2979,-2.4125,-2.5105,-2.5895,-2.5895,-2.5895,-2.5895,-2.5895,-2.5895,-2.5895,-2.5895,-2.5895,-2.5895,-2.5895,-2.5895,-2.5895,-2.5895,-2.6005,-2.6157,-2.6157,-2.6256,-2.6409,-2.6409,-2.6594,-2.6878,-2.6878,-2.7064,-2.7337,-2.7512,-2.7566,-2.7654,-2.8145,-2.8001,-2.748,-2.6991,-2.7379,-2.7861,-2.7074,-2.7767,-2.8757,-2.8757,-2.8757,-2.8757,-2.8757,-2.856,-2.7494,-2.4562,-2.2802,-2.1725,-2.1019,-2.0925,-2.0925,-2.0925,-2.0925,-2.0925,-2.0925,-2.0925,-2.0925,-2.0925,-2.0925,-2.0925,-2.0925,-2.0925,-2.0925,-2.0925,-2.0925,-2.0925,-2.0925,-2.0925,-2.0836,-2.0582,-2.1376,-2.1569,-2.113,-2.1624,-2.1881,-2.2116,-2.1546,-2.1211,-2.1211,-2.1211,-2.1211,0.3906,0.297,0.183,0.1284,-0.0128,-0.2019,-0.4419,-0.616,-0.7835,-0.985,-1.0984,-1.1655,-1.1887,-1.335,-1.4867,-1.6003,-1.7323,-1.8257,-1.8257,-1.8635,-1.8827,-1.8827,-1.9538,-1.9977,-1.9977,-2.0683,-2.0863,-2.0068,-2.1123,0.0,-2.2356,-2.3511,-2.4659,-2.5895,-2.5895,-2.5895,-2.5895,-2.5895,-2.5895,-2.5895,-2.5895,-2.5895,-2.5895,-2.5895,-2.5895,-2.5895,-2.5895,-2.5895,-2.5895,-2.5895,-2.5895,-2.5895,-2.5895,-2.6103,-2.6387,-2.6387,-2.6573,-2.6856,-2.7031,-2.7086,-2.7162,-2.7643,-2.7249,-2.6568,-2.6094,-2.6676,-2.7274,-2.6396,-2.7084,-2.8258,-2.8653,-2.8757,-2.8757,-2.856,-2.8186,-2.703,-2.4285,-2.3211,-2.2325,-2.1121,-2.0925,-2.0925,-2.0925,-2.0925,-2.0925,-2.0925,-2.0925,-2.0925,-2.0925,-2.0925,-2.0925,-2.0925,-2.0925,-2.0925,-2.0925,-2.0925,-2.0925,-2.0925,-2.0514,-1.999,-1.9383,-2.0497,-2.0963,-2.0567,-2.1099,-2.1435,-2.1554,-2.1325,-2.1211,-2.1211,-2.1211,-2.1211,0.0,0.0,0.0,0.1524,0.1055,-0.0182,-0.4651,-0.5996,-0.7126,-1.0171,-1.107,-1.1321,-1.1634,-1.2468,-1.3337,-1.3767,-1.5751,-1.7267,-1.7267,-1.8126,-1.8804,-1.8812,-1.8812,-1.8812,-1.8827,-1.8827,-1.8827,-1.8827,-1.9886,-2.1033,-2.2268,-2.3424,-2.4659,-2.5895,-2.5895,-2.5895,-2.5895,-2.5895,-2.5895,-2.5895,-2.5895,-2.5895,-2.5895,-2.5895,-2.5895,-2.5895,-2.5895,-2.5895,-2.5895,-2.5895,-2.5895,-2.5895,-2.5895,-2.5895,-2.5895,-2.5895,-2.5895,-2.5972,-2.6441,-2.6605,-2.6682,-2.7053,-2.5829,-2.4107,-2.404,-2.4409,-2.4809,-2.472,-2.5712,-2.7084,-2.8456,-2.8653,-2.8456,-2.7893,-2.7526,-2.6466,-2.3601,-2.3011,-2.261,-2.1121,-2.0925,-2.0925,-2.0925,-2.0925,-2.0925,-2.0925,-2.0925,-2.0925,-2.0925,-2.0925,-2.0925,-2.0925,-2.0925,-2.0925,-2.0925,-2.0925,-2.0917,-2.0925,-1.9894,-1.9272,-1.9279,-1.9681,-2.0113,-2.0552,-2.0669,-2.0881,-2.1211,-2.1211,-2.1211,-2.1211,-2.1211,-2.1211,0.4259,0.0,0.0,0.0,0.0,0.0,-0.0563,-0.2982,-0.5355,-0.695,-0.8673,-1.0154,-1.108,-1.1717,-1.2176,-1.2316,-1.4784,-1.6691,-1.6691,-1.7509,-1.816,-1.8414,-1.8446,-1.8541,-1.8804,-1.8827,-1.8827,0.0,-1.9096,-1.9795,-2.1033,-2.2979,-2.4659,-2.5895,-2.5895,-2.5895,-2.5895,-2.5895,-2.5895,-2.5895,-2.5895,-2.5895,-2.5895,-2.5895,-2.5895,-2.5895,-2.5895,-2.5895,-2.5895,-2.5895,-2.5895,-2.5895,-2.5895,-2.5895,-2.5895,-2.5895,-2.5895,-2.5917,-2.6059,-2.6103,-2.5999,-2.563,-2.5132,-2.4352,-2.3185,-2.3625,-2.4343,-2.3583,-2.4846,-2.6703,-2.8362,-2.6011,-2.3085,-2.2885,-2.398,-2.4384,-2.2013,-2.2123,-2.2325,-2.1121,-2.0925,-2.0925,-2.0925,-2.0925,-2.0925,-2.0925,-2.0925,-2.0925,-2.0925,-2.0925,-2.0925,-2.0925,-2.0925,-2.0925,-2.0925,-2.0925,-2.0712,-2.0395,-2.0086,-1.968,-1.9272,-1.982,-2.0175,-2.0318,-2.0589,-2.0881,-2.1211,-2.1211,-2.1211,-2.1211,-2.1211,-2.1211,0.438,0.4217,0.4049,0.4029,0.0,0.0,-0.0233,-0.2503,-0.4899,-0.6994,-0.8658,-0.9948,-1.061,-1.1004,-1.1289,-1.1386,-1.3225,-1.4916,-1.5655,-1.661,-1.7396,-1.8049,-1.8081,-1.816,-1.8367,-1.839,-1.8446,-1.8597,-1.8605,-1.9199,-2.0494,-2.2356,-2.3684,-2.4392,-2.4925,-2.5189,-2.5189,-2.5633,-2.5895,-2.5895,-2.5895,-2.5895,-2.5895,-2.5895,-2.5895,-2.5895,-2.5895,-2.5895,-2.5895,-2.5895,-2.5895,-2.5895,-2.5895,-2.5895,-2.5895,-2.5895,-2.5895,-2.5895,-2.5895,-2.5895,-2.576,-2.4778,-2.4263,-2.3728,-2.2455,-2.2751,-2.3441,-2.2971,-2.4258,-2.5625,-2.5518,-2.3176,-2.1019,-2.1615,-2.2702,-2.3302,-2.192,-2.2021,-2.2224,-2.1121,-2.0925,-2.0925,-2.0925,-2.0925,-2.0925,-2.0925,-2.0925,-2.0925,-2.0925,-2.0925,-2.0925,-2.0925,-2.0925,-2.0814,-2.0712,-2.0712,-2.0506,-1.999,-1.9887,-1.9576,-1.9272,-1.9665,-1.9916,-2.0033,-2.0355,-2.075,-2.1211,-2.1211,-2.1211,-2.1211,-2.1211,-2.1211,0.4319,0.4404,0.4336,0.3963,0.3639,0.0,-0.1365,-0.2964,-0.4553,-0.7887,-0.9084,-0.9509,-0.9612,-0.9792,-1.0103,-1.0357,-1.1232,-1.2427,-1.4432,-1.5613,-1.66,-1.7534,-1.762,-1.7636,-1.7771,-1.7676,-1.781,-1.8216,-1.824,-1.8913,-2.0416,-2.1585,-2.2211,-2.2347,-2.3511,-2.4135,-2.4135,-2.5285,-2.5895,-2.5895,-2.5895,-2.5895,-2.5895,-2.5895,-2.5895,-2.5895,-2.5895,-2.5895,-2.5895,-2.5895,-2.5895,-2.5895,-2.5895,-2.5895,-2.5895,-2.5895,-2.5895,-2.5895,-2.5895,-2.5895,-2.5717,-2.4488,-2.3594,-2.2809,-2.1843,-2.1856,-2.2336,-2.2572,-2.3466,-2.3854,-2.1505,-2.0925,-2.1216,-2.2509,-2.2811,-2.271,-2.2426,-2.2325,-2.2021,-2.1121,-2.0925,-2.0925,-2.0925,-2.0925,-2.0925,-2.0925,-2.0925,-2.0925,-2.0925,-2.0925,-2.0925,-2.0925,-2.0917,-2.0712,-2.0506,-2.0403,-2.0197,-1.9798,-1.9487,-1.9279,-1.9279,-1.9279,-1.9433,-1.9755,-2.015,-2.0625,-2.1211,-2.1211,-2.1211,-2.1211,-2.1211,-2.1211,0.4279,0.4404,0.4413,0.449,0.4248,0.0,0.2952,0.135,-0.0444,-0.1916,-0.34,-0.4709,-0.5488,-0.5839,-0.618,-0.6708,-0.7787,-0.9652,-1.2699,-1.4555,-1.5757,-1.6201,-1.623,-1.668,-1.7739,-1.7136,-1.6991,-1.7866,-1.7874,-1.8537,-2.0114,-2.0386,-2.1144,-2.2347,-2.3511,-2.4135,-2.4135,-2.5285,-2.5895,-2.5895,-2.5895,-2.5895,-2.5895,-2.5895,-2.5895,-2.5895,-2.5895,-2.5895,-2.5895,-2.5895,-2.5895,-2.5895,-2.5895,-2.5895,-2.5895,-2.5895,-2.5895,-2.5895,-2.5895,-2.5895,-2.5717,-2.4488,-2.4013,-2.3545,-2.1713,-2.1457,-2.1715,-2.1426,-2.1514,-2.1505,-2.1019,-2.0925,-2.1019,-2.1216,-2.1318,-2.1318,-2.1224,-2.1224,-2.1121,-2.0917,-2.0925,-2.0925,-2.0925,-2.0925,-2.0925,-2.0925,-2.0925,-2.0925,-2.0925,-2.0925,-2.0925,-2.0925,-2.0719,-2.0617,-2.0822,-2.0308,-1.9902,-1.9798,-1.9487,-1.9279,-1.9279,-1.9279,-1.9433,-1.9755,-2.0589,-2.1086,-2.1211,-2.1211,-2.1211,-2.1211,-2.1211,-2.1211,0.4432,0.4557,0.458,0.4681,0.4392,0.0,0.0,0.1832,0.0465,-0.0811,-0.2137,-0.3225,-0.3635,-0.4184,-0.4665,-0.5005,-0.6481,-0.7912,-0.8985,-1.1756,-1.396,-1.4678,-1.4796,-1.5091,-1.5833,-1.5862,-1.6372,-1.7509,-1.7676,-1.8096,-1.8871,-1.9142,-1.9592,-2.0297,-2.1636,-2.2366,-2.2366,-2.4125,-2.502,-2.5009,-2.5633,-2.5895,-2.5895,-2.5895,-2.5895,-2.5895,-2.5895,-2.5895,-2.5812,-2.5274,-2.502,-2.502,-2.5633,-2.5895,-2.5895,-2.5895,-2.5895,-2.5895,-2.5895,-2.5895,-2.5717,-2.4488,-2.4135,-2.3861,-2.2407,-2.1937,-2.1764,-2.1063,-2.0925,-2.0925,-2.0925,-2.0925,-2.0925,-2.0925,-2.0925,-2.0925,-2.0925,-2.0925,-2.0925,-2.0925,-2.0925,-2.0925,-2.0925,-2.0925,-2.0925,-2.0925,-2.0925,-2.0925,-2.0925,-2.0925,-2.0822,-2.0712,-2.0514,-2.0411,-2.03,-1.999,-1.9687,-1.9591,-1.9376,-1.9279,-1.9279,-1.9279,-1.9455,-1.9828,-2.0106,-2.0567,-2.1211,-2.1211,-2.1211,-2.1211,-2.1211,-2.1211,0.4544,0.4704,0.4704,0.4704,0.4477,0.3921,0.0,0.0,0.0,-0.0361,-0.1339,-0.1978,-0.1935,-0.2499,-0.3053,-0.3348,-0.4893,-0.5783,-0.5027,-0.8222,0.0,-1.2447,-1.302,-1.3352,-1.3417,-1.4171,-1.5314,-1.7059,-1.7017,-1.7203,-1.7676,-1.8009,-1.8232,-1.8295,-1.9782,-2.0593,-2.0593,-2.2892,-2.4135,-2.4135,-2.5285,-2.5895,-2.5895,-2.5895,-2.5895,-2.5895,-2.5895,-2.5895,-2.5812,-2.484,-2.4488,-2.4488,-2.5274,-2.5454,-2.5274,-2.5717,-2.5728,-2.5633,-2.5812,-2.5895,-2.5728,-2.4754,-2.4307,-2.3947,-2.3386,-2.2665,-2.1999,-2.1301,-2.1065,-2.0925,-2.0925,-2.0925,-2.0925,-2.0925,-2.0925,-2.0925,-2.0925,-2.0925,-2.0925,-2.0925,-2.0925,-2.0925,-2.0925,-2.0925,-2.0925,-2.0925,-2.0925,-2.0925,-2.0925,-2.0814,-2.0719,-2.0403,-2.0411,-2.0205,-1.9783,-1.968,-1.9576,-1.9272,-1.9279,-1.9279,-1.9279,-1.9279,-1.944,-1.9784,-1.9455,-1.9791,-2.0837,-2.1006,-2.113,-2.1211,-2.1211,-2.1211,0.4444,0.4704,0.4704,0.4704,0.4782,0.4863,0.467,0.0,0.3646,0.3449,0.0,0.1769,0.193,0.0,0.0,0.0482,-0.078,-0.1842,-0.2246,-0.4244,-0.6359,-0.8413,-1.0503,-1.1744,0.0,-1.1688,-1.3212,-1.6531,-1.4965,-1.4867,-1.7241,-1.7652,-1.7969,-1.8287,-1.9782,-2.0593,-2.0593,-2.2892,-2.4135,-2.4135,-2.5285,-2.5895,-2.5895,-2.5895,-2.5895,-2.5895,-2.5895,-2.5895,-2.5906,-2.5728,-2.5717,-2.5633,-2.4659,-2.3684,-2.3057,-2.5105,-2.5189,-2.4488,-2.5549,-2.5895,-2.5895,-2.5728,-2.4935,-2.412,-2.4371,-2.311,-2.17,-2.1982,-2.1453,-2.0925,-2.0925,-2.0925,-2.0925,-2.0925,-2.0925,-2.0925,-2.0925,-2.0925,-2.0925,-2.0925,-2.0925,-2.0925,-2.0925,-2.0925,-2.0925,-2.0925,-2.0925,-2.0925,-2.0925,-2.0719,-2.0514,-2.0522,-2.0101,-1.9791,-1.9798,-1.9487,-1.9376,-1.9279,-1.9279,-1.9279,-1.9279,-1.9279,-1.9301,-1.9345,-1.9301,-1.9345,-1.9499,-2.0267,-2.0837,-2.1211,-2.1211,-2.1211,0.51,0.4929,0.464,0.4823,0.4697,0.4628,0.4925,0.4806,0.4626,0.4626,0.0,0.0,0.0,0.0,0.0,0.0,0.0154,-0.0744,-0.0156,-0.2404,-0.4436,-0.5627,0.0,0.0,0.0,0.0,0.0,0.0,-1.5624,-1.6,-1.6885,-1.7477,-1.7834,-1.7985,-1.906,-1.9538,-1.9538,-2.1212,-2.2092,-2.2101,-2.3953,-2.484,-2.484,-2.5549,-2.5895,-2.5895,-2.5895,-2.5895,-2.5812,-2.5105,-2.484,-2.484,-2.4307,-2.378,-2.3424,-2.377,-2.3587,-2.324,-2.4478,-2.484,-2.484,-2.484,-2.502,-2.5147,-2.5149,-2.4382,-2.3551,-2.3708,-2.2763,-2.1725,-2.1019,-2.0925,-2.0925,-2.0925,-2.0925,-2.0925,-2.0925,-2.0925,-2.0925,-2.0925,-2.0925,-2.0925,-2.0925,-2.0925,-2.0925,-2.0925,-2.0925,-2.0925,-2.0925,-2.0617,-2.0411,-2.03,-1.9887,-1.968,-1.9487,-1.9383,-1.9279,-1.9279,-1.9279,-1.9279,-1.9279,-1.9279,-1.9279,-1.9279,-1.9279,-1.9396,-1.9645,-2.0267,-2.0691,-2.0933,-2.1123,-2.1211,0.5362,0.5056,0.4676,0.5152,0.493,0.4658,0.5023,0.507,0.5037,0.4923,0.4457,0.0,0.0,0.0,0.2454,0.2128,0.0,0.0189,0.1211,-0.0777,-0.2449,-0.2893,0.0,0.0,0.0,0.0,0.0,0.0,0.0,-1.6209,-1.6664,-1.731,-1.7676,-1.7763,-1.8367,-1.8732,-1.8827,-1.9977,-2.0593,-2.0593,-2.2629,-2.378,-2.4135,-2.502,-2.5633,-2.5895,-2.5895,-2.5895,-2.5812,-2.4925,-2.4573,-2.4573,-2.4221,-2.4135,-2.4039,-2.3153,-2.2444,-2.2092,-2.324,-2.3597,-2.3694,-2.4039,-2.4659,-2.5413,-2.5549,-2.5087,-2.4565,-2.4717,-2.3413,-2.192,-2.1623,-2.1224,-2.0925,-2.0925,-2.0925,-2.0925,-2.0925,-2.0925,-2.0925,-2.0925,-2.0925,-2.0925,-2.0925,-2.0925,-2.0925,-2.0925,-2.0925,-2.0917,-2.0814,-2.0514,-2.03,-1.9983,-1.9776,-1.9472,-1.9272,-1.9279,-1.9279,-1.9279,-1.9279,-1.9279,-1.9279,-1.9279,-1.9279,-1.9279,-1.9279,-1.9425,-1.974,-2.015,-2.0384,-2.0472,-2.0976,-2.1211,0.4813,0.4938,0.4982,0.5663,0.5686,0.5494,0.5325,0.5278,0.5164,0.48,0.4222,0.376,0.3629,0.2856,0.2241,0.2284,0.1908,0.0,0.0,0.1142,0.0574,0.0052,0.0,0.0,0.0,0.0,0.0,0.0,0.0,0.0,-1.6566,-1.7096,-1.7437,-1.7763,-1.8128,-1.8478,-1.8827,-1.9977,-2.0593,-2.0593,-2.1826,-2.3066,-2.4135,-2.4135,-2.484,-2.5895,-2.5895,-2.5895,-2.5895,-2.5895,-2.5812,-2.5728,-2.4573,-2.4135,-2.4135,-2.4049,-2.2629,-2.0854,-2.2003,-2.2444,-2.262,-2.378,-2.4135,-2.4317,-2.5327,-2.4611,-2.3615,-2.4424,-2.2912,-2.1216,-2.261,-2.1912,-2.0925,-2.0925,-2.0925,-2.0925,-2.0925,-2.0925,-2.0925,-2.0925,-2.0925,-2.0925,-2.0925,-2.0925,-2.0925,-2.0925,-2.0925,-2.0814,-2.0506,-2.0292,-1.9983,-1.9783,-1.948,-1.9279,-1.9279,-1.9279,-1.9279,-1.9279,-1.9279,-1.9279,-1.9279,-1.9279,-1.9279,-1.9279,-1.9279,-1.9286,-1.9294,-1.963,-1.9791,-1.9813,-2.0764,-2.1211,0.0,0.0,0.4076,0.5118,0.5034,0.4845,0.5553,0.5594,0.5325,0.4767,0.4618,0.4295,0.3337,0.3039,0.2803,0.2207,0.1861,0.1707,0.0,0.1562,0.1259,0.0734,-0.0608,0.0,0.0,0.0,0.0,0.0,0.0,0.0,0.0,-1.6604,-1.7326,-1.7437,-1.8001,-1.8359,-1.8478,-1.9058,-1.9446,-1.9446,-2.0593,-2.1826,-2.2979,-2.378,-2.4754,-2.5895,-2.5895,-2.5895,-2.5895,-2.5895,-2.5895,-2.5895,-2.5454,-2.484,-2.3867,-2.2366,-2.1302,-2.0683,-2.1033,-2.1738,-2.2356,-2.1915,-2.2717,-2.3841,-2.3771,-2.4446,-2.526,-2.5192,-2.4641,-2.3908,-2.292,-2.1827,-2.0925,-2.0925,-2.0925,-2.0925,-2.0925,-2.0925,-2.0925,-2.0925,-2.0925,-2.0925,-2.0925,-2.0925,-2.0925,-2.0925,-2.0925,-2.0822,-2.0712,-2.0197,-1.9894,-1.9791,-1.948,-1.9279,-1.9279,-1.9279,-1.9279,-1.9279,-1.9279,-1.9279,-1.9279,-1.9279,-1.9279,-1.9279,-1.9279,-1.9279,-1.9279,-1.9608,-1.9762,-1.9784,-2.0537,-2.0889,0.4342,0.3909,0.0,0.4251,0.4068,0.0,0.4889,0.4815,0.4463,0.4146,0.4283,0.3942,0.2213,0.2536,0.2745,0.1755,0.1667,0.1697,0.0,0.1715,0.1662,0.1365,0.0,0.0,0.0,0.0,0.0,0.0,0.0,0.0,0.0,0.0,-1.7143,-1.7278,-1.7707,-1.8057,-1.8295,-1.8526,-1.87,-1.8827,-1.9621,-2.0593,-2.1826,-2.2979,-2.4125,-2.5274,-2.5717,-2.5895,-2.5895,-2.5895,-2.5895,-2.5895,-2.5454,-2.502,-2.4478,-2.2541,-2.1302,-2.0593,-2.0593,-2.0854,-2.1033,-2.0683,-2.1569,-2.2599,-2.2509,-2.3444,-2.4618,-2.4996,-2.4928,-2.4501,-2.361,-2.2224,-2.0925,-2.0925,-2.0925,-2.0925,-2.0925,-2.0925,-2.0925,-2.0925,-2.0925,-2.0925,-2.0925,-2.0712,-2.0506,-2.0403,-2.0506,-2.0609,-2.0403,-1.9998,-1.9687,-1.9591,-1.9383,-1.9279,-1.9279,-1.9279,-1.9279,-1.9279,-1.9279,-1.9279,-1.9279,-1.9279,-1.933,-1.9447,-1.9338,-1.933,-1.9447,-1.9542,-1.9586,-1.9601,-2.0135,-2.0442]}]]